[[{"header":{"parameterUnit":"m.s-1","parameterCategory":1,"la1":30.6,"la2":28.766,"lo1":-90.7593,"lo2":-88.6598,"dy":0.0162,"dx":0.0183,"nx":116,"ny":114,"refTime":"2023-06-27T06:00:00:Z","depth":0,"parameterNumber":2,"parameterNumberName":"U-component_of_WINDS"},"data":[0.0,0.0,0.0,0.0,0.0,0.0,0.0,0.0,0.0,0.0,0.0,0.0,0.0,0.0,0.0,0.0,0.0,0.0,0.0,0.0,0.0,0.0,0.0,0.0,0.0,0.0,0.0,0.0,0.0,0.0,0.0,0.0,0.0,0.0,0.0,0.0,0.0,0.0,0.0,0.0,0.0,0.0,0.0,0.0,0.0,0.0,0.0,0.0,0.0,0.0,0.0,0.0,0.0,0.0,0.0,0.0,0.0,0.0,0.0,0.0,0.0,0.0,0.0,0.0,0.0,0.0,0.0,0.0,0.0,0.0,0.0,0.0,0.0,0.0,0.0,0.0,0.0,0.0,0.0,0.0,0.0,0.0,0.0,0.0,0.0,0.0,0.0,0.0,0.0,0.0,0.0,0.0,0.0,0.0,0.0,0.0,0.0,0.0,0.0,0.0,0.0,0.0,0.0,0.0,0.0,0.0,0.0,0.0,0.0,0.0,0.0,0.0,0.0,0.0,0.0,0.0,0.0,0.0,0.0,0.0,0.0,0.0,0.0,0.0,0.0,0.0,0.0,0.0,0.0,0.0,0.0,0.0,0.0,0.0,0.0,0.0,0.0,0.0,0.0,0.0,0.0,0.0,0.0,0.0,0.0,0.0,0.0,0.0,0.0,0.0,0.0,0.0,0.0,0.0,0.0,0.0,0.0,0.0,0.0,0.0,0.0,0.0,0.0,0.0,0.0,0.0,0.0,0.0,0.0,0.0,0.0,0.0,0.0,0.0,0.0,0.0,0.0,0.0,0.0,0.0,0.0,0.0,0.0,0.0,0.0,0.0,0.0,0.0,0.0,0.0,0.0,0.0,0.0,0.0,0.0,0.0,0.0,0.0,0.0,0.0,0.0,0.0,0.0,0.0,0.0,0.0,0.0,0.0,0.0,0.0,0.0,0.0,0.0,0.0,0.0,0.0,0.0,0.0,0.0,0.0,0.0,0.0,0.0,0.0,0.0,0.0,0.0,0.0,0.0,0.0,0.0,0.0,0.0,0.0,0.0,0.0,0.0,0.0,0.0,0.0,0.0,0.0,0.0,0.0,0.0,0.0,0.0,0.0,0.0,0.0,0.0,0.0,0.0,0.0,0.0,0.0,0.0,0.0,0.0,0.0,0.0,0.0,0.0,0.0,0.0,0.0,0.0,0.0,0.0,0.0,0.0,0.0,0.0,0.0,0.0,0.0,0.0,0.0,0.0,0.0,0.0,0.0,0.0,0.0,0.0,0.0,0.0,0.0,0.0,0.0,0.0,0.0,0.0,0.0,0.0,0.0,0.0,0.0,0.0,0.0,0.0,0.0,0.0,0.0,0.0,0.0,0.0,0.0,0.0,0.0,0.0,0.0,0.0,0.0,0.0,0.0,0.0,0.0,0.0,0.0,0.0,0.0,0.0,0.0,0.0,0.0,0.0,0.0,0.0,0.0,0.0,0.0,0.0,0.0,0.0,0.0,0.0,0.0,0.0,0.0,0.0,0.0,0.0,0.0,0.0,0.0,0.0,0.0,0.0,0.0,0.0,0.0,0.0,0.0,0.0,0.0,0.0,0.0,0.0,0.0,0.0,0.0,0.0,0.0,0.0,0.0,0.0,0.0,0.0,0.0,0.0,0.0,0.0,0.0,0.0,0.0,0.0,0.0,0.0,0.0,0.0,0.0,0.0,0.0,0.0,0.0,0.0,0.0,0.0,0.0,0.0,0.0,0.0,0.0,0.0,0.0,0.0,0.0,0.0,0.0,0.0,0.0,0.0,0.0,0.0,0.0,0.0,0.0,0.0,0.0,0.0,0.0,0.0,0.0,0.0,0.0,0.0,0.0,0.0,0.0,0.0,0.0,0.0,0.0,0.0,0.0,0.0,0.0,0.0,0.0,0.0,0.0,0.0,0.0,0.0,0.0,0.0,0.0,0.0,0.0,0.0,0.0,0.0,0.0,0.0,0.0,0.0,0.0,0.0,0.0,0.0,0.0,0.0,0.0,0.0,0.0,0.0,0.0,0.0,0.0,0.0,0.0,0.0,0.0,0.0,0.0,0.0,0.0,0.0,0.0,0.0,0.0,0.0,0.0,0.0,0.0,0.0,0.0,0.0,0.0,0.0,0.0,0.0,0.0,0.0,0.0,0.0,0.0,0.0,0.0,0.0,0.0,0.0,0.0,0.0,0.0,0.0,0.0,0.0,0.0,0.0,0.0,0.0,0.0,0.0,0.0,0.0,0.0,0.0,0.0,0.0,0.0,0.0,0.0,0.0,0.0,0.0,0.0,0.0,0.0,0.0,0.0,0.0,0.0,0.0,0.0,0.0,0.0,0.0,0.0,0.0,0.0,0.0,0.0,0.0,0.0,0.0,0.0,0.0,0.0,0.0,0.0,0.0,0.0,0.0,0.0,0.0,0.0,0.0,0.0,0.0,0.0,0.0,0.0,0.0,0.0,0.0,0.0,0.0,0.0,0.0,0.0,0.0,0.0,0.0,0.0,0.0,0.0,0.0,0.0,0.0,0.0,0.0,0.0,0.0,0.0,0.0,0.0,0.0,0.0,0.0,0.0,0.0,0.0,0.0,0.0,0.0,0.0,0.0,0.0,0.0,0.0,0.0,0.0,0.0,0.0,0.0,0.0,0.0,0.0,0.0,0.0,0.0,0.0,0.0,0.0,0.0,0.0,0.0,0.0,0.0,0.0,0.0,0.0,0.0,0.0,0.0,0.0,0.0,0.0,0.0,0.0,0.0,0.0,0.0,0.0,0.0,0.0,0.0,0.0,0.0,0.0,0.0,0.0,0.0,0.0,0.0,0.0,0.0,0.0,0.0,0.0,0.0,0.0,0.0,0.0,0.0,0.0,0.0,0.0,0.0,0.0,0.0,0.0,0.0,0.0,0.0,0.0,0.0,0.0,0.0,0.0,0.0,0.0,0.0,0.0,0.0,0.0,0.0,0.0,0.0,0.0,0.0,0.0,0.0,0.0,0.0,0.0,0.0,0.0,0.0,0.0,0.0,0.0,0.0,0.0,0.0,0.0,0.0,0.0,0.0,0.0,0.0,0.0,0.0,0.0,0.0,0.0,0.0,0.0,0.0,0.0,0.0,0.0,0.0,0.0,0.0,0.0,0.0,0.0,0.0,0.0,0.0,0.0,0.0,0.0,0.0,0.0,0.0,0.0,0.0,0.0,0.0,0.0,0.0,0.0,0.0,0.0,0.0,0.0,0.0,0.0,0.0,0.0,0.0,0.0,0.0,0.0,0.0,0.0,0.0,0.0,0.0,0.0,0.0,0.0,0.0,0.0,0.0,0.0,0.0,0.0,0.0,0.0,0.0,0.0,0.0,0.0,0.0,0.0,0.0,0.0,0.0,0.0,0.0,0.0,0.0,0.0,0.0,0.0,0.0,0.0,0.0,0.0,0.0,0.0,0.0,0.0,0.0,0.0,0.0,0.0,0.0,0.0,0.0,0.0,0.0,0.0,0.0,0.0,0.0,0.0,0.0,0.0,0.0,0.0,0.0,0.0,0.0,0.0,0.0,0.0,0.0,0.0,0.0,0.0,0.0,0.0,0.0,0.0,0.0,0.0,0.0,0.0,0.0,0.0,0.0,0.0,0.0,0.0,0.0,0.0,0.0,0.0,0.0,0.0,0.0,0.0,0.0,0.0,0.0,0.0,0.0,0.0,0.0,0.0,0.0,0.0,0.0,0.0,0.0,0.0,0.0,0.0,0.0,0.0,0.0,0.0,0.0,0.0,0.0,0.0,0.0,0.0,0.0,0.0,0.0,0.0,0.0,0.0,0.0,0.0,0.0,0.0,0.0,0.0,0.0,0.0,0.0,0.0,0.0,0.0,0.0,0.0,0.0,0.0,0.0,0.0,0.0,0.0,0.0,0.0,0.0,0.0,0.0,0.0,0.0,0.0,0.0,0.0,0.0,0.0,0.0,0.0,0.0,0.0,0.0,0.0,0.0,0.0,0.0,0.0,0.0,0.0,0.0,0.0,0.0,0.0,0.0,0.0,0.0,0.0,0.0,0.0,0.0,0.0,0.0,0.0,0.0,0.0,0.0,0.0,0.0,0.0,0.0,0.0,0.0,0.0,0.0,0.0,0.0,0.0,0.0,0.0,0.0,0.0,0.0,0.0,0.0,0.0,0.0,0.0,0.0,0.0,0.0,0.0,0.0,0.0,0.0,0.0,0.0,0.0,0.0,0.0,0.0,0.0,0.0,0.0,0.0,0.0,0.0,0.0,0.0,0.0,0.0,0.0,0.0,0.0,0.0,0.0,0.0,0.0,0.0,0.0,0.0,0.0,0.0,0.0,0.0,0.0,0.0,0.0,0.0,0.0,0.0,0.0,0.0,0.0,0.0,0.0,0.0,0.0,0.0,0.0,0.0,0.0,0.0,0.0,0.0,0.0,0.0,0.0,0.0,0.0,0.0,0.0,0.0,0.0,0.0,0.0,0.0,0.0,0.0,0.0,0.0,0.0,0.0,0.0,0.0,0.0,0.0,0.0,0.0,0.0,0.0,0.0,0.0,0.0,0.0,0.0,0.0,0.0,0.0,0.0,0.0,0.0,0.0,0.0,0.0,0.0,0.0,0.0,0.0,0.0,0.0,0.0,0.0,0.0,0.0,0.0,0.0,0.0,0.0,0.0,0.0,0.0,0.0,0.0,0.0,0.0,0.0,0.0,0.0,0.0,0.0,0.0,0.0,0.0,0.0,0.0,0.0,0.0,0.0,0.0,0.0,0.0,0.0,0.0,0.0,0.0,0.0,0.0,0.0,0.0,0.0,0.0,0.0,0.0,0.0,0.0,0.0,0.0,0.0,0.0,0.0,0.0,0.0,0.0,0.0,0.0,0.0,0.0,0.0,0.0,0.0,0.0,0.0,0.0,0.0,0.0,0.0,0.0,0.0,0.0,0.0,0.0,0.0,0.0,0.0,0.0,0.0,0.0,0.0,0.0,0.0,0.0,0.0,0.0,0.0,0.0,0.0,0.0,0.0,0.0,0.0,0.0,0.0,0.0,0.0,0.0,0.0,0.0,0.0,0.0,0.0,0.0,0.0,0.0,0.0,0.0,0.0,0.0,0.0,0.0,0.0,0.0,0.0,0.0,0.0,0.0,0.0,0.0,0.0,0.0,0.0,0.0,0.0,0.0,0.0,0.0,0.0,0.0,0.0,0.0,0.0,0.0,0.0,0.0,0.0,0.0,0.0,0.0,0.0,0.0,0.0,0.0,0.0,0.0,0.0,0.0,0.0,0.0,0.0,0.0,0.0,0.0,0.0,0.0,0.0,0.0,0.0,0.0,0.0,0.0,0.0,0.0,0.0,0.0,0.0,0.0,0.0,0.0,0.0,0.0,0.0,0.0,0.0,0.0,0.0,0.0,0.0,0.0,0.0,0.0,0.0,0.0,0.0,0.0,0.0,0.0,0.0,0.0,0.0,0.0,0.0,0.0,0.0,0.0,0.0,0.0,0.0,0.0,0.0,0.0,0.0,0.0,0.0,0.0,0.0,0.0,0.0,0.0,0.0,0.0,0.0,0.0,0.0,0.0,0.0,0.0,0.0,0.0,0.0,0.0,0.0,0.0,0.0,0.0,0.0,0.0,0.0,0.0,0.0,0.0,0.0,0.0,0.0,0.0,0.0,0.0,0.0,0.0,0.0,0.0,0.0,0.0,0.0,0.0,0.0,0.0,0.0,0.0,0.0,0.0,0.0,0.0,0.0,0.0,0.0,0.0,0.0,0.0,0.0,0.0,0.0,0.0,0.0,0.0,0.0,0.0,0.0,0.0,0.0,0.0,0.0,0.0,0.0,0.0,0.0,0.0,0.0,0.0,0.0,0.0,0.0,0.0,0.0,0.0,0.0,0.0,0.0,0.0,0.0,0.0,0.0,0.0,0.0,0.0,0.0,0.0,0.0,0.0,0.0,0.0,0.0,0.0,0.0,0.0,0.0,0.0,0.0,0.0,0.0,0.0,0.0,0.0,0.0,0.0,0.0,0.0,0.0,0.0,0.0,0.0,0.0,0.0,0.0,0.0,0.0,0.0,0.0,0.0,0.0,0.0,0.0,0.0,0.0,0.0,0.0,0.0,-3.4069,0.0,0.0,0.0,0.0,0.0,0.0,0.0,0.0,0.0,0.0,0.0,0.0,0.0,0.0,0.0,0.0,0.0,0.0,0.0,0.0,0.0,0.0,0.0,0.0,0.0,0.0,0.0,0.0,0.0,0.0,0.0,0.0,0.0,0.0,0.0,0.0,0.0,0.0,0.0,0.0,0.0,0.0,0.0,0.0,0.0,0.0,0.0,0.0,0.0,0.0,0.0,0.0,0.0,0.0,0.0,0.0,0.0,0.0,0.0,0.0,0.0,0.0,0.0,0.0,0.0,0.0,0.0,0.0,0.0,0.0,0.0,0.0,0.0,0.0,0.0,0.0,0.0,0.0,0.0,0.0,0.0,0.0,0.0,0.0,0.0,0.0,0.0,0.0,0.0,0.0,0.0,0.0,0.0,0.0,0.0,0.0,0.0,0.0,0.0,0.0,0.0,0.0,0.0,0.0,0.0,0.0,0.0,0.0,0.0,0.0,0.0,0.0,0.0,0.0,0.0,0.0,-3.4442,0.0,0.0,0.0,0.0,0.0,0.0,0.0,0.0,0.0,0.0,0.0,0.0,0.0,0.0,0.0,0.0,0.0,0.0,0.0,0.0,0.0,0.0,0.0,0.0,0.0,0.0,0.0,0.0,0.0,0.0,0.0,0.0,0.0,0.0,0.0,0.0,0.0,0.0,0.0,0.0,0.0,0.0,0.0,0.0,0.0,0.0,0.0,0.0,0.0,0.0,0.0,0.0,0.0,0.0,0.0,0.0,0.0,0.0,0.0,0.0,0.0,0.0,0.0,0.0,0.0,0.0,0.0,0.0,0.0,0.0,0.0,0.0,0.0,0.0,0.0,0.0,0.0,0.0,0.0,0.0,0.0,0.0,0.0,0.0,0.0,0.0,0.0,0.0,0.0,0.0,0.0,0.0,0.0,0.0,0.0,0.0,0.0,0.0,0.0,0.0,0.0,0.0,0.0,0.0,0.0,0.0,0.0,0.0,-3.9152,-3.9708,-4.023,-4.0103,-3.9992,-3.969,-3.7499,-3.5999,-3.497,0.0,0.0,0.0,0.0,0.0,0.0,0.0,0.0,0.0,0.0,0.0,0.0,0.0,0.0,0.0,0.0,0.0,0.0,0.0,0.0,0.0,0.0,0.0,0.0,0.0,0.0,0.0,0.0,0.0,0.0,0.0,0.0,0.0,0.0,0.0,0.0,0.0,0.0,0.0,-2.9654,-3.1115,-3.155,-3.1096,0.0,0.0,0.0,0.0,0.0,0.0,0.0,0.0,0.0,0.0,0.0,0.0,0.0,0.0,0.0,0.0,0.0,0.0,0.0,0.0,0.0,0.0,0.0,0.0,0.0,0.0,0.0,0.0,0.0,0.0,0.0,0.0,0.0,0.0,0.0,0.0,0.0,0.0,0.0,0.0,0.0,0.0,0.0,0.0,-3.3207,-3.416,0.0,0.0,0.0,0.0,0.0,0.0,0.0,0.0,0.0,0.0,0.0,0.0,0.0,0.0,-3.9321,-4.0543,-4.1167,-4.1132,-4.2394,-4.3074,-4.3153,-4.2537,-4.2268,-4.2153,-4.0707,0.0,-3.5461,-3.3853,0.0,0.0,0.0,0.0,0.0,0.0,0.0,0.0,0.0,0.0,0.0,0.0,0.0,0.0,0.0,0.0,0.0,0.0,0.0,0.0,0.0,0.0,0.0,0.0,0.0,0.0,0.0,0.0,0.0,0.0,0.0,0.0,0.0,0.0,0.0,0.0,0.0,0.0,0.0,0.0,-3.3251,-3.3083,-3.1766,-3.0852,-3.0162,-2.8394,0.0,0.0,0.0,0.0,0.0,0.0,0.0,0.0,0.0,0.0,0.0,0.0,0.0,0.0,0.0,0.0,0.0,0.0,0.0,0.0,0.0,0.0,0.0,0.0,0.0,0.0,0.0,0.0,0.0,0.0,0.0,0.0,0.0,0.0,0.0,0.0,0.0,0.0,0.0,-3.3268,-3.5892,-3.5349,-3.6779,-3.7257,0.0,0.0,0.0,0.0,0.0,0.0,0.0,0.0,0.0,-4.0219,-4.0177,-4.0614,-4.171,-4.2534,-4.3305,-4.3974,-4.4986,-4.546,-4.5444,-4.5144,-4.4725,-4.4189,-4.2669,-4.0883,-3.8852,-3.6403,-3.4449,-3.2911,0.0,0.0,0.0,0.0,0.0,-2.7855,0.0,0.0,0.0,0.0,0.0,0.0,0.0,0.0,0.0,0.0,0.0,0.0,0.0,0.0,0.0,0.0,0.0,0.0,0.0,0.0,0.0,0.0,0.0,0.0,0.0,0.0,0.0,0.0,0.0,0.0,0.0,0.0,0.0,0.0,0.0,0.0,0.0,0.0,0.0,0.0,0.0,0.0,0.0,0.0,0.0,0.0,0.0,0.0,0.0,0.0,0.0,0.0,0.0,0.0,0.0,0.0,0.0,0.0,0.0,0.0,0.0,0.0,0.0,0.0,0.0,0.0,0.0,0.0,0.0,0.0,0.0,0.0,0.0,0.0,0.0,0.0,0.0,-3.5227,-3.7667,-3.6272,-3.8522,-3.9445,0.0,0.0,0.0,0.0,0.0,0.0,-3.9404,-4.0393,-4.1625,-4.3264,-4.3154,-4.348,-4.4352,-4.4598,-4.5317,-4.6345,-4.685,-4.6977,-4.6803,-4.6803,-4.6366,-4.5484,-4.4093,-4.2954,-4.1745,-3.8481,-3.6259,-3.4752,-3.322,-3.2444,-3.1891,-3.0175,-2.9671,-2.9794,0.0,0.0,0.0,0.0,0.0,0.0,0.0,0.0,0.0,0.0,0.0,0.0,0.0,0.0,0.0,0.0,0.0,0.0,0.0,0.0,0.0,0.0,0.0,0.0,0.0,0.0,0.0,0.0,0.0,0.0,0.0,0.0,0.0,0.0,0.0,0.0,0.0,0.0,0.0,0.0,0.0,0.0,0.0,0.0,0.0,0.0,0.0,0.0,0.0,0.0,0.0,0.0,0.0,0.0,0.0,0.0,0.0,0.0,0.0,0.0,0.0,0.0,0.0,0.0,0.0,0.0,0.0,0.0,0.0,0.0,0.0,0.0,0.0,0.0,0.0,0.0,0.0,0.0,0.0,-3.7033,-4.0203,0.0,0.0,0.0,0.0,-3.905,-3.9126,-4.0201,-4.2702,-4.2881,-4.4148,-4.7029,-4.6394,-4.6509,-4.7624,-4.7672,-4.7719,-4.7782,-4.783,-4.7482,-4.6803,-4.6803,-4.6439,-4.5735,-4.5036,-4.4004,-4.2607,-3.8885,-3.6852,-3.6012,-3.4128,-3.2931,-3.2206,-3.0726,-2.9778,-2.9321,0.0,0.0,0.0,0.0,0.0,0.0,0.0,0.0,0.0,0.0,0.0,0.0,0.0,0.0,0.0,0.0,0.0,0.0,0.0,0.0,0.0,0.0,0.0,0.0,0.0,0.0,0.0,0.0,0.0,0.0,0.0,0.0,0.0,0.0,0.0,0.0,0.0,0.0,0.0,0.0,0.0,0.0,0.0,0.0,0.0,0.0,0.0,0.0,0.0,0.0,0.0,0.0,0.0,0.0,0.0,0.0,0.0,0.0,0.0,0.0,0.0,0.0,0.0,0.0,0.0,0.0,0.0,0.0,0.0,0.0,0.0,0.0,0.0,0.0,0.0,0.0,0.0,0.0,0.0,-4.1283,-4.385,0.0,0.0,-4.2161,-4.2087,-4.2193,-4.3015,-4.3992,-4.5111,-4.6241,-4.741,-4.8723,-4.8201,-4.8301,-4.9189,-4.8762,-4.8525,-4.8525,-4.8525,-4.7925,-4.6803,-4.6803,-4.6439,-4.5735,-4.5067,-4.4523,-4.3973,-4.1398,-3.9235,-3.7476,-3.6793,-3.578,-3.4531,-3.3287,-3.2233,-3.1339,0.0,0.0,0.0,0.0,0.0,0.0,0.0,0.0,0.0,0.0,0.0,0.0,0.0,0.0,0.0,0.0,0.0,0.0,0.0,0.0,0.0,0.0,0.0,0.0,0.0,0.0,0.0,0.0,0.0,0.0,0.0,0.0,0.0,0.0,0.0,0.0,0.0,0.0,0.0,0.0,0.0,0.0,-2.3969,0.0,0.0,0.0,0.0,0.0,0.0,0.0,0.0,0.0,0.0,0.0,0.0,0.0,0.0,0.0,0.0,0.0,0.0,0.0,0.0,0.0,0.0,0.0,0.0,0.0,0.0,0.0,0.0,0.0,0.0,0.0,0.0,0.0,0.0,0.0,-4.3818,-4.406,-4.638,-4.7186,-4.5163,-4.5471,-4.5765,-4.5695,-4.6589,-4.7386,-4.7765,-4.8751,-4.9489,-4.9837,-4.9469,-4.9347,-4.9568,-4.8889,-4.843,-4.8177,-4.7956,-4.7372,-4.6455,-4.6455,-4.6218,-4.5807,-4.5321,-4.4902,-4.4403,-4.3133,-4.1148,-3.8826,-3.8623,-3.7829,-3.6599,-3.5328,-3.412,-3.2974,0.0,0.0,0.0,0.0,0.0,0.0,0.0,0.0,0.0,0.0,0.0,0.0,0.0,0.0,0.0,0.0,0.0,0.0,0.0,0.0,0.0,0.0,0.0,0.0,0.0,0.0,0.0,0.0,0.0,0.0,0.0,0.0,0.0,0.0,0.0,0.0,0.0,0.0,0.0,0.0,0.0,0.0,-2.6608,0.0,0.0,0.0,0.0,0.0,0.0,0.0,0.0,0.0,0.0,0.0,0.0,0.0,0.0,0.0,0.0,0.0,0.0,0.0,0.0,0.0,0.0,0.0,0.0,0.0,0.0,0.0,0.0,0.0,0.0,0.0,0.0,0.0,-3.9497,-4.2936,-4.5314,-4.512,-4.7643,-4.8674,-4.6813,-4.8207,-4.9274,-4.9376,-4.9746,-5.0176,-5.0687,-5.0351,-5.0215,-5.0493,-5.0073,-4.96,-4.892,-4.8272,-4.7561,-4.6834,-4.6155,-4.5823,-4.5807,-4.5807,-4.5807,-4.5807,-4.5807,-4.5098,-4.3897,-4.3912,-4.2428,-4.0046,-3.945,-3.8812,-3.804,-3.6642,-3.5325,-3.3896,0.0,0.0,0.0,0.0,0.0,0.0,0.0,0.0,0.0,0.0,0.0,0.0,0.0,0.0,0.0,0.0,0.0,0.0,0.0,0.0,0.0,0.0,0.0,0.0,0.0,0.0,0.0,0.0,0.0,0.0,0.0,0.0,0.0,0.0,0.0,0.0,0.0,0.0,0.0,0.0,0.0,0.0,-2.5023,0.0,0.0,0.0,0.0,0.0,0.0,0.0,0.0,0.0,0.0,0.0,0.0,0.0,0.0,0.0,0.0,0.0,0.0,0.0,0.0,0.0,0.0,0.0,0.0,0.0,0.0,0.0,0.0,0.0,0.0,0.0,0.0,-4.1502,-4.2643,-4.558,-4.8138,-4.9609,-5.0845,-5.1123,-5.009,-5.1045,-5.1213,-4.9767,-5.0978,-5.1256,-5.0335,-5.0642,-5.0622,-5.0058,-4.9995,-4.9837,-4.9647,-4.8952,-4.8272,-4.7593,-4.6866,-4.6281,-4.5807,-4.5807,-4.5807,-4.5807,-4.5807,-4.5055,-4.3864,-4.3884,-4.2677,-4.079,-4.0242,-3.9419,-3.8294,-3.7491,-3.6213,-3.4612,0.0,0.0,0.0,0.0,0.0,0.0,0.0,0.0,0.0,0.0,0.0,0.0,0.0,0.0,0.0,0.0,0.0,0.0,0.0,0.0,0.0,0.0,0.0,0.0,0.0,0.0,0.0,0.0,0.0,0.0,0.0,0.0,0.0,0.0,0.0,0.0,0.0,0.0,0.0,0.0,0.0,0.0,-2.6421,-2.4503,-2.3533,-2.3153,-2.2488,-2.2409,-2.2433,-2.1383,0.0,0.0,0.0,0.0,0.0,0.0,0.0,0.0,0.0,0.0,0.0,0.0,0.0,0.0,0.0,0.0,0.0,0.0,0.0,0.0,0.0,0.0,0.0,0.0,-4.1085,-4.4138,-4.6,-4.8039,-4.9877,-5.1307,-5.1582,-5.152,-5.1304,-5.1888,-5.1911,-5.0789,-5.176,-5.1911,-5.0626,-5.1057,-5.0892,-4.9916,-5.0214,-5.0087,-4.9489,-4.881,-4.813,-4.7435,-4.665,-4.6113,-4.5807,-4.5735,-4.5735,0.0,-4.5807,-4.5117,-4.3927,-4.3929,-4.2599,0.0,0.0,0.0,0.0,0.0,-3.6707,-3.5085,0.0,0.0,0.0,0.0,0.0,0.0,0.0,0.0,0.0,0.0,0.0,0.0,0.0,0.0,0.0,0.0,0.0,0.0,0.0,0.0,0.0,0.0,0.0,0.0,0.0,0.0,0.0,0.0,0.0,0.0,0.0,0.0,0.0,0.0,0.0,0.0,0.0,0.0,0.0,0.0,0.0,0.0,-2.9005,-2.6038,-2.5691,-2.6499,-2.3766,-2.28,-2.2824,-2.2104,0.0,0.0,0.0,0.0,0.0,0.0,0.0,0.0,0.0,0.0,0.0,0.0,0.0,0.0,0.0,0.0,0.0,0.0,0.0,0.0,0.0,0.0,0.0,0.0,-4.358,-4.6548,-4.8977,-5.004,-5.0791,-5.1368,-5.105,-5.0945,-5.1198,-5.1603,-5.1834,-5.185,-5.2124,-5.1954,-5.1118,0.0,0.0,0.0,0.0,-5.0374,-4.9015,-4.8351,-4.764,-4.6913,-4.6013,-4.5667,-4.5735,-4.5589,-4.5589,-4.5735,-4.5807,-4.5067,-4.3821,-4.3821,-4.2324,-4.0066,-3.9979,-3.9784,-3.9308,-3.8399,-3.7041,-3.5638,0.0,0.0,0.0,0.0,0.0,0.0,0.0,0.0,0.0,0.0,0.0,0.0,0.0,0.0,0.0,0.0,0.0,0.0,0.0,0.0,0.0,0.0,0.0,0.0,0.0,0.0,0.0,0.0,0.0,0.0,0.0,0.0,0.0,0.0,0.0,0.0,0.0,0.0,0.0,0.0,0.0,0.0,-2.7655,-2.631,-2.5315,-2.4521,-2.3908,-2.419,-2.4562,-2.297,-2.2805,-2.294,-2.1394,0.0,0.0,0.0,0.0,0.0,0.0,0.0,0.0,0.0,0.0,0.0,0.0,0.0,0.0,0.0,0.0,0.0,0.0,0.0,0.0,-4.1751,-4.4922,-4.7638,-4.9379,-5.0312,-5.1141,-5.2059,-5.2496,-5.2393,-5.1682,-5.2456,-5.2387,-5.1053,-5.123,-5.1177,-5.0663,-5.0663,0.0,-4.9916,-5.0073,-5.001,-4.9726,-4.9047,-4.8351,-4.7672,0.0,0.0,-4.5589,-4.5515,-4.5515,-4.5589,-4.5735,-4.4787,-4.3198,-4.3198,-4.1728,-3.9613,-3.9222,-3.9092,-3.9106,-3.8942,-3.8207,-3.7171,0.0,0.0,0.0,0.0,0.0,0.0,0.0,0.0,0.0,0.0,0.0,0.0,0.0,0.0,0.0,0.0,0.0,0.0,0.0,0.0,0.0,0.0,0.0,0.0,0.0,0.0,0.0,0.0,0.0,0.0,0.0,0.0,0.0,0.0,0.0,0.0,0.0,0.0,0.0,0.0,0.0,0.0,-2.7611,-2.6685,-2.6097,-2.5611,-2.4707,-2.467,-2.4909,-2.378,-2.3156,-2.2707,-2.1811,-2.1097,-2.0478,0.0,0.0,0.0,0.0,0.0,0.0,0.0,0.0,0.0,0.0,0.0,0.0,0.0,0.0,-3.5374,0.0,0.0,-4.1358,-4.4331,-4.623,-4.8013,-5.0013,-5.0645,-5.1099,-5.1763,-5.1842,-5.1847,-5.1851,-5.2118,-5.2024,-5.131,-5.1164,-5.0892,-5.0525,-5.0663,-5.0509,-4.9916,-5.0292,-5.0292,-4.9916,-4.9236,-4.8715,-4.8383,-4.7007,-4.6257,-4.6002,-4.5524,-4.563,-4.5986,-4.5877,-4.5262,-4.4358,-4.3152,-4.1682,-4.0059,-3.9609,-3.9313,-3.9104,-3.9192,-3.8631,-3.7678,0.0,0.0,0.0,0.0,0.0,0.0,0.0,0.0,0.0,0.0,0.0,0.0,0.0,0.0,0.0,0.0,0.0,0.0,0.0,0.0,0.0,0.0,0.0,0.0,0.0,0.0,0.0,0.0,0.0,0.0,0.0,0.0,0.0,0.0,0.0,0.0,0.0,0.0,0.0,0.0,0.0,0.0,-2.7445,-2.6488,-2.637,-2.6524,-2.4992,-2.4331,-2.4214,-2.3697,-2.2669,-2.1636,-2.1724,-2.1376,-2.0773,-1.9832,-2.0534,0.0,0.0,0.0,0.0,0.0,0.0,0.0,0.0,0.0,-3.3204,-3.457,-3.6445,-3.8241,-3.9487,-4.1085,-4.3258,-4.6498,-4.7125,-4.7997,-5.0346,-5.0539,-5.048,-5.061,-5.0678,-5.0952,-5.1681,-5.1425,-5.1333,-5.1639,-5.1135,-5.0816,-5.0586,-5.0739,-5.0663,-5.0152,-5.0586,-5.0602,-4.9916,-4.9363,-4.9015,-4.8873,-4.7229,-4.6403,-4.6473,-4.5591,-4.5575,-4.6269,-4.5661,-4.5422,-4.5248,-4.3087,-4.1659,-4.0713,-4.041,-3.9877,-3.9356,-3.9397,-3.8701,-3.7745,0.0,0.0,0.0,0.0,0.0,0.0,0.0,0.0,0.0,0.0,0.0,0.0,0.0,0.0,0.0,0.0,0.0,0.0,0.0,0.0,0.0,0.0,0.0,0.0,0.0,0.0,0.0,0.0,0.0,0.0,0.0,0.0,0.0,0.0,0.0,0.0,0.0,0.0,0.0,0.0,0.0,0.0,-2.5951,-2.4874,-2.4425,-2.4281,-2.327,-2.2671,-2.2166,-2.1368,-2.1239,-2.1319,-2.0924,-2.0967,-2.1032,-1.9929,0.0,-2.083,-2.0411,-2.2834,-2.614,-2.8774,-3.0554,-3.2637,0.0,0.0,-3.6967,-3.8803,-3.9968,-4.077,-4.1156,-4.2625,-4.4478,-4.6621,-4.7125,-4.7805,-4.9592,-4.9258,-4.8782,-4.8637,-5.0159,-5.1133,-5.1056,-5.0905,-5.0949,-5.1145,-5.0448,-5.0292,-5.0968,-5.037,-5.0292,-5.0968,-5.037,-4.9995,-4.9916,-4.9852,-4.9489,-4.8873,-4.7746,-4.698,-4.6473,-4.5591,-4.5325,-4.5551,-4.4511,-4.393,-4.3441,-4.206,-4.1347,-4.1018,-4.102,-4.065,-4.0217,-3.9634,-3.8546,-3.7371,0.0,0.0,0.0,0.0,0.0,0.0,0.0,0.0,0.0,0.0,0.0,0.0,0.0,0.0,0.0,0.0,0.0,0.0,0.0,0.0,0.0,0.0,0.0,0.0,0.0,0.0,0.0,0.0,0.0,0.0,0.0,0.0,0.0,0.0,0.0,0.0,0.0,0.0,0.0,0.0,0.0,0.0,-2.4956,-2.3595,-2.2565,-2.1811,-2.2264,-2.1581,0.0,0.0,-1.9462,-1.8899,-1.886,-1.9207,-1.9407,-1.8626,-2.0106,0.0,-2.3434,-2.601,0.0,0.0,-3.2316,-3.4858,-3.6637,-3.7537,-3.8377,-3.9882,-4.1149,-4.2202,-4.2728,-4.3763,-4.5102,0.0,-4.6934,-4.7405,-4.8697,-4.8645,-4.8172,-4.7476,-4.869,-4.9606,-4.9825,-5.0,-5.0052,-4.9872,-4.94,-4.9273,-4.9809,-4.9471,-4.9645,-5.0354,-5.0073,-4.9916,-4.9916,-4.9916,-4.9773,-4.9473,-4.809,-4.7354,-4.7101,-4.5927,-4.5573,-4.5992,-4.595,-4.527,-4.417,-4.3701,-4.2786,-4.1599,-4.1381,-4.0905,-4.0367,-4.0098,-3.9068,-3.7734,0.0,0.0,0.0,0.0,0.0,0.0,0.0,0.0,0.0,0.0,0.0,0.0,0.0,0.0,0.0,0.0,0.0,0.0,0.0,0.0,0.0,0.0,0.0,0.0,0.0,0.0,0.0,0.0,0.0,0.0,0.0,0.0,0.0,0.0,0.0,0.0,0.0,0.0,0.0,0.0,0.0,0.0,-2.3421,-2.1969,-2.0561,-1.9619,-2.0732,-2.0017,0.0,0.0,-1.775,-1.6937,-1.7273,-1.7777,-1.8258,-1.8368,-2.0668,-2.3769,-2.6214,0.0,0.0,-3.154,-3.4233,-3.6635,-3.6999,-3.8064,-3.9239,-4.0192,-4.141,-4.2535,-4.3156,-4.388,-4.4883,-4.6552,-4.6465,-4.6656,-4.8085,-4.7771,-4.7074,-4.6287,-4.6889,-4.7488,-4.7817,-4.8672,-4.917,-4.9289,-4.8721,-4.8711,-4.9496,-4.9138,-4.9282,-5.0198,-4.9995,-4.9916,-4.9916,-4.9916,-4.9916,-4.99,-4.8498,-4.7837,-4.7617,-4.635,-4.5905,-4.6317,-4.6789,-4.6187,-4.4887,-4.4871,-4.3838,-4.2317,-4.2025,-4.1399,-4.0666,-4.0666,-3.9516,-3.7753,0.0,0.0,0.0,0.0,0.0,0.0,0.0,0.0,0.0,0.0,0.0,0.0,0.0,0.0,0.0,0.0,0.0,0.0,0.0,0.0,0.0,0.0,0.0,0.0,0.0,0.0,0.0,0.0,0.0,0.0,0.0,0.0,0.0,0.0,0.0,0.0,0.0,0.0,0.0,0.0,0.0,0.0,-2.099,-1.9545,-1.8435,-1.7657,-1.8265,0.0,0.0,0.0,-1.6114,-1.6472,-1.674,-1.7446,0.0,-2.0046,-2.2353,0.0,0.0,0.0,-3.1233,-3.4303,-3.6178,-3.7582,-3.8721,-3.9404,-3.9881,-4.0427,-4.0958,-4.1426,-4.1778,-4.237,-4.3658,-4.6378,-4.5528,-4.5423,-4.7945,-4.6407,-4.4987,-4.4966,-4.5012,-4.4965,0.0,-4.6731,-4.856,-4.9969,-4.8711,-4.8843,-5.093,-4.97,-4.9576,-5.1011,-5.0292,-4.9916,-4.9916,-4.9916,-4.9916,-4.9916,-4.9032,-4.8355,-4.7846,-4.6741,-4.6285,-4.6301,-4.6088,-4.564,-4.5036,-4.4495,-4.3819,-4.322,-4.3284,-4.2491,-4.1354,-4.1354,-3.9694,-3.7276,0.0,0.0,0.0,0.0,0.0,0.0,0.0,0.0,0.0,0.0,0.0,0.0,0.0,0.0,0.0,0.0,0.0,0.0,0.0,0.0,0.0,0.0,0.0,0.0,0.0,0.0,0.0,0.0,0.0,0.0,0.0,0.0,0.0,0.0,0.0,0.0,0.0,0.0,0.0,0.0,0.0,0.0,-1.6599,-1.6315,-1.5802,-1.5368,0.0,0.0,0.0,0.0,-1.5896,-1.6232,-1.6314,0.0,0.0,-2.2614,-2.5073,-2.7205,-3.0053,0.0,-3.3744,-3.5436,-3.6797,-3.7795,-3.8187,-3.8562,-3.8681,-3.8121,-3.7765,-3.7736,-3.817,-3.8858,-4.0155,-4.2809,-4.3989,-4.5039,-4.643,-4.6847,-4.6482,-4.4958,-4.6244,0.0,0.0,0.0,0.0,-4.8197,-4.6946,-4.7021,-4.9277,-4.8656,-4.8678,-4.9576,-4.9836,-4.9916,-4.9916,-4.9916,-4.9916,-4.9916,-4.9142,-4.8365,-4.7537,-4.7189,-4.7049,-4.7066,-4.6981,-4.641,-4.5478,-4.5243,-4.4434,-4.324,-4.2372,-4.1773,-4.122,-3.9888,-3.8556,-3.7375,0.0,0.0,0.0,0.0,0.0,0.0,0.0,0.0,0.0,0.0,0.0,0.0,0.0,0.0,0.0,0.0,0.0,0.0,0.0,0.0,0.0,0.0,0.0,0.0,0.0,0.0,0.0,0.0,0.0,0.0,0.0,0.0,0.0,0.0,0.0,0.0,0.0,0.0,0.0,0.0,0.0,0.0,-1.3146,-1.3353,-1.3565,0.0,0.0,0.0,0.0,0.0,0.0,-1.6553,-1.7157,-1.9037,-2.1626,-2.4937,-2.7503,-2.9894,-3.2758,-3.4484,-3.5683,-3.668,-3.7233,-3.7469,-3.7376,-3.7196,-3.6805,-3.5932,-3.5031,-3.4606,-3.5162,-3.5779,-3.7159,-4.0014,-4.1718,-4.3406,-4.5365,-4.5853,-4.5889,-4.5544,-4.6498,0.0,0.0,0.0,0.0,-4.7373,-4.6682,-4.6875,-4.8381,-4.8015,-4.8076,-4.8857,-4.9315,-4.9679,-4.9916,-4.9916,-4.9916,-4.9916,-4.922,-4.8517,-4.7773,-4.7646,-4.7486,-4.7404,-4.7253,-4.662,-4.5697,-4.5405,-4.451,-4.3225,-4.2147,-4.1594,-4.119,-3.9679,-3.8322,-3.7321,0.0,0.0,0.0,0.0,0.0,0.0,0.0,0.0,0.0,0.0,0.0,0.0,0.0,0.0,0.0,0.0,0.0,0.0,0.0,0.0,0.0,0.0,0.0,0.0,0.0,0.0,0.0,0.0,0.0,0.0,0.0,0.0,0.0,0.0,0.0,0.0,0.0,0.0,0.0,0.0,0.0,0.0,-1.0697,-1.0712,0.0,0.0,0.0,0.0,0.0,0.0,0.0,0.0,0.0,-2.2726,-2.5989,-2.7143,-2.9774,-3.2866,-3.5443,-3.6426,-3.6898,-3.7961,-3.748,-3.6672,-3.6438,-3.5425,-3.4454,-3.3922,-3.2848,-3.2153,0.0,0.0,-3.47,-3.8068,-3.9115,-4.0867,-4.4882,-4.3876,-4.3803,0.0,0.0,0.0,0.0,0.0,0.0,-4.7523,0.0,-4.8045,-4.8349,-4.7773,-4.7808,-4.8794,-4.8873,-4.922,-4.9916,-4.9916,-4.9916,-4.9916,-4.9252,-4.8787,-4.8429,-4.8103,-4.7781,-4.7404,-4.6965,-4.6394,-4.5624,-4.4812,-4.4004,-4.3269,-4.2581,-4.1938,-4.1294,-4.0606,-3.8967,-3.7139,0.0,0.0,0.0,0.0,0.0,0.0,0.0,0.0,0.0,0.0,0.0,0.0,0.0,0.0,0.0,0.0,0.0,0.0,0.0,0.0,0.0,0.0,0.0,0.0,0.0,0.0,0.0,0.0,0.0,0.0,0.0,0.0,0.0,0.0,0.0,0.0,0.0,0.0,0.0,0.0,0.0,0.0,-0.8217,0.0,0.0,0.0,0.0,0.0,0.0,0.0,0.0,0.0,0.0,-2.7743,-2.9629,-3.1981,-3.3676,-3.5255,-3.7461,-3.7835,-3.7579,-3.7603,-3.6784,-3.5722,-3.4628,-3.3908,-3.2907,-3.1116,-3.0129,-2.9466,0.0,0.0,0.0,-3.5995,-3.9388,0.0,-4.5951,-4.7545,0.0,-4.8323,0.0,-4.8812,-4.7415,-4.8498,0.0,0.0,-4.7176,-4.7319,-4.8029,-4.7646,-4.7601,-4.813,-4.8636,-4.922,-4.9916,-4.9916,-4.9916,-4.9916,-4.9742,-4.94,-4.8869,-4.8763,-4.8425,-4.7787,-4.7101,-4.6394,-4.5624,-4.4812,-4.4004,-4.3225,-4.2087,-4.1534,-4.1235,-3.9935,-3.8493,-3.7144,0.0,0.0,0.0,0.0,0.0,0.0,0.0,0.0,0.0,0.0,0.0,0.0,0.0,0.0,0.0,0.0,0.0,0.0,0.0,0.0,0.0,0.0,0.0,0.0,0.0,0.0,0.0,0.0,0.0,0.0,0.0,0.0,0.0,0.0,0.0,0.0,0.0,0.0,0.0,0.0,0.0,0.0,0.0,0.0,0.0,0.0,0.0,0.0,0.0,0.0,0.0,-2.7284,-2.9573,-3.1392,-3.3066,-3.5332,0.0,-3.7429,-3.9084,-3.9046,-3.8321,-3.7534,-3.651,-3.5165,-3.3168,-3.2189,-3.1056,-2.8846,-2.7689,0.0,0.0,0.0,0.0,0.0,0.0,0.0,-4.5334,-4.7121,-4.8512,0.0,-4.979,0.0,-4.9035,-4.9571,-4.9545,0.0,-4.8115,-4.7902,-4.8062,-4.7475,-4.7533,-4.8381,-4.8453,-4.8998,-5.0136,-5.0136,-5.0214,-5.0432,-5.0144,-4.9727,-4.9229,-4.892,-4.8295,-4.7404,0.0,-4.5897,-4.511,-4.4297,-4.3708,-4.3225,-4.2207,-4.1639,-4.1113,-3.9996,-3.8453,-3.6895,0.0,0.0,0.0,0.0,0.0,0.0,0.0,0.0,0.0,0.0,0.0,0.0,0.0,0.0,0.0,0.0,0.0,0.0,0.0,0.0,0.0,0.0,0.0,0.0,0.0,0.0,0.0,0.0,0.0,0.0,0.0,0.0,0.0,0.0,0.0,0.0,0.0,0.0,0.0,0.0,0.0,0.0,0.0,0.0,0.0,0.0,0.0,0.0,0.0,0.0,-2.823,-2.9864,-3.2157,-3.4386,-3.6418,-3.7792,-3.86,-3.9265,-4.0275,-3.9985,-3.907,-3.7681,-3.6518,-3.5017,-3.207,-3.0707,-2.9365,-2.7135,0.0,-2.5351,-2.5742,0.0,-3.0126,-3.2532,0.0,-4.0717,-4.4533,-4.558,-4.7274,-5.0712,-5.0034,-4.9791,-5.1017,-5.0228,-4.9774,-4.9976,-4.9492,-4.8925,-4.8163,-4.7337,-4.7508,-4.8884,-4.8376,-4.885,-5.0509,-5.0509,-5.0739,-5.1027,-5.0348,-4.9856,-4.9513,-4.8793,-4.7834,-4.6742,0.0,0.0,-4.4434,-4.363,-4.325,-4.319,-4.2611,-4.1858,-4.1062,-4.0291,-3.8664,-3.6848,0.0,0.0,0.0,0.0,0.0,0.0,0.0,0.0,0.0,0.0,0.0,0.0,0.0,0.0,0.0,0.0,0.0,0.0,0.0,0.0,0.0,0.0,0.0,0.0,0.0,0.0,0.0,0.0,0.0,0.0,0.0,0.0,0.0,0.0,0.0,0.0,0.0,0.0,0.0,0.0,0.0,0.0,0.0,0.0,0.0,0.0,0.0,0.0,0.0,0.0,-2.9782,-3.3321,-3.5976,-3.8099,-3.9788,-4.0598,-4.0637,-4.0438,-4.0688,-4.0281,-3.944,-3.7793,-3.6771,-3.5352,-3.2211,-3.0707,0.0,0.0,0.0,-2.6327,-2.5894,-2.7936,0.0,-3.3948,0.0,0.0,0.0,0.0,-5.1123,0.0,0.0,0.0,0.0,0.0,0.0,0.0,0.0,0.0,-4.7836,-4.7218,-4.7258,-4.804,-4.8855,-4.9617,-5.0509,-5.0816,-5.0892,-5.0586,-4.9957,-4.9415,-4.9069,-4.8356,-4.754,-4.6742,0.0,0.0,-4.4434,-4.363,-4.317,-4.3001,-4.2346,-4.1892,-4.142,-4.0074,-3.9015,-3.8047,0.0,0.0,0.0,0.0,0.0,0.0,0.0,0.0,0.0,0.0,0.0,0.0,0.0,0.0,0.0,0.0,0.0,0.0,0.0,0.0,0.0,0.0,0.0,0.0,0.0,0.0,0.0,0.0,0.0,0.0,0.0,0.0,0.0,0.0,0.0,0.0,0.0,0.0,0.0,0.0,0.0,0.0,0.0,0.0,0.0,0.0,0.0,0.0,0.0,0.0,-2.9611,-3.3138,-3.7148,-3.9349,-4.0546,-4.1304,-4.1212,-4.0971,-4.1594,-4.1059,-3.9949,-3.8488,-3.7343,-3.5559,-3.1899,0.0,0.0,0.0,0.0,-2.6798,-2.6684,0.0,0.0,0.0,0.0,0.0,0.0,0.0,0.0,0.0,0.0,0.0,0.0,0.0,0.0,0.0,0.0,0.0,-4.8821,-4.8531,-4.8269,-4.8238,-4.9409,-5.0418,-5.1151,-5.1376,-5.1376,-5.1135,-5.0034,-4.9337,-4.8981,-4.8021,-4.7028,-4.5897,-4.5769,0.0,-4.3678,-4.3299,-4.301,-4.2805,-4.2495,-4.1818,-4.1013,-4.0305,-3.9098,-3.7856,0.0,0.0,0.0,0.0,0.0,0.0,0.0,0.0,0.0,0.0,0.0,0.0,0.0,0.0,0.0,0.0,0.0,0.0,0.0,0.0,0.0,0.0,0.0,0.0,0.0,0.0,0.0,0.0,0.0,0.0,0.0,0.0,0.0,0.0,0.0,0.0,0.0,0.0,0.0,0.0,0.0,0.0,0.0,0.0,0.0,0.0,0.0,0.0,0.0,0.0,-2.8677,-3.1412,-3.6208,-3.8791,-4.0113,-4.0562,-4.0891,-4.1245,-4.1866,-4.1627,-4.0792,-3.9177,-3.7858,-3.5839,-3.1737,-3.0125,0.0,0.0,-2.6637,-2.7187,-2.7659,0.0,0.0,0.0,0.0,0.0,0.0,0.0,0.0,0.0,0.0,0.0,0.0,0.0,0.0,0.0,0.0,0.0,-4.947,-4.9523,-4.9284,-4.8609,-4.9727,-5.0768,-5.1778,-5.1704,-5.1704,-5.1598,-5.0291,-4.9375,-4.8836,-4.767,-4.6397,-4.5036,-4.5243,0.0,0.0,-4.2915,-4.2761,-4.2401,-4.2401,-4.163,-4.0368,-4.0251,-3.9153,-3.7694,0.0,0.0,0.0,0.0,0.0,0.0,0.0,0.0,0.0,0.0,0.0,0.0,0.0,0.0,0.0,0.0,0.0,0.0,0.0,0.0,0.0,0.0,0.0,0.0,0.0,0.0,0.0,0.0,0.0,0.0,0.0,0.0,0.0,0.0,0.0,0.0,0.0,0.0,0.0,0.0,0.0,0.0,0.0,0.0,0.0,0.0,0.0,0.0,0.0,0.0,0.0,-2.8748,-3.2414,-3.6109,-3.8942,-3.8042,0.0,0.0,-4.0383,-4.1437,-4.2139,-3.9355,-3.8125,-3.6463,-3.2222,0.0,0.0,-2.7228,-2.7382,-2.8066,-2.8451,-2.9422,0.0,0.0,0.0,0.0,0.0,0.0,0.0,0.0,0.0,0.0,0.0,0.0,0.0,0.0,0.0,0.0,0.0,-4.891,-4.9189,-4.8925,-4.943,-5.0363,-5.1778,-5.1498,-5.1251,-5.1194,-5.0415,-4.9482,-4.8413,-4.7067,-4.5912,-4.4812,0.0,0.0,0.0,-4.2769,-4.2254,-4.1565,-4.1565,-4.0967,-4.0031,-3.9494,-3.9175,-3.8942,0.0,0.0,0.0,0.0,0.0,0.0,0.0,0.0,0.0,0.0,0.0,0.0,0.0,0.0,0.0,0.0,0.0,0.0,0.0,0.0,0.0,0.0,0.0,0.0,0.0,0.0,0.0,0.0,0.0,0.0,0.0,0.0,0.0,0.0,0.0,0.0,0.0,0.0,0.0,0.0,0.0,0.0,0.0,0.0,0.0,0.0,0.0,0.0,0.0,0.0,0.0,0.0,-3.1714,-3.3834,0.0,0.0,-3.7866,-3.9478,-4.0104,-4.1283,-4.1822,-3.9622,-3.7757,-3.5759,-3.2889,0.0,0.0,-2.8276,-2.8467,-2.8982,-2.9508,-3.0606,-3.2043,0.0,0.0,0.0,0.0,0.0,0.0,0.0,0.0,0.0,0.0,0.0,0.0,0.0,0.0,0.0,0.0,-4.8762,-4.8557,-4.8066,-4.8662,-4.9522,-5.0839,-5.0714,-5.0615,-5.0471,-4.9848,-4.8771,-4.7405,-4.6675,-4.5437,-4.3941,0.0,0.0,0.0,-4.1938,-4.1631,-4.1208,-4.08,-4.0182,-3.9523,-3.9291,-3.8942,-3.8565,0.0,0.0,0.0,0.0,0.0,0.0,0.0,0.0,0.0,0.0,0.0,0.0,0.0,0.0,0.0,0.0,0.0,0.0,0.0,0.0,0.0,0.0,0.0,0.0,0.0,0.0,0.0,0.0,0.0,0.0,0.0,0.0,0.0,0.0,0.0,0.0,0.0,0.0,0.0,0.0,0.0,0.0,0.0,0.0,0.0,0.0,0.0,0.0,0.0,0.0,0.0,0.0,0.0,0.0,0.0,0.0,-3.611,-3.7923,-3.9025,-4.0553,-4.1498,-4.0094,-3.7824,-3.5461,0.0,0.0,-2.9541,-2.9061,-2.9227,-2.9742,-3.0632,-3.164,-3.2781,0.0,0.0,0.0,0.0,0.0,0.0,0.0,0.0,0.0,0.0,0.0,0.0,0.0,0.0,0.0,0.0,-4.8331,-4.79,-4.7571,-4.7867,-4.8528,-4.9558,-4.9406,-4.9407,-4.9434,-4.9103,-4.8038,-4.6487,-4.5877,-4.4627,-4.2877,0.0,0.0,0.0,-4.1317,-4.1135,-4.0837,-4.0089,-3.945,-3.8899,-3.8899,-3.8492,-3.7941,0.0,0.0,0.0,0.0,0.0,0.0,0.0,0.0,0.0,0.0,0.0,0.0,0.0,0.0,0.0,0.0,0.0,0.0,0.0,0.0,0.0,0.0,0.0,0.0,0.0,0.0,0.0,0.0,0.0,0.0,0.0,0.0,0.0,0.0,0.0,0.0,0.0,0.0,0.0,0.0,0.0,0.0,0.0,0.0,0.0,0.0,0.0,0.0,0.0,0.0,0.0,0.0,0.0,0.0,0.0,0.0,-3.4388,-3.7264,-3.6675,-3.9007,-4.1481,-4.0976,-3.8574,-3.5979,0.0,0.0,-3.0038,-2.9278,-2.9483,-3.0223,-3.1708,-3.2273,-3.3066,-3.4898,0.0,0.0,0.0,0.0,0.0,0.0,0.0,0.0,0.0,0.0,0.0,0.0,0.0,0.0,0.0,-4.7498,-4.7255,-4.7984,-4.7289,-4.7272,-4.8017,-4.7654,-4.7593,-4.7906,-4.8345,-4.7521,-4.575,-4.4572,-4.3259,0.0,0.0,0.0,0.0,-4.1171,-4.0902,-4.0432,-3.9542,-3.8797,-3.8217,-3.8217,-3.7839,-3.7317,0.0,0.0,0.0,0.0,0.0,0.0,0.0,0.0,0.0,0.0,0.0,0.0,0.0,0.0,0.0,0.0,0.0,0.0,0.0,0.0,0.0,0.0,0.0,0.0,0.0,0.0,0.0,0.0,0.0,0.0,0.0,0.0,0.0,0.0,0.0,0.0,0.0,0.0,0.0,0.0,0.0,0.0,0.0,0.0,0.0,0.0,0.0,0.0,0.0,0.0,0.0,0.0,0.0,0.0,0.0,0.0,0.0,0.0,-3.6265,-3.7567,-3.8435,-3.7241,-3.5432,-3.3593,-3.2501,0.0,-2.987,-3.0096,-3.0612,-3.1378,-3.2614,-3.3649,-3.4719,-3.5783,-3.7335,0.0,0.0,0.0,0.0,0.0,0.0,0.0,0.0,0.0,0.0,0.0,0.0,0.0,0.0,-4.6982,-4.6245,-4.6493,-4.5765,-4.5748,-4.6493,-4.6157,-4.6109,-4.6488,-4.6368,-4.5665,-4.4315,-4.3552,0.0,0.0,0.0,0.0,0.0,-4.061,-4.0494,-4.0095,-3.8942,-3.813,-3.7593,-3.7593,-3.7172,-3.662,0.0,0.0,0.0,0.0,0.0,0.0,0.0,0.0,0.0,0.0,0.0,0.0,0.0,0.0,0.0,0.0,0.0,0.0,0.0,0.0,0.0,0.0,0.0,0.0,0.0,0.0,0.0,0.0,0.0,0.0,0.0,0.0,0.0,0.0,0.0,0.0,0.0,0.0,0.0,0.0,0.0,0.0,-2.5067,0.0,0.0,0.0,0.0,0.0,0.0,0.0,0.0,0.0,0.0,0.0,0.0,0.0,-3.363,0.0,0.0,-3.6486,-3.7557,-3.6522,-3.5117,-3.3787,-3.2886,0.0,-3.0511,-3.0486,-3.1155,-3.2085,-3.3237,-3.4377,-3.538,-3.618,-3.7638,0.0,0.0,0.0,0.0,0.0,0.0,0.0,0.0,0.0,0.0,0.0,0.0,0.0,0.0,0.0,-4.5914,-4.6195,-4.5218,-4.4787,-4.497,-4.5077,-4.5049,-4.5014,-4.4802,-4.4236,-4.3327,-4.2528,0.0,0.0,0.0,0.0,0.0,-3.9832,-3.9876,-3.9857,-3.8498,-3.771,-3.7302,-3.7302,-3.6577,-3.559,0.0,0.0,0.0,0.0,0.0,0.0,0.0,0.0,0.0,0.0,0.0,0.0,0.0,0.0,0.0,0.0,0.0,0.0,0.0,0.0,0.0,0.0,0.0,0.0,0.0,0.0,0.0,0.0,-2.4146,-2.5925,-2.6735,0.0,0.0,0.0,0.0,0.0,0.0,0.0,0.0,0.0,0.0,0.0,0.0,0.0,0.0,0.0,0.0,0.0,0.0,0.0,0.0,0.0,0.0,0.0,0.0,0.0,0.0,0.0,0.0,0.0,0.0,0.0,-3.6806,-3.5606,-3.4914,0.0,0.0,0.0,-3.1275,-3.2461,-3.3731,-3.4545,-3.5332,-3.6318,-3.7663,0.0,0.0,0.0,0.0,0.0,0.0,0.0,0.0,0.0,0.0,0.0,0.0,0.0,0.0,0.0,-4.6096,-4.6792,-4.5533,-4.4489,-4.3777,-4.4397,-4.4399,-4.38,-4.3715,-4.3327,-4.2679,-4.1524,0.0,0.0,0.0,0.0,0.0,-3.878,-3.8883,-3.9459,-3.7974,-3.7332,-3.7172,-3.7114,-3.5923,-3.4341,0.0,0.0,0.0,0.0,0.0,0.0,0.0,0.0,0.0,0.0,0.0,0.0,0.0,0.0,0.0,0.0,0.0,0.0,0.0,0.0,0.0,0.0,0.0,0.0,0.0,0.0,0.0,-2.197,-2.5731,-2.7954,-2.8611,-3.1413,0.0,0.0,0.0,0.0,0.0,0.0,0.0,0.0,0.0,0.0,0.0,0.0,0.0,0.0,-2.7902,-2.8747,0.0,0.0,0.0,0.0,0.0,0.0,0.0,0.0,-3.3849,-3.4041,-3.3857,0.0,-3.4306,-3.4169,-3.3894,-3.3499,0.0,0.0,0.0,0.0,0.0,0.0,0.0,0.0,-3.5866,0.0,0.0,0.0,0.0,0.0,0.0,0.0,0.0,0.0,0.0,0.0,0.0,0.0,0.0,0.0,0.0,0.0,-4.5864,-4.6046,-4.6262,-4.603,-4.5284,-4.438,-4.4156,-4.4544,-4.397,-4.3358,-4.2679,-4.1524,0.0,0.0,0.0,0.0,-3.7886,-3.7857,-3.7813,-3.7813,-3.6925,-3.6314,-3.5764,-3.527,-3.4501,-3.3616,0.0,0.0,0.0,0.0,0.0,0.0,0.0,0.0,0.0,0.0,0.0,0.0,0.0,0.0,0.0,0.0,0.0,0.0,0.0,0.0,0.0,0.0,0.0,0.0,0.0,0.0,0.0,0.0,0.0,-2.9565,0.0,0.0,0.0,0.0,0.0,0.0,0.0,0.0,0.0,0.0,-2.5461,0.0,0.0,0.0,0.0,0.0,-2.7709,-2.8186,0.0,-3.0801,-3.1844,-3.2487,0.0,0.0,0.0,0.0,-3.4609,-3.4702,-3.4214,-3.4535,-3.4961,-3.4885,-3.513,-3.5083,-3.3825,0.0,0.0,0.0,0.0,0.0,0.0,0.0,0.0,0.0,0.0,0.0,0.0,0.0,0.0,0.0,0.0,0.0,0.0,0.0,0.0,0.0,0.0,0.0,0.0,0.0,-4.5661,-4.6278,-4.6361,-4.6132,-4.5546,-4.4968,-4.4641,-4.4506,-4.3663,-4.2868,-4.2173,-4.0739,0.0,0.0,0.0,0.0,-3.6982,-3.7016,-3.7201,-3.7266,-3.6604,-3.6065,-3.5644,-3.5034,-3.4269,-3.3383,0.0,0.0,0.0,0.0,0.0,0.0,0.0,0.0,0.0,0.0,0.0,0.0,0.0,0.0,0.0,0.0,0.0,0.0,0.0,0.0,0.0,0.0,0.0,0.0,0.0,0.0,0.0,0.0,0.0,0.0,0.0,0.0,0.0,0.0,0.0,0.0,0.0,0.0,0.0,0.0,-2.5482,0.0,0.0,0.0,0.0,0.0,0.0,0.0,0.0,-3.0399,-3.141,-3.188,-3.3687,0.0,0.0,0.0,0.0,0.0,-3.4807,-3.6076,-3.7465,-3.7071,-3.7638,-3.7789,-3.5767,0.0,0.0,0.0,0.0,0.0,0.0,0.0,0.0,0.0,0.0,0.0,0.0,0.0,0.0,0.0,0.0,0.0,0.0,0.0,0.0,0.0,0.0,0.0,0.0,0.0,0.0,-4.6527,-4.5947,-4.5445,-4.5128,-4.5505,-4.522,-4.4289,-4.3214,-4.2299,-4.1557,-3.9868,-3.8591,0.0,0.0,0.0,-3.6277,-3.6117,-3.641,-3.6924,-3.6305,-3.6,-3.5784,-3.5302,-3.4399,-3.3237,0.0,0.0,0.0,0.0,0.0,0.0,0.0,0.0,0.0,0.0,0.0,0.0,0.0,0.0,0.0,0.0,0.0,0.0,0.0,0.0,0.0,0.0,0.0,0.0,0.0,0.0,0.0,0.0,0.0,0.0,-3.332,-3.5401,-3.5339,0.0,0.0,0.0,0.0,-2.8251,-2.7018,-2.5765,-2.5137,0.0,0.0,0.0,0.0,0.0,0.0,0.0,0.0,-3.0375,-3.1885,-3.2826,-3.3766,0.0,0.0,0.0,0.0,0.0,-3.6435,-3.7929,-3.8679,-3.6319,-3.6877,-3.7578,-3.6028,0.0,0.0,0.0,0.0,0.0,0.0,0.0,0.0,0.0,0.0,0.0,0.0,0.0,0.0,0.0,0.0,0.0,0.0,0.0,0.0,0.0,0.0,0.0,0.0,0.0,0.0,-4.5003,-4.492,-4.4686,-4.4344,-4.4789,-4.4885,-4.4705,-4.3349,-4.2299,-4.1557,-4.0173,-3.8719,0.0,0.0,-3.558,-3.4772,-3.4724,-3.4753,-3.4826,-3.4724,-3.4695,-3.4622,-3.4031,-3.3431,-3.2825,0.0,0.0,0.0,0.0,0.0,0.0,0.0,0.0,0.0,0.0,0.0,0.0,0.0,0.0,0.0,0.0,0.0,0.0,0.0,0.0,0.0,0.0,0.0,0.0,0.0,0.0,0.0,0.0,0.0,-3.3779,-3.3916,-3.4953,-3.4876,-3.3791,0.0,0.0,0.0,-2.8656,-2.74,-2.6224,0.0,0.0,0.0,0.0,0.0,0.0,0.0,0.0,0.0,0.0,-3.1383,-3.2038,-3.3522,0.0,0.0,0.0,0.0,0.0,-3.5544,-3.7235,-3.8532,-3.6989,-3.8347,-3.9589,-3.7694,0.0,0.0,0.0,0.0,0.0,0.0,0.0,0.0,0.0,0.0,0.0,0.0,0.0,0.0,0.0,0.0,0.0,0.0,0.0,0.0,0.0,0.0,0.0,0.0,0.0,0.0,0.0,-4.4307,-4.3927,-4.3637,-4.3276,-4.3185,-4.3314,-4.2518,-4.1525,-4.0435,-3.9199,-3.7774,-3.629,0.0,-3.5294,-3.4288,-3.4955,-3.5037,-3.4854,-3.4854,-3.4706,-3.4409,-3.3647,-3.2925,-3.2246,0.0,0.0,0.0,0.0,0.0,0.0,0.0,0.0,0.0,0.0,0.0,0.0,0.0,0.0,0.0,0.0,0.0,0.0,0.0,0.0,0.0,0.0,0.0,0.0,0.0,0.0,0.0,-2.9423,-3.2724,-3.433,-3.4303,-3.4233,-3.4046,0.0,0.0,0.0,0.0,-2.9023,-2.7749,-2.6557,0.0,0.0,0.0,0.0,0.0,0.0,0.0,0.0,0.0,0.0,0.0,0.0,0.0,0.0,0.0,-3.5469,-3.5295,-3.4853,-3.4634,-3.6208,-3.7816,-3.7393,0.0,-4.0884,-3.9417,0.0,0.0,0.0,0.0,0.0,0.0,0.0,0.0,0.0,0.0,0.0,0.0,0.0,0.0,0.0,0.0,0.0,0.0,0.0,0.0,0.0,0.0,0.0,0.0,0.0,0.0,0.0,-4.3661,-4.3185,-4.2928,-4.1862,-4.1413,-4.1582,-4.0976,-4.0072,-3.8997,-3.7746,-3.6551,-3.5424,-3.5415,-3.4841,-3.3947,-3.4921,-3.5061,-3.4699,-3.4846,-3.4624,-3.4192,-3.3465,-3.2681,-3.2013,0.0,0.0,0.0,0.0,0.0,0.0,0.0,0.0,0.0,0.0,0.0,0.0,0.0,0.0,0.0,0.0,0.0,0.0,0.0,0.0,0.0,0.0,0.0,0.0,0.0,-2.9827,-3.0868,-3.0333,-3.321,-3.4614,-3.4589,-3.3806,-3.3266,-3.2854,0.0,0.0,0.0,-2.9244,-2.7958,-2.6375,-2.5813,0.0,0.0,0.0,0.0,0.0,0.0,0.0,0.0,0.0,0.0,0.0,0.0,0.0,-3.4318,-3.4888,-3.4816,-3.4619,-3.4959,-3.586,-3.6696,-3.6676,0.0,0.0,-4.0533,-3.9622,0.0,0.0,0.0,0.0,0.0,0.0,0.0,0.0,0.0,0.0,0.0,0.0,0.0,0.0,0.0,0.0,0.0,0.0,0.0,0.0,0.0,0.0,0.0,0.0,0.0,0.0,0.0,-4.2409,-4.2097,-4.1097,-4.0414,-4.0142,-3.8562,-3.7717,-3.7575,-3.6216,-3.5237,-3.4651,-3.4225,-3.3743,-3.328,-3.3577,-3.3448,-3.3107,-3.3679,-3.3687,-3.3339,-3.2903,-3.2676,-3.2492,0.0,0.0,0.0,0.0,0.0,0.0,0.0,0.0,0.0,0.0,0.0,0.0,0.0,0.0,0.0,0.0,0.0,0.0,0.0,0.0,0.0,0.0,0.0,-2.9816,-2.9739,-3.1561,-3.2277,-3.1746,-3.3485,-3.4095,-3.3547,-3.3636,0.0,0.0,0.0,0.0,0.0,-2.8815,-2.8058,-2.7233,-2.6848,-2.6584,0.0,0.0,0.0,0.0,0.0,0.0,0.0,0.0,-3.3324,-3.3717,0.0,0.0,-3.3613,-3.2997,-3.2429,-3.2152,-3.3125,-3.4446,-3.5757,-3.6378,0.0,0.0,0.0,0.0,0.0,0.0,0.0,0.0,0.0,0.0,0.0,0.0,0.0,0.0,0.0,0.0,0.0,0.0,0.0,0.0,0.0,0.0,0.0,0.0,0.0,0.0,0.0,0.0,0.0,0.0,0.0,-3.9977,-3.9531,-3.9124,-3.8761,-3.842,-3.7777,-3.7243,-3.6785,-3.5837,-3.4917,-3.4058,-3.4287,-3.3696,-3.2598,-3.2952,-3.2767,-3.2331,-3.2537,-3.2486,-3.2403,-3.2365,-3.2372,-3.23,0.0,0.0,0.0,0.0,0.0,0.0,0.0,0.0,0.0,0.0,0.0,0.0,0.0,0.0,0.0,0.0,0.0,0.0,0.0,0.0,0.0,0.0,0.0,-2.9907,-3.0861,-3.1914,-3.2259,-3.1817,-3.233,-3.2526,-3.242,0.0,0.0,0.0,0.0,0.0,0.0,0.0,-2.743,-2.7359,-2.6714,-2.685,0.0,0.0,0.0,0.0,0.0,0.0,0.0,0.0,0.0,0.0,0.0,0.0,0.0,0.0,-3.1103,-3.0911,-3.1568,-3.3037,-3.4659,0.0,0.0,0.0,0.0,0.0,0.0,0.0,0.0,0.0,0.0,0.0,0.0,0.0,0.0,0.0,0.0,0.0,0.0,0.0,0.0,0.0,0.0,0.0,0.0,0.0,0.0,0.0,0.0,0.0,0.0,0.0,0.0,-3.8925,-3.8428,-3.8072,-3.7801,-3.7464,-3.6684,-3.6227,-3.6058,-3.5157,-3.4242,-3.3361,-3.3681,-3.3029,-3.1796,-3.2123,-3.2011,-3.1632,-3.164,-3.1611,-3.1679,-3.2096,-3.2182,-3.2169,0.0,0.0,0.0,0.0,0.0,0.0,0.0,0.0,0.0,0.0,0.0,0.0,0.0,0.0,0.0,0.0,0.0,0.0,0.0,0.0,0.0,0.0,0.0,-2.9726,-3.0691,-3.0769,-3.0656,-3.02,-2.9507,-3.0002,-3.1489,0.0,0.0,0.0,0.0,0.0,0.0,0.0,0.0,-2.6371,-2.5087,-2.5573,-2.7126,0.0,0.0,0.0,0.0,0.0,0.0,0.0,-3.2446,0.0,0.0,0.0,0.0,0.0,-3.1445,-3.1462,-3.069,-3.1804,-3.3395,0.0,0.0,0.0,0.0,0.0,0.0,0.0,0.0,0.0,0.0,0.0,0.0,0.0,0.0,0.0,0.0,0.0,0.0,0.0,0.0,0.0,0.0,0.0,0.0,0.0,0.0,0.0,0.0,0.0,0.0,0.0,0.0,0.0,-3.9379,-3.8428,-3.7817,-3.7449,-3.4878,-3.431,-3.5331,-3.3941,-3.3011,-3.2532,-3.2089,-3.1465,-3.0821,-3.0912,-3.0918,-3.0882,-3.1169,-3.1273,-3.1355,-3.1951,-3.2169,-3.2096,0.0,0.0,0.0,0.0,0.0,0.0,0.0,0.0,0.0,0.0,0.0,0.0,0.0,0.0,0.0,0.0,0.0,0.0,0.0,0.0,0.0,0.0,0.0,0.0,0.0,0.0,-2.8728,-2.9879,-3.0103,-3.0433,0.0,0.0,0.0,-2.9778,0.0,0.0,0.0,0.0,0.0,0.0,-2.5477,-2.6557,-2.8593,0.0,0.0,0.0,0.0,0.0,0.0,0.0,0.0,0.0,0.0,0.0,0.0,0.0,-3.1278,-3.1995,-3.0455,-3.1994,0.0,0.0,0.0,0.0,0.0,0.0,0.0,0.0,0.0,0.0,0.0,0.0,0.0,0.0,0.0,0.0,0.0,0.0,0.0,0.0,0.0,0.0,0.0,0.0,0.0,0.0,0.0,0.0,0.0,0.0,0.0,0.0,0.0,0.0,-3.6263,-3.6637,-3.6663,-3.6204,-3.453,-3.3892,-3.4176,-3.2909,-3.1992,-3.1349,-3.1175,-3.0658,-2.9913,-2.9722,-2.9522,-2.9302,-2.9848,-3.0011,-3.0133,-3.1178,-3.1558,-3.1527,0.0,0.0,0.0,0.0,0.0,0.0,0.0,0.0,0.0,0.0,0.0,0.0,0.0,0.0,0.0,0.0,0.0,0.0,0.0,0.0,0.0,0.0,0.0,0.0,0.0,-2.7218,-2.7508,0.0,0.0,0.0,0.0,0.0,0.0,-2.9705,0.0,-2.8726,0.0,0.0,0.0,0.0,-2.4975,-2.5923,-2.8029,0.0,0.0,0.0,0.0,0.0,0.0,0.0,0.0,0.0,0.0,0.0,0.0,-3.1261,-3.1376,-3.1834,-3.0851,0.0,0.0,0.0,0.0,0.0,0.0,0.0,0.0,0.0,0.0,0.0,0.0,0.0,0.0,0.0,0.0,0.0,0.0,0.0,0.0,0.0,0.0,0.0,0.0,0.0,0.0,0.0,0.0,0.0,0.0,0.0,0.0,0.0,0.0,0.0,-3.4632,-3.5183,-3.5127,-3.4599,-3.3073,-3.2262,-3.2205,-3.1868,-3.1349,-3.0777,-3.0297,-2.9822,-2.9352,-2.9035,-2.878,-2.8655,-2.9185,-2.9416,-2.9591,-3.0429,-3.1013,-3.1199,0.0,0.0,0.0,0.0,0.0,0.0,0.0,0.0,0.0,0.0,0.0,0.0,0.0,0.0,0.0,0.0,0.0,0.0,0.0,0.0,0.0,0.0,0.0,0.0,0.0,0.0,0.0,0.0,0.0,0.0,0.0,0.0,-2.9724,-3.0453,0.0,-2.8931,0.0,0.0,0.0,0.0,-2.3722,-2.4303,-2.6097,-2.6529,0.0,0.0,0.0,0.0,0.0,0.0,0.0,0.0,0.0,0.0,-3.2244,-3.1984,-3.1715,-3.1516,0.0,0.0,0.0,0.0,0.0,0.0,0.0,0.0,0.0,0.0,0.0,0.0,0.0,0.0,0.0,0.0,0.0,0.0,0.0,0.0,0.0,0.0,0.0,0.0,0.0,0.0,0.0,0.0,0.0,0.0,0.0,0.0,0.0,0.0,0.0,0.0,-3.4143,-3.3876,-3.3438,0.0,-3.1031,-3.0009,-2.9753,-3.0717,-3.0984,-3.0598,-2.9526,-2.9035,-2.9035,-2.8716,-2.8587,-2.8641,-2.8985,-2.9268,-2.9402,-2.9724,-3.0371,-3.0841,0.0,0.0,0.0,0.0,0.0,0.0,0.0,0.0,0.0,0.0,0.0,0.0,0.0,0.0,0.0,0.0,0.0,0.0,0.0,0.0,0.0,0.0,0.0,0.0,0.0,0.0,0.0,0.0,0.0,0.0,0.0,0.0,0.0,-2.866,0.0,-2.6779,0.0,0.0,0.0,0.0,-2.2993,-2.3875,-2.5839,-2.6071,-2.6602,0.0,0.0,0.0,0.0,0.0,0.0,0.0,-3.3921,-3.4413,-3.4101,-3.235,-3.2748,-3.3371,0.0,0.0,0.0,0.0,0.0,0.0,0.0,0.0,0.0,0.0,0.0,0.0,0.0,0.0,0.0,0.0,0.0,0.0,0.0,0.0,0.0,0.0,0.0,0.0,0.0,0.0,0.0,0.0,0.0,0.0,0.0,0.0,0.0,0.0,0.0,-3.3033,-3.3107,-3.2634,-3.2056,0.0,-2.9864,-2.8868,-2.8295,-2.9202,-2.9537,-2.9463,-2.8908,-2.8716,-2.8716,-2.8651,-2.8587,-2.86,-2.8514,-2.8489,-2.8621,-2.9174,-2.9211,-2.8956,0.0,0.0,0.0,0.0,0.0,0.0,0.0,0.0,0.0,0.0,0.0,0.0,0.0,0.0,0.0,0.0,0.0,0.0,0.0,0.0,0.0,0.0,0.0,0.0,0.0,0.0,0.0,0.0,0.0,0.0,0.0,0.0,0.0,-2.9372,0.0,-2.6481,0.0,0.0,0.0,0.0,0.0,-2.3427,-2.4822,-2.544,-2.5985,0.0,-2.7063,0.0,0.0,0.0,0.0,0.0,0.0,0.0,-3.3453,-3.2348,-3.2469,-3.2763,0.0,0.0,0.0,0.0,0.0,0.0,0.0,0.0,0.0,0.0,0.0,0.0,0.0,0.0,0.0,0.0,0.0,0.0,0.0,0.0,0.0,0.0,0.0,0.0,0.0,0.0,0.0,0.0,0.0,0.0,0.0,0.0,0.0,0.0,-3.1605,-3.2183,-3.2183,-3.1901,-3.122,-3.006,-2.903,-2.8068,-2.7139,-2.818,-2.86,-2.8433,-2.8529,-2.8587,-2.8587,-2.8509,-2.8444,-2.8444,-2.817,-2.8105,-2.8224,-2.8332,-2.8273,-2.804,0.0,0.0,0.0,0.0,0.0,0.0,0.0,0.0,0.0,0.0,0.0,0.0,0.0,0.0,0.0,0.0,0.0,0.0,0.0,0.0,0.0,0.0,0.0,0.0,0.0,0.0,0.0,0.0,0.0,0.0,0.0,0.0,0.0,-3.048,0.0,0.0,0.0,0.0,0.0,0.0,0.0,0.0,0.0,0.0,0.0,0.0,0.0,-2.8051,-2.9482,-2.9518,0.0,0.0,0.0,0.0,-3.2297,-3.2254,-3.1861,-3.1586,0.0,0.0,0.0,0.0,0.0,0.0,0.0,0.0,0.0,0.0,0.0,0.0,0.0,0.0,0.0,0.0,0.0,0.0,0.0,0.0,0.0,0.0,0.0,0.0,0.0,0.0,0.0,0.0,0.0,0.0,0.0,0.0,-2.9832,-3.069,-3.1289,-3.1431,-3.113,-3.1014,-3.0197,-2.868,-2.7938,-2.7029,-2.6068,-2.7239,-2.7749,-2.7732,-2.8343,-2.8587,-2.8522,-2.8365,-2.83,-2.8235,-2.7908,-2.7921,-2.8,-2.7523,-2.7391,-2.7265,0.0,0.0,0.0,0.0,0.0,0.0,0.0,0.0,0.0,0.0,0.0,0.0,0.0,0.0,0.0,0.0,0.0,0.0,-1.377,0.0,0.0,-2.0795,0.0,0.0,0.0,0.0,0.0,0.0,0.0,0.0,0.0,0.0,0.0,-2.8987,0.0,0.0,0.0,0.0,0.0,0.0,0.0,0.0,0.0,0.0,0.0,0.0,0.0,0.0,-2.9552,-3.0081,-3.12,0.0,0.0,0.0,-3.2929,-3.2309,-3.2159,-3.2203,0.0,0.0,0.0,0.0,0.0,0.0,0.0,0.0,0.0,0.0,0.0,0.0,0.0,0.0,0.0,0.0,0.0,0.0,0.0,0.0,0.0,0.0,0.0,0.0,0.0,0.0,0.0,0.0,0.0,0.0,0.0,-3.0182,-3.0113,-3.0389,-3.0602,-3.0437,-2.9694,-2.8971,-2.8039,-2.6759,-2.575,-2.5081,-2.4869,-2.5643,-2.664,-2.7732,-2.8343,-2.8509,-2.8352,-2.8287,-2.8235,-2.8079,-2.7855,-2.7855,-2.7789,-2.7082,-2.6521,-2.6029,0.0,0.0,0.0,0.0,0.0,0.0,0.0,0.0,0.0,0.0,0.0,0.0,0.0,0.0,0.0,-1.2527,-1.3608,-1.4354,-1.4421,-1.6706,-1.8595,-1.959,-2.1624,0.0,0.0,0.0,0.0,0.0,0.0,0.0,0.0,-2.8112,-2.9088,0.0,0.0,0.0,0.0,0.0,0.0,0.0,0.0,0.0,0.0,0.0,0.0,0.0,0.0,0.0,0.0,0.0,-3.0778,-3.1894,-3.2089,0.0,0.0,0.0,-3.1607,0.0,0.0,0.0,0.0,0.0,0.0,0.0,0.0,0.0,0.0,0.0,0.0,0.0,0.0,0.0,0.0,0.0,0.0,0.0,0.0,0.0,0.0,0.0,0.0,0.0,0.0,0.0,0.0,0.0,0.0,0.0,-2.9243,-2.9404,-2.9322,-2.8843,-2.9464,-2.9491,-2.8742,-2.8224,-2.7425,-2.6293,-2.5603,-2.5048,-2.4633,-2.5279,-2.6015,-2.6969,-2.7624,-2.8005,-2.8183,-2.8039,-2.7987,-2.7934,-2.7723,-2.7377,-2.696,-2.6688,-2.5836,-2.4838,0.0,0.0,0.0,0.0,0.0,0.0,0.0,0.0,0.0,0.0,0.0,0.0,0.0,0.0,0.0,0.0,-1.3322,-1.4455,-1.551,-1.7054,-1.8261,-1.9024,-2.0845,-2.1745,0.0,0.0,0.0,0.0,0.0,0.0,-2.6334,-2.752,-2.9522,0.0,-2.9398,0.0,0.0,0.0,0.0,0.0,0.0,0.0,0.0,0.0,0.0,0.0,0.0,0.0,0.0,0.0,0.0,0.0,-3.1351,-3.1292,0.0,0.0,0.0,0.0,0.0,0.0,0.0,0.0,0.0,0.0,0.0,0.0,0.0,0.0,0.0,0.0,0.0,0.0,0.0,0.0,0.0,0.0,0.0,0.0,0.0,0.0,0.0,0.0,0.0,0.0,0.0,0.0,0.0,0.0,-2.7995,-2.8542,-2.849,-2.7693,-2.8527,-2.8539,-2.774,-2.7455,-2.6789,-2.5931,-2.5481,-2.4996,-2.4461,-2.4797,-2.5269,-2.5999,-2.6979,-2.749,-2.7801,-2.7802,-2.7868,-2.7933,-2.753,-2.713,-2.6771,-2.6337,-2.5373,-2.4242,0.0,0.0,0.0,0.0,0.0,0.0,0.0,0.0,0.0,0.0,0.0,0.0,-1.3063,-1.3302,-1.3334,-1.2961,-1.3826,-1.5044,-1.6722,-1.7288,-1.8288,-1.9865,-2.0677,0.0,-2.1062,0.0,0.0,0.0,0.0,0.0,-2.5417,-2.717,-2.9198,-3.1284,-2.9992,-2.8499,-2.6863,0.0,0.0,0.0,0.0,0.0,0.0,0.0,0.0,0.0,0.0,0.0,0.0,0.0,0.0,0.0,-3.1278,-3.1234,-3.1087,0.0,0.0,0.0,0.0,0.0,0.0,0.0,0.0,0.0,0.0,0.0,0.0,0.0,0.0,0.0,0.0,0.0,0.0,0.0,0.0,0.0,0.0,0.0,0.0,0.0,0.0,0.0,0.0,0.0,0.0,0.0,0.0,0.0,-2.7346,-2.781,-2.791,-2.7619,-2.8039,-2.7712,-2.6521,-2.605,-2.5619,-2.5216,-2.4668,-2.4269,-2.4099,-2.3747,-2.4129,-2.514,-2.6618,-2.7123,-2.701,-2.7551,-2.8039,-2.8265,-2.7449,-2.7423,-2.7752,-2.6188,-2.5291,-2.4716,0.0,0.0,0.0,0.0,0.0,0.0,0.0,0.0,0.0,0.0,0.0,0.0,0.0,-1.3702,-1.3803,-1.3554,-1.416,-1.5199,-1.6854,-1.7344,-1.8082,-1.9262,-2.0514,-2.1021,-2.0722,0.0,0.0,0.0,0.0,-2.2422,-2.4194,-2.5301,-2.6651,-2.8371,-2.877,-2.8586,-2.7965,-2.6439,0.0,0.0,0.0,0.0,0.0,0.0,0.0,0.0,0.0,0.0,0.0,0.0,0.0,0.0,-3.1058,-3.094,-3.0836,-3.0536,0.0,0.0,0.0,0.0,0.0,0.0,0.0,0.0,0.0,0.0,0.0,0.0,0.0,0.0,0.0,0.0,0.0,0.0,0.0,0.0,0.0,0.0,0.0,0.0,0.0,0.0,0.0,0.0,0.0,0.0,0.0,0.0,-2.6514,-2.6657,-2.662,-2.6188,-2.6549,-2.6307,-2.5502,-2.5592,-2.5177,-2.4255,-2.4286,-2.3838,-2.3001,-2.3214,-2.3502,-2.3903,-2.5248,-2.6182,-2.6816,-2.7013,-2.7102,-2.7062,-2.6773,-2.6171,-2.5467,-2.4819,-2.4209,-2.3627,0.0,0.0,0.0,0.0,0.0,0.0,0.0,0.0,0.0,0.0,0.0,0.0,0.0,0.0,-1.4063,-1.3924,-1.4313,-1.5107,-1.6296,-1.7193,-1.8051,-1.8947,-2.0411,-2.1058,-2.0975,0.0,0.0,0.0,0.0,0.0,0.0,-2.3422,-2.4627,-2.6196,-2.688,-2.7543,0.0,0.0,0.0,-2.5105,0.0,0.0,-2.3686,0.0,0.0,0.0,0.0,0.0,0.0,0.0,0.0,0.0,0.0,0.0,0.0,0.0,0.0,0.0,0.0,0.0,0.0,0.0,0.0,0.0,0.0,0.0,0.0,0.0,0.0,0.0,0.0,0.0,0.0,0.0,0.0,0.0,0.0,0.0,0.0,0.0,0.0,0.0,0.0,0.0,0.0,0.0,0.0,0.0,-2.5101,-2.5302,-2.5371,-2.5258,-2.5281,-2.5199,-2.4929,-2.5176,-2.486,-2.3891,-2.4191,-2.3811,-2.2962,-2.3132,-2.3328,-2.3563,-2.4347,-2.5205,-2.6065,-2.6246,-2.6282,-2.626,-2.5978,-2.5361,-2.4636,-2.4351,-2.3813,-2.3241,0.0,0.0,0.0,0.0,0.0,0.0,0.0,0.0,0.0,0.0,0.0,0.0,0.0,0.0,0.0,-1.4119,-1.4438,-1.478,-1.5197,-1.6892,-1.8211,-1.9153,-2.0328,-2.1123,-2.1603,0.0,0.0,0.0,0.0,0.0,0.0,0.0,-2.315,0.0,-2.4551,-2.5318,-2.6989,0.0,-2.6636,-2.573,0.0,-2.3301,-2.2988,0.0,0.0,0.0,-2.6188,-2.7377,0.0,-2.8341,0.0,0.0,0.0,0.0,0.0,0.0,0.0,0.0,0.0,0.0,0.0,0.0,0.0,0.0,0.0,0.0,0.0,0.0,0.0,0.0,0.0,0.0,0.0,0.0,0.0,0.0,0.0,0.0,0.0,0.0,0.0,0.0,0.0,0.0,0.0,0.0,0.0,-2.3271,-2.3138,-2.3721,-2.4363,-2.4975,-2.4407,-2.4313,-2.4783,-2.4783,-2.4595,-2.4258,-2.4272,-2.4215,-2.4047,-2.3415,-2.348,-2.4028,-2.4041,-2.4256,-2.4666,-2.5256,-2.5684,-2.5925,-2.5175,-2.5187,-2.5547,-2.4736,-2.4137,-2.3711,0.0,0.0,0.0,0.0,0.0,0.0,0.0,0.0,0.0,0.0,0.0,0.0,-1.4372,-1.4661,-1.5012,-1.5229,-1.5372,-1.5716,-1.6551,-1.7685,-1.8799,-1.9707,-2.1137,-2.1892,-2.1869,0.0,0.0,0.0,0.0,0.0,0.0,0.0,0.0,0.0,-2.3787,-2.4189,-2.4641,-2.5098,0.0,0.0,-2.3678,-2.3435,0.0,0.0,0.0,0.0,0.0,-2.7213,-2.9428,0.0,-2.9942,-3.0892,0.0,0.0,0.0,0.0,0.0,0.0,-2.8495,0.0,0.0,0.0,0.0,0.0,0.0,0.0,0.0,0.0,0.0,0.0,0.0,0.0,0.0,0.0,0.0,0.0,0.0,0.0,0.0,0.0,0.0,0.0,0.0,0.0,0.0,0.0,-2.28,-2.2628,-2.3078,-2.3378,-2.4059,-2.4939,-2.4487,-2.4466,-2.4928,-2.4872,-2.4313,-2.3339,-2.3635,-2.3482,-2.301,-2.2629,-2.2591,-2.271,-2.2685,-2.2611,-2.2692,-2.4292,-2.4597,-2.4189,-2.4273,-2.4062,-2.3696,-2.3481,-2.3318,-2.3198,0.0,0.0,0.0,0.0,0.0,0.0,0.0,0.0,0.0,0.0,0.0,0.0,0.0,-1.5294,-1.5626,-1.5674,-1.5674,-1.6057,-1.696,-1.8045,-1.9068,-2.0234,-2.1479,-2.2234,-2.2282,0.0,0.0,0.0,0.0,0.0,0.0,0.0,0.0,0.0,0.0,0.0,0.0,0.0,0.0,0.0,-2.347,0.0,0.0,-2.3309,-2.4196,0.0,0.0,0.0,-2.9915,-2.945,-2.9804,0.0,0.0,0.0,0.0,0.0,0.0,0.0,0.0,0.0,0.0,0.0,0.0,0.0,0.0,-2.6489,0.0,0.0,0.0,0.0,0.0,0.0,0.0,0.0,0.0,0.0,0.0,0.0,0.0,0.0,0.0,0.0,0.0,0.0,0.0,0.0,-2.1973,-2.2002,-2.2628,-2.2884,-2.3409,-2.4296,-2.3891,-2.3751,-2.405,-2.4176,-2.383,-2.2988,-2.3652,-2.3702,-2.3204,-2.2763,-2.2552,-2.2564,-2.2214,-2.1843,-2.1606,-2.3203,-2.3485,-2.2969,-2.3441,-2.335,-2.3001,-2.3001,-2.3001,-2.3001,0.0,0.0,0.0,0.0,0.0,0.0,0.0,0.0,0.0,0.0,0.0,0.0,0.0,0.0,-1.6555,-1.6423,-1.6183,-1.6434,-1.7362,-1.8303,-1.9309,-2.0456,-2.1376,-2.2029,-2.2381,0.0,0.0,0.0,0.0,0.0,0.0,0.0,0.0,0.0,0.0,0.0,0.0,0.0,0.0,-2.3842,-2.3348,-2.3296,0.0,0.0,-2.5631,0.0,-2.8244,-2.9434,-3.0088,-2.9567,-2.9275,0.0,0.0,0.0,0.0,0.0,-2.8915,0.0,0.0,0.0,0.0,0.0,0.0,0.0,-2.4237,-2.4774,0.0,0.0,0.0,0.0,0.0,0.0,0.0,0.0,0.0,0.0,0.0,0.0,0.0,0.0,0.0,0.0,0.0,0.0,-2.2614,-2.1531,-2.124,-2.1376,-2.1978,-2.2175,-2.2653,-2.3359,-2.2908,-2.2719,-2.2719,-2.3119,-2.3124,-2.2794,-2.383,-2.4163,-2.3833,-2.3195,-2.2907,-2.2847,-2.2163,-2.1491,-2.1012,-2.1968,-2.2327,-2.228,-2.2805,-2.3001,-2.3001,-2.3001,-2.3001,-2.3001,-1.6806,0.0,0.0,0.0,0.0,0.0,0.0,0.0,0.0,0.0,0.0,0.0,0.0,0.0,0.0,-2.0725,-1.9453,-1.8984,-1.9871,-2.0175,-2.0236,-1.9781,-2.0785,-2.0978,-2.0216,-2.0062,0.0,0.0,0.0,0.0,0.0,0.0,0.0,0.0,0.0,0.0,0.0,0.0,0.0,-2.2995,-2.267,0.0,-2.3238,-2.3696,-2.4946,-2.6498,-2.7242,-2.8946,-3.0737,0.0,-3.0177,-2.9882,0.0,0.0,0.0,0.0,0.0,0.0,0.0,0.0,0.0,0.0,0.0,0.0,-2.5599,-2.5746,-2.6046,0.0,0.0,0.0,0.0,0.0,0.0,0.0,0.0,0.0,0.0,0.0,0.0,0.0,0.0,0.0,0.0,0.0,-2.1094,-2.1242,-2.1183,-2.1187,-2.1313,-2.1616,-2.2243,-2.3218,-2.2727,-2.2637,-2.3043,-2.2865,-2.2309,-2.1381,-2.2303,-2.2538,-2.2058,-2.1663,-2.1491,-2.1428,-2.0677,-2.0248,-2.0161,-2.0751,-2.1286,-2.1811,-2.2673,-2.3001,-2.3001,-2.3001,-2.3001,-2.2927,-1.7154,0.0,0.0,0.0,0.0,0.0,0.0,0.0,0.0,0.0,0.0,0.0,0.0,0.0,0.0,0.0,0.0,-1.9942,-1.9942,-2.0311,-2.027,-1.9608,-2.006,-2.0138,-1.9599,-1.9511,-1.9252,0.0,0.0,0.0,0.0,0.0,0.0,0.0,0.0,0.0,0.0,0.0,-2.1614,-2.2283,-2.2271,0.0,-2.3062,-2.3761,-2.4687,-2.5894,-2.7151,-2.9012,-3.0678,-3.0407,-3.0203,0.0,0.0,-2.9164,-2.8286,0.0,-2.7748,-2.693,0.0,0.0,0.0,-2.5841,0.0,0.0,0.0,-2.5259,0.0,0.0,0.0,0.0,0.0,0.0,0.0,0.0,0.0,0.0,0.0,0.0,0.0,0.0,0.0,0.0,0.0,0.0,-2.0333,-2.0362,-2.0347,-2.0424,-2.056,-2.0613,-2.1073,-2.2192,-2.1736,-2.1733,-2.2194,-2.2246,-2.191,-2.132,-2.1958,-2.2128,-2.1825,-2.1311,-2.1071,-2.0955,-2.0194,-2.0008,-2.0133,-2.0614,-2.1215,-2.1843,-2.2393,-2.2805,-2.3001,-2.3001,-2.2777,-2.2478,-1.739,0.0,0.0,0.0,0.0,0.0,0.0,0.0,0.0,0.0,0.0,0.0,0.0,0.0,0.0,0.0,0.0,0.0,0.0,-2.0233,-1.9873,-1.9412,-1.932,-1.9204,-1.9045,-1.8868,-1.8789,-1.8789,0.0,0.0,0.0,0.0,0.0,0.0,0.0,0.0,0.0,0.0,0.0,-2.1618,0.0,-2.2178,-2.2703,-2.3852,-2.4599,-2.5194,-2.7299,-2.89,-3.0002,-2.9741,0.0,-2.9961,-2.9744,-2.8809,0.0,0.0,0.0,0.0,0.0,0.0,0.0,0.0,0.0,-2.5182,0.0,0.0,0.0,0.0,0.0,0.0,0.0,0.0,0.0,0.0,0.0,0.0,0.0,0.0,0.0,0.0,0.0,0.0,0.0,0.0,-1.9659,-1.9304,-1.9312,-1.9536,-1.9868,-1.9745,-2.0092,-2.0896,-2.0699,-2.0754,-2.1094,-2.1345,-2.136,-2.1175,-2.1624,-2.1765,-2.1525,-2.1078,-2.0816,-2.0646,-2.0162,-2.01,-2.036,-2.0839,-2.1368,-2.1991,-2.2255,-2.26,-2.3001,-2.2767,-2.2392,-2.1939,-1.6937,-1.7467,0.0,0.0,0.0,0.0,0.0,0.0,0.0,0.0,0.0,0.0,0.0,0.0,0.0,0.0,0.0,0.0,-2.4941,0.0,-1.9146,-1.865,-1.8339,-1.7844,-1.7049,-1.6968,-1.6968,-1.6968,0.0,0.0,0.0,0.0,0.0,0.0,-1.6748,0.0,0.0,0.0,-1.998,0.0,-2.112,-2.1543,0.0,-2.3434,-2.4306,-2.5033,-2.7066,-2.7989,-2.8213,0.0,-2.89,-2.8859,0.0,-2.8319,-2.7273,0.0,0.0,0.0,0.0,0.0,0.0,0.0,-2.5875,0.0,0.0,0.0,0.0,0.0,0.0,0.0,0.0,0.0,0.0,0.0,0.0,0.0,0.0,0.0,0.0,0.0,0.0,0.0,0.0,0.0,0.0,-1.8578,-1.8755,-1.8926,-1.8942,-1.9718,-2.0018,-1.9765,-2.0278,-2.0488,-2.0296,-2.0053,-1.9772,-1.9507,-1.9931,-2.0029,-1.9695,-2.0072,-2.014,-2.002,-2.0186,-2.0264,-2.036,-2.0839,-2.1368,-2.2024,-2.2455,-2.2809,-2.2916,-2.1907,-2.1517,-2.1288,-1.655,-1.7229,0.0,0.0,0.0,0.0,0.0,0.0,0.0,0.0,0.0,0.0,0.0,0.0,0.0,0.0,0.0,-2.3645,0.0,0.0,0.0,-1.8199,-1.7851,-1.7419,-1.6924,-1.673,-1.6529,-1.6327,-1.6327,0.0,0.0,0.0,0.0,0.0,-1.5881,0.0,-1.7877,0.0,0.0,0.0,0.0,0.0,0.0,-2.2563,-2.3449,-2.4203,-2.5834,-2.689,-2.7484,0.0,-2.8608,0.0,0.0,0.0,0.0,0.0,0.0,0.0,0.0,0.0,0.0,0.0,0.0,0.0,-2.3846,0.0,-2.3095,0.0,0.0,0.0,0.0,0.0,0.0,0.0,0.0,0.0,0.0,0.0,0.0,0.0,0.0,0.0,0.0,0.0,0.0,0.0,0.0,-1.8684,-1.9021,-1.9565,-1.9839,-1.9793,-1.9887,-1.9968,-1.9969,-1.9813,-1.9525,-1.9117,-1.9655,-1.9676,-1.9372,-2.0062,-2.0355,-2.032,-2.0589,-2.0881,-2.1137,-2.0979,-2.1251,-2.1902,-2.1714,-2.2014,-2.2327,-2.1278,-2.0663,-2.0207,-1.5942,0.0,0.0,0.0,0.0,0.0,0.0,0.0,0.0,0.0,0.0,0.0,-2.64,-2.618,0.0,0.0,-2.5479,-2.3925,0.0,0.0,-1.9338,0.0,0.0,0.0,-1.7007,-1.6855,-1.6705,-1.6362,0.0,0.0,0.0,0.0,0.0,0.0,0.0,-1.6575,-1.772,0.0,0.0,-2.0851,-2.0661,-2.0502,-2.0497,-2.168,-2.2604,-2.3497,-2.4533,-2.546,-2.6399,-2.6779,-2.7678,0.0,-2.7248,0.0,0.0,0.0,0.0,0.0,-2.5765,0.0,0.0,0.0,0.0,0.0,0.0,0.0,0.0,0.0,0.0,0.0,0.0,0.0,0.0,0.0,0.0,0.0,0.0,0.0,0.0,0.0,0.0,0.0,0.0,0.0,0.0,0.0,-1.7815,-1.8216,-1.8873,-1.9134,-1.9345,-1.961,-1.9471,-1.9435,-1.9688,-1.9616,-1.9419,-1.9021,-1.9575,-1.9682,-1.932,-2.009,-2.0528,-2.0622,-2.0957,-2.1357,-2.1773,-2.1248,-2.1422,-2.1797,-2.1021,-2.1098,-2.1482,-2.044,-1.9816,-1.9353,-1.5016,-1.6576,0.0,0.0,0.0,0.0,0.0,0.0,0.0,0.0,0.0,0.0,0.0,0.0,0.0,0.0,0.0,-2.3451,-2.4005,0.0,-1.8698,0.0,0.0,-1.7333,0.0,-1.7318,-1.731,-1.6969,0.0,0.0,0.0,0.0,0.0,0.0,0.0,-1.7092,-1.8017,-1.8533,-1.9231,-1.9971,-2.0381,-2.0293,-2.0062,0.0,-2.2103,-2.3032,-2.3169,0.0,0.0,-2.521,-2.5796,0.0,0.0,0.0,0.0,0.0,0.0,0.0,0.0,0.0,0.0,-2.3961,0.0,0.0,0.0,0.0,-2.0867,0.0,0.0,0.0,0.0,0.0,0.0,-1.9002,0.0,0.0,0.0,0.0,0.0,0.0,0.0,0.0,0.0,0.0,0.0,-1.6337,-1.6516,-1.7117,-1.8289,-1.8319,-1.8583,-1.903,-1.9002,-1.9102,-1.9274,-1.9344,-1.917,-1.8883,-1.9466,-1.9565,-1.9299,-1.9878,-2.0291,-2.0622,-2.1096,-2.1571,-2.194,-2.1816,-2.1873,-2.1949,-2.0702,-2.0245,-2.0157,-1.9362,-1.9036,-1.8798,0.0,0.0,0.0,0.0,0.0,0.0,0.0,-2.2505,0.0,0.0,0.0,0.0,0.0,0.0,-2.5486,0.0,0.0,-2.3795,-2.2553,-2.1116,0.0,0.0,0.0,-1.8589,0.0,0.0,0.0,0.0,0.0,0.0,0.0,0.0,0.0,0.0,0.0,-1.6801,0.0,0.0,0.0,0.0,0.0,-1.9655,-1.9912,0.0,0.0,-2.1053,-2.1943,-2.2783,0.0,-2.3782,-2.4556,-2.5261,-2.4343,-2.429,-2.4481,-2.3523,-2.3339,0.0,0.0,0.0,-2.2981,-2.3206,0.0,0.0,0.0,0.0,0.0,0.0,0.0,0.0,0.0,0.0,-1.9149,-1.7768,-1.8028,0.0,0.0,0.0,0.0,0.0,0.0,0.0,0.0,0.0,0.0,-1.4857,-1.4917,-1.5618,0.0,-1.7494,-1.7857,-1.8254,-1.8501,-1.877,-1.8907,-1.8907,-1.8718,-1.8406,-1.8615,-1.8795,-1.8798,-1.9902,-2.0695,-2.1246,-2.1532,-2.1808,-2.203,-2.1115,-2.0789,-2.0779,-1.9932,-1.9618,-1.9539,-1.8993,-1.8594,-1.8184,-1.5504,0.0,0.0,0.0,0.0,0.0,0.0,0.0,0.0,0.0,-2.3913,0.0,-2.5506,0.0,-2.4641,0.0,-2.4537,-2.3716,-2.1684,-2.142,0.0,-1.9983,-1.9642,0.0,0.0,0.0,0.0,0.0,0.0,-1.636,0.0,0.0,0.0,0.0,0.0,0.0,0.0,0.0,-1.9382,0.0,0.0,-1.9454,0.0,0.0,-2.001,-2.0232,0.0,-2.1741,-2.2471,-2.255,-2.3345,-2.4111,-2.3011,-2.3086,-2.3303,-2.2391,-2.207,-2.213,-2.2672,-2.2008,0.0,-2.2026,-2.152,0.0,-2.0617,0.0,0.0,0.0,0.0,0.0,0.0,0.0,0.0,-1.6697,-1.7012,-1.6885,0.0,-1.3444,0.0,0.0,0.0,0.0,0.0,0.0,-1.208,-1.3128,-1.3328,-1.4119,0.0,0.0,-1.7104,-1.7877,-1.8195,-1.8547,-1.8916,-1.8779,-1.8513,-1.8119,-1.8256,-1.824,-1.8259,-1.932,-2.0107,-2.0716,-2.0814,-2.1092,-2.1236,-2.0249,-1.9783,-1.9717,-1.9112,-1.8884,-1.8873,-1.8559,-1.804,-1.7383,0.0,0.0,0.0,0.0,-1.7072,0.0,0.0,0.0,-2.2315,0.0,-2.2577,-2.2998,-2.3747,-2.2856,-2.2513,-2.3084,-2.3384,0.0,-2.1803,-2.1683,0.0,0.0,-1.955,-1.906,-1.8386,0.0,0.0,0.0,0.0,0.0,0.0,0.0,0.0,0.0,-1.7269,0.0,-1.712,-1.9247,-1.985,-1.9336,-1.9478,-1.9715,-1.9941,-1.9902,0.0,-2.0508,-2.0098,-2.0498,-2.1242,-2.1624,-2.2132,-2.2534,-2.2158,-2.1837,-2.1441,-2.0771,-2.0273,-2.0055,-2.0462,-2.0585,-2.0604,-2.0523,0.0,0.0,0.0,0.0,-1.8674,0.0,0.0,0.0,0.0,0.0,0.0,-1.5856,-1.5435,-1.462,0.0,0.0,0.0,0.0,0.0,0.0,0.0,-1.0511,-1.0823,-1.1408,-1.1928,0.0,0.0,0.0,-1.6333,-1.776,-1.7958,-1.8455,-1.921,-1.8843,-1.8467,-1.8091,-1.8156,-1.8021,-1.7706,-1.8269,-1.8771,-1.9173,-1.9203,-1.9465,-1.9867,-1.9268,-1.8966,-1.8893,-1.8332,-1.8046,-1.7951,-1.7949,-1.7448,-1.664,-1.5617,-1.5779,-1.6175,0.0,-1.7884,-1.8789,0.0,0.0,0.0,0.0,-2.2553,-2.2681,-2.3873,-2.3716,-2.3559,-2.3479,-2.3598,0.0,0.0,0.0,0.0,-2.1233,-2.0889,-2.0296,-1.9403,-1.8994,0.0,-1.7691,0.0,0.0,-1.6477,0.0,0.0,0.0,0.0,0.0,-1.5886,-1.7795,-1.901,-1.9573,-1.9412,-1.9822,0.0,0.0,-1.9912,-2.0547,-2.0439,-2.0762,-2.1162,-2.0937,-2.1076,-2.1289,-2.0859,-2.0566,-2.032,-2.0182,-2.0254,-2.0353,-1.9961,-2.0035,-2.018,-1.9667,-1.9287,-1.8968,0.0,0.0,0.0,0.0,0.0,0.0,0.0,0.0,0.0,0.0,0.0,0.0,0.0,0.0,0.0,0.0,0.0,0.0,-0.9842,-0.9868,-1.0186,-1.0919,-1.1336,0.0,0.0,0.0,0.0,-1.6353,-1.7186,-1.7773,-1.7963,-1.7862,-1.7834,-1.7886,-1.7459,-1.7486,-1.794,-1.8251,-1.8725,-1.9193,-1.9088,-1.916,-1.9195,-1.8627,-1.8332,-1.8341,-1.8193,-1.749,-1.6613,-1.6996,-1.7233,-1.6993,-1.5972,0.0,0.0,-1.662,0.0,0.0,-1.9092,0.0,0.0,-2.1427,-2.1802,0.0,-2.2996,-2.2892,-2.2673,-2.2497,-2.2483,0.0,-2.1589,0.0,0.0,-2.1511,-2.1035,-2.0464,-1.9777,-1.8986,0.0,-1.7816,0.0,0.0,-1.636,0.0,0.0,0.0,0.0,-1.5724,0.0,-1.6563,-1.7761,-1.8632,-1.8875,0.0,0.0,-1.9878,-2.0146,-2.0566,-2.0566,-2.0732,-2.0908,-2.0654,-2.0701,-2.0861,-2.0541,-2.0216,-1.9977,-1.9906,-1.9864,-1.9668,-1.9336,-1.9244,-1.9156,-1.874,-1.8237,-1.7838,-1.7408,-1.6767,-1.6095,0.0,0.0,0.0,0.0,0.0,0.0,0.0,0.0,0.0,0.0,0.0,0.0,0.0,-0.9903,0.0,-0.9817,-0.9543,-0.9607,-1.0074,0.0,0.0,0.0,0.0,0.0,-1.5876,-1.643,-1.6944,-1.7405,-1.7011,-1.6996,-1.7279,-1.682,-1.6899,-1.7539,-1.7697,-1.7932,-1.822,-1.81,-1.8071,-1.8071,-1.7731,-1.7587,-1.7533,-1.7414,-1.657,-1.5527,-1.5666,-1.5803,-1.572,0.0,0.0,0.0,0.0,0.0,0.0,0.0,-1.8039,0.0,-1.9285,0.0,-2.1215,-2.1306,-2.1033,-2.0862,-2.0823,0.0,-2.0645,-2.0219,-2.1271,-2.1727,-2.1242,-2.0558,-2.0019,-1.9769,-1.876,-1.8079,0.0,0.0,0.0,0.0,0.0,0.0,0.0,0.0,0.0,0.0,-1.5732,-1.6517,0.0,-1.808,-1.8762,-1.9371,-2.011,-2.044,-2.0566,-2.0566,-2.0566,-2.0566,-2.0566,-2.0672,-2.0751,-2.0571,-2.0329,-2.0086,-1.9852,-1.9362,-1.8772,-1.8612,-1.829,-1.7951,-1.7708,-1.7294,-1.6788,-1.6624,-1.5884,-1.4894,-1.3822,-1.3215,-1.254,0.0,0.0,0.0,0.0,0.0,0.0,0.0,0.0,0.0,0.0,0.0,0.0,0.0,-0.9589,-0.9204,0.0,0.0,0.0,0.0,0.0,0.0,-1.5755,-1.5605,0.0,-1.6992,0.0,-1.598,-1.6538,-1.6236,-1.6342,-1.676,-1.6908,-1.6899,-1.6908,-1.6908,-1.6908,-1.6908,-1.6908,-1.6839,-1.6727,-1.6275,-1.5512,-1.4626,-1.4186,-1.3834,-1.3443,0.0,0.0,0.0,0.0,0.0,-1.4412,-1.5704,-1.6032,-1.6419,-1.7101,-1.8031,-1.8879,-1.9468,-1.9664,-1.9665,-1.9437,-1.9358,0.0,0.0,0.0,0.0,-2.1525,-2.0537,-1.9804,-1.9777,-1.8347,-1.7462,0.0,-1.6521,-1.6052,-1.5979,0.0,0.0,0.0,0.0,0.0,-1.4762,-1.5257,0.0,-1.7133,-1.7386,-1.8206,-1.9265,-1.9158,-1.9706,-2.0566,-2.0566,-2.0566,-2.0566,-2.0566,-2.0547,-2.038,-2.0134,-1.9897,-1.9669,-1.9491,-1.9277,-1.9073,-1.8362,-1.804,-1.7708,-1.6394,-1.5982,-1.5643,-1.4566,-1.4153,-1.3887,-1.3343,-1.2689,-1.2169,-1.2212,0.0,0.0,0.0,0.0,0.0,0.0,0.0,0.0,0.0,0.0,0.0,0.0,0.0,0.0,0.0,0.0,0.0,0.0,0.0,0.0,0.0,0.0,0.0,0.0,0.0,-1.5049,-1.5569,-1.5862,-1.6053,-1.6184,-1.6821,-1.7038,-1.6908,-1.6908,-1.6908,-1.6908,-1.6908,-1.6542,-1.5912,-1.5405,-1.4336,-1.3169,-1.2587,-1.2032,-1.1621,0.0,0.0,0.0,0.0,0.0,0.0,0.0,-1.3876,0.0,-1.6199,-1.6814,-1.7281,-1.7653,-1.7618,-1.7568,-1.7318,-1.7273,-1.744,-1.757,-1.8662,-1.9374,-1.965,-1.9507,0.0,-1.8314,-1.6769,-1.5886,-1.5399,-1.494,-1.4778,-1.4829,0.0,0.0,0.0,0.0,-1.3743,0.0,0.0,0.0,-1.5689,-1.6062,-1.6826,-1.7759,-1.8529,-1.9254,-2.001,-2.0411,-2.0566,-2.0489,-2.0566,-2.0566,-2.0411,-2.0177,-1.9951,-1.9668,-1.9288,-1.8912,-1.8476,-1.7414,-1.7104,-1.6766,-1.5642,-1.5105,-1.4727,-1.4062,-1.3555,-1.3089,-1.2614,-1.2279,-1.1969,-1.1832,-1.1826,0.0,0.0,0.0,0.0,0.0,0.0,0.0,0.0,0.0,0.0,0.0,0.0,0.0,0.0,0.0,0.0,0.0,0.0,0.0,0.0,0.0,0.0,0.0,0.0,0.0,-1.4754,-1.4856,-1.4974,-1.5321,-1.5675,-1.6035,-1.6333,-1.6333,-1.6659,-1.7211,-1.6777,-1.5973,-1.4936,-1.4464,-1.3623,-1.2567,-1.2129,-1.1727,-1.1329,0.0,-1.3884,0.0,0.0,-1.2666,0.0,0.0,-1.2467,-1.3453,-1.5216,-1.5632,-1.5868,-1.599,-1.5575,-1.5421,-1.5243,-1.5184,-1.5117,-1.5217,-1.6828,-1.7781,-1.7875,-1.7987,-1.7508,-1.6504,-1.512,-1.4145,0.0,-1.3465,-1.3446,0.0,0.0,0.0,0.0,0.0,0.0,0.0,0.0,-1.4089,-1.4321,-1.4854,-1.549,-1.6245,-1.7579,-1.8395,-1.8966,-1.9678,-1.9844,-1.9687,-1.9844,-2.0167,-2.0489,-2.0098,-1.9854,-1.9455,-1.8729,-1.8148,-1.745,-1.6376,-1.602,-1.5684,-1.4896,-1.4349,-1.3971,-1.3871,-1.3296,-1.2723,-1.2345,-1.2272,-1.21,-1.1757,-1.177,0.0,0.0,0.0,0.0,0.0,0.0,0.0,0.0,0.0,0.0,0.0,0.0,0.0,0.0,0.0,0.0,0.0,0.0,0.0,0.0,0.0,-1.3202,-1.387,0.0,-1.336,0.0,-1.3844,-1.397,-1.4386,-1.4609,-1.4966,-1.5551,-1.5627,-1.616,-1.7025,-1.643,-1.5394,-1.4094,-1.3762,-1.314,-1.2338,-1.2043,-1.1771,-1.154,0.0,0.0,0.0,0.0,0.0,0.0,0.0,-1.2389,-1.2951,-1.3552,-1.3674,-1.38,-1.4047,-1.3949,-1.3868,-1.385,-1.33,-1.3969,-1.6062,-1.5001,-1.5242,-1.7647,-1.5975,-1.4928,-1.4873,-1.3987,-1.3278,0.0,0.0,-1.2319,-1.2186,-1.2582,0.0,0.0,0.0,0.0,0.0,-1.3669,-1.4205,-1.4166,-1.3921,-1.4687,-1.592,-1.5848,-1.6521,-1.7496,-1.7819,-1.7819,-1.7585,-1.7577,-1.8798,-2.0186,-1.9362,-1.8966,-1.8488,-1.7167,-1.6665,-1.6268,-1.5529,-1.5304,-1.5017,-1.393,-1.3564,-1.3493,-1.3205,-1.3023,-1.301,-1.3256,-1.3137,-1.2966,-1.2966,-1.2772,-1.2589,0.0,0.0,0.0,0.0,0.0,0.0,0.0,0.0,0.0,0.0,0.0,0.0,0.0,0.0,0.0,0.0,0.0,0.0,-1.1614,0.0,-1.2546,-1.2891,-1.2553,0.0,-1.2968,-1.3469,-1.3673,-1.36,-1.4466,-1.4824,-1.476,-1.5016,-1.5351,-1.5671,-1.538,-1.4772,-1.3995,-1.357,-1.2956,-1.2196,-1.2013,-1.1715,-1.1564,0.0,0.0,0.0,0.0,0.0,0.0,0.0,-1.2294,-1.2637,-1.2793,-1.2967,-1.3058,-1.3068,-1.2992,-1.2863,-1.2641,-1.2329,-1.2869,-1.4326,-1.4458,-1.4738,-1.5464,-1.5331,-1.4489,-1.2874,-1.2216,-1.1406,0.0,0.0,-1.1014,-1.0799,-1.1634,0.0,0.0,0.0,-1.1677,-1.1537,-1.1896,-1.2302,-1.2738,-1.2599,-1.3369,-1.469,-1.5095,-1.5779,-1.6609,-1.7253,-1.7334,-1.7163,-1.7253,-1.7827,-1.8479,-1.8069,-1.7746,-1.7262,-1.6436,-1.5952,-1.5415,-1.4463,-1.4291,-1.4204,-1.3299,-1.3138,-1.3114,-1.3166,-1.3067,-1.3061,-1.3334,-1.3222,-1.3137,-1.3137,-1.2875,-1.2705,0.0,0.0,0.0,0.0,0.0,0.0,0.0,0.0,0.0,0.0,0.0,0.0,0.0,0.0,0.0,0.0,0.0,0.0,-1.1703,0.0,-1.2788,-1.3019,-1.3047,-1.3135,-1.328,-1.3175,-1.3159,-1.3084,-1.3257,-1.3638,-1.4215,-1.5294,-1.5373,-1.4865,-1.4865,-1.4236,-1.3192,-1.2855,-1.2493,-1.2219,-1.198,-1.1956,-1.1992,-1.1142,0.0,-1.0334,0.0,-1.0899,-1.1237,-1.1549,-1.1992,-1.2314,-1.2194,-1.2395,-1.2633,-1.2503,-1.2438,-1.2284,-1.1979,-1.1797,-1.2065,-1.2961,-1.3487,-1.3654,-1.3521,-1.3884,0.0,-1.1102,-1.0815,-1.0136,-0.9096,-0.9779,0.0,-0.9425,0.0,0.0,0.0,-1.0773,-1.0667,-1.0502,-1.0885,-1.1283,-1.1682,-1.1947,-1.2732,-1.3824,-1.4531,-1.5072,-1.5553,-1.6198,-1.6363,-1.6175,-1.6164,-1.6215,-1.6296,-1.6701,-1.6453,-1.5944,-1.5296,-1.4804,-1.4328,-1.3404,-1.3255,-1.3276,-1.2763,-1.2702,-1.2805,-1.3185,-1.3189,-1.313,-1.3497,-1.3398,-1.3222,-1.3222,-1.2875,-1.2619,-1.2357,0.0,0.0,0.0,0.0,0.0,0.0,-1.1864,-1.2017,-1.1996,0.0,0.0,0.0,0.0,0.0,0.0,0.0,0.0,0.0,0.0,0.0,0.0,-1.3358,-1.3459,-1.3507,-1.2993,-1.2822,-1.2815,-1.2543,-1.2919,-1.3853,-1.4948,-1.4943,-1.4207,-1.4283,-1.3738,-1.2754,-1.2474,-1.2346,-1.2403,-1.2222,-1.2092,-1.201,-1.0237,-1.0435,-1.0603,-1.0763,-1.1065,-1.1229,-1.1072,-1.1564,-1.1802,-1.1802,-1.2059,-1.2312,-1.2312,-1.2146,-1.1967,-1.1797,-1.161,-1.1811,-1.266,-1.1638,-1.136,0.0,0.0,-1.0262,-0.9892,-0.988,-0.962,-0.9096,0.0,0.0,-0.8377,0.0,-0.9719,-0.9728,-1.0787,-1.0547,-0.9318,-1.1238,-1.1815,-1.1509,-1.2536,-1.3222,-1.3529,-1.3911,-1.4062,-1.4166,-1.4398,-1.4321,-1.4041,-1.3748,-1.3647,-1.3886,-1.524,-1.523,-1.4587,-1.3446,-1.2981,-1.2755,-1.2385,-1.2305,-1.2305,-1.2305,-1.2311,-1.2472,-1.308,-1.322,-1.338,-1.3968,-1.3743,-1.3398,-1.3398,-1.3045,-1.2363,-1.1494,0.0,0.0,0.0,0.0,0.0,0.0,-1.2724,-1.2693,-1.2171,0.0,0.0,0.0,0.0,0.0,0.0,0.0,0.0,-1.199,-1.251,0.0,-1.3206,-1.3213,-1.3213,-1.3213,-1.2899,-1.2822,-1.2835,-1.2818,-1.302,-1.3392,-1.3671,-1.3798,-1.3798,-1.3617,-1.3374,-1.3045,-1.2784,-1.2699,-1.2699,-1.2693,-1.2117,-1.1289,-0.9687,-0.9768,-0.9884,-1.0141,-1.0304,-1.0447,-1.0497,-1.1012,-1.1328,-1.1087,-1.1545,-1.1653,-1.1417,-1.1696,-1.1784,0.0,-1.1196,-1.1342,0.0,-1.1935,-1.1668,-1.1811,-1.1392,-1.076,-0.9713,-0.9709,-0.9563,-0.9275,0.0,0.0,0.0,-0.8822,-0.8837,-0.8798,-0.911,-0.891,-0.85,-0.971,-1.0514,-1.0942,-1.1897,-1.2823,-1.3588,-1.3682,-1.3904,-1.4062,-1.3931,-1.3781,-1.3741,-1.3447,-1.3206,-1.3104,-1.3564,-1.3572,-1.3397,-1.3002,-1.2674,-1.2425,-1.2325,-1.2305,-1.2305,-1.2305,-1.2452,-1.2712,-1.312,-1.352,-1.3861,-1.4048,-1.3743,-1.3398,-1.3398,-1.3052,-1.2619,-1.2272,-1.1397,0.0,0.0,0.0,0.0,0.0,-1.0643,-1.0444,0.0,-0.9999,0.0,0.0,0.0,0.0,0.0,0.0,0.0,0.0,-1.2536,0.0,-1.3507,-1.3707,-1.3808,-1.3808,-1.3707,-1.3579,-1.3402,-1.3059,-1.3131,-1.3398,-1.3487,-1.3439,-1.3354,-1.3268,-1.3047,-1.279,-1.2705,-1.2705,-1.2619,-1.2357,-1.2003,-1.1696,-0.9266,-0.9296,-0.9371,-0.9612,-0.9748,-0.9996,-0.9968,-1.0476,-1.0786,-1.0683,-1.0951,-1.1023,-1.0814,-1.1008,0.0,-1.1212,-1.0887,-1.0958,-1.1558,-1.1426,-1.12,-1.1006,-1.0997,-1.0506,-0.9632,0.0,0.0,-0.9259,-0.8946,-0.8682,-0.8463,-0.8463,-0.8402,-0.8292,-0.87,-0.8793,-0.8687,-0.9831,-1.0606,-1.1163,-1.1952,-1.2724,-1.3494,-1.3601,-1.3687,-1.3748,-1.3667,-1.3574,-1.3434,-1.3133,-1.2906,-1.2802,-1.2612,-1.2579,-1.2579,-1.2579,-1.2445,-1.2305,-1.2305,-1.2305,-1.2305,-1.2305,-1.2525,-1.2936,-1.328,-1.3572,-1.3864,-1.3893,-1.3568,-1.3313,-1.3313,-1.2966,-1.2613,-1.2272,-1.123,-1.0504,-1.0691,0.0,0.0,0.0,0.0,0.0,0.0,-0.9109,0.0,0.0,0.0,0.0,0.0,0.0,0.0,-1.1263,-1.2158,0.0,-1.3635,-1.382,-1.3913,-1.3828,-1.3717,-1.358,-1.3316,-1.3079,-1.3121,-1.3305,-1.3405,-1.3306,-1.3127,-1.3127,-1.2973,-1.2705,-1.2705,-1.2619,-1.2363,-1.21,-1.1696,-1.1283,-0.9123,-0.9147,0.0,0.0,-0.949,0.0,-0.9591,-0.9943,-1.0272,-1.0272,-1.039,-1.0535,-1.0521,-1.023,-1.0189,-1.0562,0.0,0.0,0.0,-1.0132,-1.0046,-0.9876,-0.9868,-0.9791,-0.9632,-0.9628,-0.9453,-0.9096,-0.858,-0.8321,-0.8308,-0.8296,-0.8284,-0.8361,-0.9388,-0.9786,-0.974,-1.119,-1.1908,-1.2043,-1.2576,-1.2953,-1.324,-1.3507,-1.3447,-1.324,-1.3494,-1.3407,-1.3133,-1.2896,-1.2795,-1.2741,-1.2392,-1.2305,-1.2305,-1.2305,-1.2305,-1.2305,-1.2305,-1.2305,-1.2305,-1.2305,-1.2525,-1.2906,-1.3426,-1.3395,-1.3391,-1.3594,-1.3398,-1.3058,-1.3052,-1.2778,-1.2248,-1.13,-1.1112,-1.0771,-0.9803,0.0,0.0,0.0,0.0,0.0,0.0,-0.8638,-0.8015,0.0,0.0,0.0,0.0,0.0,-1.0075,-1.1209,-1.1453,-1.2284,-1.3561,-1.3691,-1.3625,-1.3449,-1.3175,-1.2883,-1.2736,-1.2886,-1.3046,-1.3139,-1.3363,-1.332,-1.3097,-1.3097,-1.294,-1.2619,-1.2619,-1.2357,-1.1929,-1.1929,-1.1187,-1.0338,0.0,0.0,-0.9072,-0.9334,-0.9313,-0.93,-0.9418,-0.958,-0.9604,-0.9604,-0.9923,-0.9968,-0.9842,-0.9883,-0.9866,-0.9682,-0.9867,-0.9878,-0.9658,-0.9726,-0.9734,-0.9689,-0.9689,-0.9669,-0.9628,-0.9628,-0.9453,-0.9096,-0.8828,-0.8629,-0.8499,-0.8357,-0.8215,-0.8081,-0.8949,-0.9269,-0.9317,-1.1044,-1.1834,-1.1908,-1.2805,-1.3146,-1.322,-1.3287,-1.3273,-1.3186,-1.3019,-1.2913,-1.2889,-1.2512,-1.2405,-1.2392,-1.2325,-1.2305,-1.2305,-1.2305,-1.2305,-1.2305,-1.2305,-1.2305,-1.2305,-1.2305,-1.2525,-1.2899,-1.3257,-1.3313,-1.3309,-1.3425,-1.3307,-1.2881,-1.2192,-1.177,-1.1131,-1.0209,-0.9405,-0.9036,-0.9476,-0.8235,0.0,0.0,-0.7863,-0.7383,-0.7174,-0.7115,-0.7026,0.0,0.0,0.0,0.0,-0.7314,-0.8173,-0.9298,-1.1021,-1.2146,-1.2363,-1.3561,-1.404,-1.4021,-1.3567,-1.3467,-1.3585,-1.3267,-1.3061,-1.3115,-1.2964,-1.2862,-1.2801,-1.2801,-1.2593,-1.2186,-1.2186,-1.1843,-1.1413,-1.1068,-1.0773,-1.0474,-0.9025,-0.8991,-0.8991,-0.915,-0.9164,-0.9181,-0.9262,-0.9337,-0.9381,-0.9381,-0.9551,-0.9585,-0.9387,-0.9404,-0.928,-0.8927,-0.9257,-0.9347,-0.9172,-0.9176,-0.9327,-0.943,-0.943,-0.943,-0.9628,-0.9628,-0.9453,-0.9096,-0.8832,-0.8613,-0.8438,-0.8337,-0.8359,-0.8587,-0.9577,-1.0151,-1.0349,-1.1443,-1.2074,-1.246,-1.2279,-1.2563,-1.2999,-1.2999,-1.2913,-1.2792,-1.2835,-1.2735,-1.2518,-1.2358,-1.2305,-1.2305,-1.2305,-1.2305,-1.2305,-1.2157,-1.2157,-1.2157,-1.2157,-1.2077,-1.2042,-1.2185,-1.23,-1.2426,-1.3069,-1.2964,-1.2908,-1.3231,-1.2711,-1.21,-1.1585,-1.0958,-1.0297,-0.9798,-0.8792,-0.8225,-0.8702,-0.748,0.0,-0.7413,-0.7026,-0.6695,-0.6681,-0.6756,-0.6742,-0.6586,0.0,0.0,-0.6803,-0.7017,-0.7592,-0.87,-0.9934,-1.0805,-1.1303,-1.2009,-1.2591,-1.3117,-1.2686,-1.282,-1.3322,-1.3088,-1.2934,-1.2922,-1.2771,-1.2613,-1.2357,-1.2357,-1.21,-1.1671,-1.1671,-1.1408,-1.0982,-1.0722,-1.0463,-1.0294,-0.8769,-0.8813,-0.8826,-0.8937,-0.9039,-0.912,-0.912,-0.9232,-0.9313,-0.9313,-0.9201,-0.9113,-0.9089,-0.8842,-0.8615,-0.8462,-0.8724,-0.8881,-0.8733,-0.8825,-0.8928,-0.9133,-0.9133,-0.9232,-0.943,-0.9477,-0.93,-0.9003,-0.8621,-0.8446,-0.8203,-0.8235,-0.8538,-0.9194,-1.0234,-1.0935,-1.155,-1.1623,-1.2103,-1.2628,-1.1526,-1.1696,-1.2527,-1.2679,-1.2518,-1.2338,-1.2585,-1.2518,-1.2305,-1.2305,-1.2305,-1.2305,-1.2305,-1.2305,-1.2224,-1.1922,-1.1781,-1.1706,-1.1781,-1.1626,-1.1614,-1.1866,-1.1853,-1.1898,-1.2494,-1.2357,-1.2201,-1.2517,-1.1837,-1.1063,-1.089,-1.0079,-0.9424,-0.9288,-0.8491,-0.7801,-0.768,0.0,-0.6529,-0.6681,-0.6722,-0.6787,-0.6915,-0.6929,-0.6875,-0.6746,-0.6854,-0.6949,0.0,-0.7088,-0.7526,-0.8439,-0.8641,-0.9367,-1.0605,-1.0329,-1.0776,-1.1947,-1.1625,-1.1933,-1.2771,-1.2807,-1.2783,-1.2619,-1.2619,-1.2357,-1.1929,-1.1929,-1.1585,-1.1149,-1.1149,-1.0895,-1.0549,-1.0549,-1.0294,-0.9956,-0.831,-0.8517,-0.8598,-0.8826,-0.8957,-0.8974,-0.8974,-0.8991,-0.9008,-0.9008,-0.8988,-0.8923,-0.8794,-0.8621,-0.8459,-0.8316,-0.8264,-0.8261,-0.8432,-0.8627,-0.8825,-0.8825,-0.8825,-0.8928,-0.8924,-0.8653,-0.8483,-0.843,-0.8143,-0.7979,-0.7944,-0.7902,-0.8298,-0.9044,-0.9062,-0.9509,-1.0236,-1.0231,-1.0312,-1.0458,-1.0917,-1.121,-1.1471,-1.2142,-1.2345,-1.2311,-1.2351,-1.2345,-1.2305,-1.2305,-1.2305,-1.2305,-1.2305,-1.215,-1.1929,-1.1168,-1.0726,-1.0513,-1.072,-1.0714,-1.0726,-1.0767,-1.1386,-1.1862,-1.1312,-1.1286,-1.116,-1.0565,-1.0269,-0.984,-0.9065,-0.8603,-0.8093,-0.741,-0.6912,-0.6595,-0.6697,0.0,-0.6529,-0.6681,-0.6814,-0.6902,-0.6926,-0.6929,-0.6919,-0.6895,-0.6915,-0.7037,-0.7288,-0.72,-0.719,-0.7299,-0.8332,-0.9588,-1.0942,-1.0234,-1.0686,-1.2269,-1.2027,-1.2355,-1.3067,-1.329,-1.2868,-1.21,-1.21,-1.1843,-1.1413,-1.1413,-1.1154,-1.0722,-1.0722,-1.0463,-1.0125,-1.0125,-0.9951,-0.9717,-0.8047,-0.8172,-0.8377,-0.8602,-0.8712,-0.8712,-0.8826,-0.894,-0.891,-0.8825,-0.8815,-0.8757,-0.8604,-0.8455,-0.834,-0.8275,-0.813,-0.8038,-0.8137,-0.8333,-0.8432,-0.8531,-0.8627,-0.8587,-0.8702,-0.8463,-0.8296,-0.821,-0.7891,-0.7731,-0.7644,-0.7631,-0.8007,-0.8676,-0.8855,-0.9259,-0.99,-0.9576,-0.9632,-0.997,-1.0276,-1.0732,-1.1186,-1.2003,-1.2305,-1.2305,-1.2305,-1.2224,-1.215,-1.215,-1.2077,-1.1929,-1.1471,-1.1242,-1.1019,-1.0121,-0.9674,-0.9533,-0.9523,-0.9518,-0.9518,-0.9518,-0.9925,-1.0315,-1.0059,-1.0125,-1.0184,-0.9966,-0.9488,-0.8973,-0.8544,-0.7828,-0.7242,-0.6987,-0.6552,0.0,0.0,-0.6597,-0.6651,-0.6807,-0.7027,-0.7166,-0.7166,-0.7148,-0.7105,-0.7105,-0.7105,-0.707,-0.7111,-0.7077,-0.6973,-0.6932,-0.7578,-0.8329,-0.9144,-0.8905,-0.9647,-1.1527,-1.091,-1.1425,-1.268,-1.2468,-1.2063,-1.1585,-1.1585,-1.1322,-1.0895,-1.0895,-1.0636,-1.0294,-1.0294,-1.0125,-0.9951,-0.9864,-0.9763,-0.9678,-0.7624,-0.7774,-0.7999,-0.8436,-0.8465,-0.8598,-0.8826,-0.894,-0.8882,-0.873,-0.871,-0.8638,-0.8455,-0.8336,-0.8255,-0.8221,-0.8109,-0.8038,-0.8038,-0.8038,-0.8137,-0.8336,-0.8333,-0.8379,-0.8455,-0.8255,-0.8095,-0.7978,-0.7698,-0.7436,-0.7278,-0.735,-0.7721,-0.8313,-0.8549,-0.8918,-0.9453,-0.8859,-0.8836,-0.921,-0.9442,-0.982,-1.0501,-1.1329,-1.17,-1.1848,-1.1848,-1.1774,-1.1626,-1.1626,-1.1403,-1.1025,-1.0415,-1.019,-0.997,-0.8993,-0.8579,-0.8372,-0.8178,-0.8277,-0.8462,-0.8462,-0.8719,-0.902,-0.9014,-0.9122,-0.9222,-0.9287,-0.8711,-0.8193,-0.8193,-0.7354,-0.6803,-0.6953,0.0,0.0,0.0,-0.6834,-0.6902,-0.693,-0.7145,-0.7295,-0.7237,-0.7121,-0.7085,-0.7117,-0.712,-0.7039,-0.6887,-0.6951,-0.6923,-0.6741,-0.6932,-0.7187,-0.743,-0.7491,-0.8538,-1.0577,-0.9855,-1.0481,-1.2226,-1.1674,-1.1294,-1.1154,-1.1154,-1.0895,-1.0463,-1.0463,-1.0294,-1.0038,-1.0038,-0.9951,-0.9868,-0.9745,-0.9566,-0.92,-0.7064,-0.7261,-0.7645,-0.8189,-0.8401,-0.8598,-0.8826,-0.894,-0.8882,-0.873,-0.871,-0.8601,-0.8316,-0.8279,-0.8211,-0.8069,-0.8045,-0.8038,-0.8038,-0.8038,-0.8038,-0.8038,-0.8038,-0.8035,-0.8024,-0.7743,-0.7688,-0.7677,-0.7404,-0.7183,-0.7022,-0.7108,-0.7493,-0.808,-0.7411,-0.7484,-0.8156,-0.7411,-0.7103,-0.7165,-0.7927,-0.8232,-0.8385,-0.9221,-0.997,-1.064,-1.064,-1.064,-1.064,-1.064,-1.0121,-0.9448,-0.9372,-0.9296,-0.8922,-0.8165,-0.7282,-0.6665,-0.6528,-0.7133,-0.7795,-0.7795,-0.8625,-0.9242,-0.8421,-0.8394,-0.8348,-0.7489,-0.7228,-0.7228,-0.7228,-0.7014,-0.6959,-0.7102,0.0,0.0,-0.7085,-0.7231,-0.7238,-0.6979,-0.6998,-0.6971,-0.6813,-0.6719,-0.6703,-0.6832,-0.6841,-0.6896,-0.7024,-0.6902,-0.6735,-0.6455,-0.6649,-0.6908,-0.7046,-0.692,-0.7861,-0.9823,-0.9618,-1.0255,-1.1787,-1.1682,-1.1279,-1.0636,-1.0636,-1.0376,-1.0038,-1.0038,-1.0038,-1.0038,-1.0038,-0.9864,-0.9625,-0.9821,-0.897,-0.7723,-0.6724,-0.6967,-0.7214,-0.7618,-0.7777,-0.795,-0.8257,-0.8304,-0.8307,-0.8272,-0.8279,-0.8147,-0.815,-0.8126,-0.8102,-0.8045,-0.8038,-0.8038,-0.8038,-0.8038,-0.8038,-0.8038,-0.8038,-0.7953,-0.777,-0.7658,-0.7506,-0.7316,-0.7046,-0.684,-0.6774,-0.677,-0.6928,-0.7173,-0.7015,-0.7092,-0.7318,-0.7015,-0.6865,-0.6938,-0.7778,-0.808,-0.8156,-0.8993,-0.9523,-0.9744,-0.9744,-0.9758,-0.9699,-0.9565,-0.9311,-0.8932,-0.8354,-0.8168,-0.8051,-0.7297,-0.6891,-0.6603,-0.6549,-0.6813,-0.7097,-0.7097,-0.7514,-0.7769,-0.7435,-0.7469,-0.7492,-0.7139,-0.7139,-0.7139,-0.7139,-0.7024,-0.6973,-0.7115,0.0,-0.701,-0.7251,-0.7245,-0.7099,-0.7011,-0.7069,-0.6969,-0.6844,-0.6753,-0.6743,-0.6792,-0.6798,-0.6721,-0.6668,-0.6623,-0.6429,-0.6181,-0.6418,-0.668,-0.6849,-0.6976,-0.7986,-0.9892,-0.9214,-0.9872,-1.1455,-1.0899,-1.0539,-1.0406,-1.027,-1.0202,-1.014,-0.956,-0.9152,-0.889,-0.8982,-0.8448,-0.7661,-0.8178,-0.7685,-0.6635,-0.6562,-0.666,-0.6876,-0.7281,-0.7327,-0.749,-0.7798,-0.7843,-0.784,-0.7808,-0.7808,-0.7798,-0.7756,-0.7739,-0.7739,-0.7739,-0.7739,-0.7739,-0.7739,-0.7839,-0.7942,-0.8038,-0.8038,-0.7923,-0.7672,-0.7624,-0.7472,-0.7214,-0.6959,-0.6817,-0.6766,-0.6722,-0.6679,-0.663,-0.6785,-0.6834,-0.6783,-0.6783,-0.6758,-0.6791,-0.7322,-0.7553,-0.7633,-0.8223,-0.8553,-0.8793,-0.8859,-0.8816,-0.8745,-0.8627,-0.8416,-0.8019,-0.7305,-0.7211,-0.7228,-0.6878,-0.6773,-0.678,-0.6827,-0.6841,-0.6827,-0.6783,-0.6885,-0.6997,-0.6997,-0.7068,-0.7139,-0.7139,-0.7139,-0.7139,-0.7139,-0.7061,-0.7027,-0.7126,-0.7139,-0.7193,-0.735,-0.731,-0.7101,-0.7057,-0.7022,-0.6918,-0.6681,-0.6606,-0.6603,-0.6639,-0.6642,-0.6639,-0.6437,-0.6401,-0.6325,-0.62,-0.6317,-0.6462,-0.6611,-0.6796,-0.7707,-0.9131,-0.8516,-0.8941,-1.0371,-0.9728,-0.9413,-0.944,-0.958,-0.9656,-0.953,-0.9216,-0.8681,-0.8093,-0.8185,-0.751,-0.6397,-0.6982,-0.6575,-0.5606,-0.6437,-0.6535,-0.6722,-0.7038,-0.7139,-0.7326,-0.7651,-0.7651,-0.7602,-0.7461,-0.7446,-0.7391,-0.725,-0.7238,-0.7238,-0.7238,-0.7238,-0.7238,-0.7238,-0.7444,-0.7743,-0.7939,-0.8038,-0.7967,-0.7814,-0.7672,-0.7522,-0.737,-0.7214,-0.7065,-0.6929,-0.6926,-0.6848,-0.6702,-0.6702,-0.6617,-0.6471,-0.6471,-0.639,-0.6338,-0.6338,-0.6338,-0.6278,-0.6417,-0.7027,-0.768,-0.7861,-0.793,-0.7902,-0.7721,-0.7187,-0.6451,-0.6312,-0.6363,-0.6536,-0.6841,-0.6929,-0.6959,-0.7102,-0.7139,-0.7105,-0.6966,-0.7037,-0.7139,-0.7139,-0.7139,-0.7139,-0.7139,-0.7139,-0.7139,-0.7139,-0.7139,-0.7139,-0.7139,-0.7397,-0.7546,-0.7394,-0.7472,-0.7493,-0.7061,-0.6849,-0.6603,-0.6423,-0.6333,-0.6317,-0.6429,-0.6437,-0.6437,-0.6434,-0.6331,-0.632,-0.6431,-0.6328,-0.6323,-0.6434,-0.6437,-0.6674,-0.733,-0.733,-0.7637,-0.8243,-0.8239,-0.7861,-0.7483,-0.8524,-0.8613,-0.7993,-0.9005,-0.8804,-0.7742,-0.7742,-0.7131,-0.6182,-0.6301,-0.5523,-0.4436,-0.6437,-0.6478,-0.6537,-0.6824,-0.6769,-0.6719,-0.702,-0.7066,-0.6992,-0.6947,-0.6862,-0.6888,-0.7141,-0.7238,-0.7238,-0.7238,-0.7238,-0.7238,-0.7238,-0.7444,-0.7646,-0.7743,-0.7942,-0.7923,-0.7668,-0.7621,-0.7472,-0.721,-0.7061,-0.697,-0.6926,-0.6817,-0.6746,-0.6702,-0.6702,-0.6617,-0.6471,-0.6471,-0.639,-0.6338,-0.6338,-0.6338,-0.6278,-0.6417,-0.6631,-0.6889,-0.6969,-0.7101,-0.7172,-0.7012,-0.6867,-0.6783,-0.6742,-0.6759,-0.6831,-0.7021,-0.7078,-0.7085,-0.7129,-0.7139,-0.7129,-0.7088,-0.7109,-0.7139,-0.7139,-0.7139,-0.7139,-0.7139,-0.7139,-0.7139,-0.7139,-0.6966,-0.6881,-0.6881,-0.6939,-0.7017,-0.6973,-0.6966,-0.689,-0.6754,-0.6557,-0.6377,-0.6314,-0.6361,-0.6399,-0.6434,-0.6437,-0.6401,-0.6323,-0.6363,-0.6366,-0.632,-0.6363,-0.6401,-0.6437,-0.6437,-0.6816,-0.747,-0.7375,-0.7495,-0.7822,-0.7719,-0.7442,-0.7142,-0.7994,-0.7919,-0.7121,-0.7583,-0.6905,-0.5534,-0.5802,-0.5025,-0.3987,-0.4708,-0.4318,-0.3366,-0.635,-0.6361,-0.6183,-0.5422,-0.5229,-0.5148,-0.5311,-0.5373,-0.5333,-0.5328,-0.5989,-0.6553,-0.6851,-0.6842,-0.6836,-0.6836,-0.6892,-0.6863,-0.6961,-0.726,-0.7461,-0.7563,-0.7809,-0.7902,-0.7607,-0.76,-0.7448,-0.7139,-0.7054,-0.701,-0.701,-0.6919,-0.6875,-0.6871,-0.6817,-0.6705,-0.6559,-0.6498,-0.639,-0.6345,-0.6322,-0.6342,-0.6366,-0.6573,-0.6654,-0.6671,-0.682,-0.6936,-0.699,-0.6841,-0.6814,-0.6851,-0.6909,-0.6929,-0.6956,-0.7099,-0.7139,-0.7139,-0.7139,-0.7139,-0.7054,-0.6966,-0.7054,-0.7139,-0.7139,-0.7054,-0.6982,-0.7042,-0.6917,-0.6802,-0.686,-0.6739,-0.6612,-0.6612,-0.6755,-0.6823,-0.6768,-0.6777,-0.6709,-0.6657,-0.6502,-0.6333,-0.6333,-0.6396,-0.6437,-0.6437,-0.6234,-0.6108,-0.6044,-0.5902,-0.5708,-0.5745,-0.5705,-0.5837,-0.6037,-0.5837,-0.6234,-0.7132,-0.6758,-0.6718,-0.6905,-0.6537,-0.6128,-0.5754,-0.6742,-0.6676,-0.5959,-0.64,-0.5788,-0.4574,-0.4683,-0.3982,-0.3039,-0.3628,-0.3526,-0.2956,-0.6067,-0.6274,-0.5763,-0.3831,-0.3123,-0.2922,-0.2922,-0.2922,-0.2922,-0.2922,-0.4738,-0.616,-0.6364,-0.6448,-0.6437,-0.6437,-0.6342,-0.6377,-0.6654,-0.6952,-0.7146,-0.743,-0.7763,-0.7808,-0.753,-0.7607,-0.7448,-0.7139,-0.7139,-0.7139,-0.7139,-0.7139,-0.7139,-0.7132,-0.6993,-0.6844,-0.6692,-0.6536,-0.6396,-0.6291,-0.642,-0.6481,-0.6525,-0.6817,-0.6929,-0.6949,-0.7088,-0.7139,-0.7122,-0.699,-0.6854,-0.6763,-0.6905,-0.6949,-0.6887,-0.7014,-0.7051,-0.7054,-0.7068,-0.7061,-0.6966,-0.6808,-0.6887,-0.7051,-0.7051,-0.6877,-0.6834,-0.6979,-0.6629,-0.6487,-0.6612,-0.6454,-0.6373,-0.6361,-0.6587,-0.6723,-0.6596,-0.671,-0.6699,-0.6583,-0.647,-0.6437,-0.6437,-0.6437,-0.6437,-0.6437,-0.5934,-0.5636,-0.5636,-0.5135,-0.4834,-0.4834,-0.4834,-0.5035,-0.5536,-0.5035,-0.5336,-0.6337,-0.5737,-0.5534,-0.5436,-0.4935,-0.4392,-0.3929,-0.4994,-0.5032,-0.446,-0.5491,-0.5315,-0.4346,-0.4201,-0.3781,-0.3144,-0.3056,-0.3055,-0.3057,-0.3932,-0.5258,-0.6284,-0.5773,-0.2928,-0.0707,-0.0707,-0.0707,-0.0706,-0.0705,-0.2518,-0.4537,-0.6261,-0.6448,-0.6437,-0.6437,-0.6415,-0.6363,-0.6371,-0.6648,-0.6854,-0.6851,-0.7168,-0.7263,-0.7102,-0.7472,-0.7448,-0.7139,-0.7139,-0.7139,-0.7139,-0.7139,-0.7139,-0.7132,-0.6993,-0.6844,-0.6692,-0.6536,-0.6454,-0.643,-0.6461,-0.6546,-0.6671,-0.6858,-0.6929,-0.6949,-0.7088,-0.7139,-0.7136,-0.7105,-0.7071,-0.7051,-0.7085,-0.6923,-0.6841,-0.6874,-0.67,-0.6542,-0.6653,-0.6604,-0.6545,-0.6656,-0.6601,-0.652,-0.652,-0.652,-0.656,-0.67,-0.6612,-0.66,-0.663,-0.651,-0.6343,-0.6341,-0.6355,-0.6412,-0.6384,-0.6432,-0.6429,-0.6401,-0.642,-0.6437,-0.6437,-0.6437,-0.6437,-0.6437,-0.5934,-0.5636,-0.5636,-0.5135,-0.4834,-0.4834,-0.4834,-0.4834,-0.4935,-0.4834,-0.5135,-0.5737,-0.5236,-0.4734,-0.4334,-0.4234,-0.3823,-0.3407,-0.4436,-0.4357,-0.3521,-0.4542,-0.4317,-0.335,-0.3376,-0.3215,-0.3055,-0.3102,-0.309,-0.3146,-0.2117,-0.2624,-0.3335,-0.3335,-0.1515,-0.0,-0.0,-0.0,-0.0,-0.0,-0.2724,-0.5153,-0.6268,-0.6358,-0.6445,-0.6437,-0.6388,-0.6331,-0.6274,-0.662,-0.6724,-0.6654,-0.7069,-0.7177,-0.7049,-0.7171,-0.7214,-0.6992,-0.6921,-0.6889,-0.6886,-0.691,-0.6966,-0.6959,-0.6907,-0.6885,-0.68,-0.6647,-0.658,-0.6586,-0.6661,-0.6736,-0.6824,-0.6973,-0.7031,-0.7041,-0.7112,-0.7054,-0.6966,-0.6786,-0.6786,-0.6786,-0.6786,-0.6697,-0.6624,-0.6693,-0.6573,-0.6474,-0.6679,-0.6584,-0.6388,-0.6495,-0.6447,-0.6334,-0.6355,-0.6394,-0.6388,-0.6519,-0.6453,-0.638,-0.6444,-0.6364,-0.625,-0.6191,-0.6244,-0.6268,-0.6268,-0.6366,-0.6437,-0.6437,-0.6437,-0.6437,-0.6437,-0.6437,-0.6437,-0.6437,-0.5634,-0.5236,-0.5236,-0.4433,-0.4033,-0.4033,-0.4033,-0.4133,-0.4435,-0.4133,-0.4334,-0.4834,-0.4533,-0.4234,-0.4033,-0.3732,-0.3414,-0.3185,-0.3741,-0.3606,-0.3186,-0.3726,-0.3636,-0.3085,-0.306,-0.3067,-0.3097,-0.3128,-0.304,-0.2939,-0.0707,-0.0,-0.0,-0.0,-0.0,-0.0,-0.0,-0.0,-0.0,-0.0,-0.3436,-0.5874,-0.5866,-0.616,-0.6353,-0.6437,-0.635,-0.629,-0.6271,-0.648,-0.6675,-0.6654,-0.6872,-0.6988,-0.6887,-0.6884,-0.6894,-0.6807,-0.6691,-0.6624,-0.6597,-0.6668,-0.6704,-0.6697,-0.6734,-0.6757,-0.6748,-0.6599,-0.6632,-0.6582,-0.6708,-0.6771,-0.6804,-0.6919,-0.6962,-0.6962,-0.6962,-0.6877,-0.6707,-0.6526,-0.6346,-0.6343,-0.6343,-0.6343,-0.637,-0.6506,-0.6466,-0.6346,-0.6614,-0.6507,-0.6379,-0.6338,-0.6307,-0.6279,-0.6346,-0.6318,-0.625,-0.6369,-0.6208,-0.6149,-0.6249,-0.6203,-0.6143,-0.6121,-0.6222,-0.6301,-0.6301,-0.6382,-0.6439,-0.6439,-0.6439,-0.6439,-0.6439,-0.6337,-0.6237,-0.6237,-0.5236,-0.4634,-0.4634,-0.3732,-0.323,-0.323,-0.323,-0.343,-0.3833,-0.343,-0.343,-0.3833,-0.3833,-0.3833,-0.3833,-0.343,-0.3203,-0.3154,-0.3143,-0.3139,-0.3135,-0.3086,-0.3124,-0.3206,-0.3116,-0.311,-0.3155,-0.3155,-0.2988,-0.2826,-0.0101,-0.0,-0.0,-0.0,-0.0,-0.0,-0.0,-0.0,-0.0,-0.0,-0.212,-0.3633,-0.3629,-0.5336,-0.6439,-0.6437,-0.6423,-0.6372,-0.6276,-0.6358,-0.6369,-0.6371,-0.6476,-0.6528,-0.6515,-0.6512,-0.6546,-0.6664,-0.6645,-0.6575,-0.6456,-0.6441,-0.6432,-0.6425,-0.6384,-0.6325,-0.6316,-0.6176,-0.6186,-0.63,-0.6319,-0.6393,-0.6495,-0.6514,-0.652,-0.652,-0.652,-0.6615,-0.6719,-0.6456,-0.6358,-0.6263,-0.6263,-0.6171,-0.6198,-0.633,-0.6167,-0.6023,-0.6274,-0.6239,-0.6164,-0.6305,-0.6247,-0.615,-0.6134,-0.6142,-0.6192,-0.6313,-0.6244,-0.6249,-0.6265,-0.6347,-0.6278,-0.6174,-0.6259,-0.6337,-0.6337,-0.635,-0.6358,-0.6358,-0.6358,-0.6358,-0.6358,-0.5944,-0.5737,-0.5737,-0.4734,-0.4133,-0.4133,-0.3531,-0.323,-0.323,-0.323,-0.323,-0.3331,-0.323,-0.323,-0.3331,-0.3331,-0.3331,-0.3331,-0.323,-0.3226,-0.3215,-0.3162,-0.3139,-0.3139,-0.3131,-0.3136,-0.3155,-0.3192,-0.3211,-0.3218,-0.3218,-0.3021,-0.2826,-0.0,-0.0,-0.0,-0.0,-0.0,-0.0,-0.0,-0.2022,-0.3542,-0.3539,-0.445,-0.4954,-0.4943,-0.5839,-0.6437,-0.6437,-0.6437,-0.6415,-0.6366,-0.6407,-0.6415,-0.6366,-0.641,-0.6437,-0.6437,-0.6437,-0.6393,-0.6284,-0.6284,-0.6219,-0.6091,-0.6201,-0.6257,-0.6254,-0.6286,-0.6346,-0.6343,-0.6282,-0.6291,-0.6346,-0.6346,-0.638,-0.6428,-0.6428,-0.6428,-0.6432,-0.6352,-0.5727,-0.4921,-0.4926,-0.4924,-0.501,-0.573,-0.5911,-0.5947,-0.6138,-0.6051,-0.5969,-0.6279,-0.6227,-0.6132,-0.6328,-0.6285,-0.6214,-0.6287,-0.6304,-0.6298,-0.6274,-0.6328,-0.6377,-0.6377,-0.6429,-0.5947,-0.4686,-0.4612,-0.5044,-0.6268,-0.6372,-0.6062,-0.5343,-0.524,-0.5443,-0.5947,-0.5739,-0.5436,-0.5135,-0.4435,-0.4033,-0.4033,-0.3531,-0.323,-0.323,-0.323,-0.323,-0.323,-0.323,-0.323,-0.323,-0.323,-0.323,-0.323,-0.323,-0.323,-0.3229,-0.3202,-0.3091,-0.2891,-0.2891,-0.2891,-0.2893,-0.2918,-0.2927,-0.2927,-0.2826,-0.2624,-0.2324]},{"header":{"parameterUnit":"m.s-1","parameterCategory":1,"la1":30.6,"la2":28.766,"lo1":-90.7593,"lo2":-88.6598,"dy":0.0162,"dx":0.0183,"nx":116,"ny":114,"refTime":"2023-06-27T06:00:00:Z","depth":0,"parameterNumber":3,"parameterNumberName":"V-component_of_WINDS"},"data":[0.0,0.0,0.0,0.0,0.0,0.0,0.0,0.0,0.0,0.0,0.0,0.0,0.0,0.0,0.0,0.0,0.0,0.0,0.0,0.0,0.0,0.0,0.0,0.0,0.0,0.0,0.0,0.0,0.0,0.0,0.0,0.0,0.0,0.0,0.0,0.0,0.0,0.0,0.0,0.0,0.0,0.0,0.0,0.0,0.0,0.0,0.0,0.0,0.0,0.0,0.0,0.0,0.0,0.0,0.0,0.0,0.0,0.0,0.0,0.0,0.0,0.0,0.0,0.0,0.0,0.0,0.0,0.0,0.0,0.0,0.0,0.0,0.0,0.0,0.0,0.0,0.0,0.0,0.0,0.0,0.0,0.0,0.0,0.0,0.0,0.0,0.0,0.0,0.0,0.0,0.0,0.0,0.0,0.0,0.0,0.0,0.0,0.0,0.0,0.0,0.0,0.0,0.0,0.0,0.0,0.0,0.0,0.0,0.0,0.0,0.0,0.0,0.0,0.0,0.0,0.0,0.0,0.0,0.0,0.0,0.0,0.0,0.0,0.0,0.0,0.0,0.0,0.0,0.0,0.0,0.0,0.0,0.0,0.0,0.0,0.0,0.0,0.0,0.0,0.0,0.0,0.0,0.0,0.0,0.0,0.0,0.0,0.0,0.0,0.0,0.0,0.0,0.0,0.0,0.0,0.0,0.0,0.0,0.0,0.0,0.0,0.0,0.0,0.0,0.0,0.0,0.0,0.0,0.0,0.0,0.0,0.0,0.0,0.0,0.0,0.0,0.0,0.0,0.0,0.0,0.0,0.0,0.0,0.0,0.0,0.0,0.0,0.0,0.0,0.0,0.0,0.0,0.0,0.0,0.0,0.0,0.0,0.0,0.0,0.0,0.0,0.0,0.0,0.0,0.0,0.0,0.0,0.0,0.0,0.0,0.0,0.0,0.0,0.0,0.0,0.0,0.0,0.0,0.0,0.0,0.0,0.0,0.0,0.0,0.0,0.0,0.0,0.0,0.0,0.0,0.0,0.0,0.0,0.0,0.0,0.0,0.0,0.0,0.0,0.0,0.0,0.0,0.0,0.0,0.0,0.0,0.0,0.0,0.0,0.0,0.0,0.0,0.0,0.0,0.0,0.0,0.0,0.0,0.0,0.0,0.0,0.0,0.0,0.0,0.0,0.0,0.0,0.0,0.0,0.0,0.0,0.0,0.0,0.0,0.0,0.0,0.0,0.0,0.0,0.0,0.0,0.0,0.0,0.0,0.0,0.0,0.0,0.0,0.0,0.0,0.0,0.0,0.0,0.0,0.0,0.0,0.0,0.0,0.0,0.0,0.0,0.0,0.0,0.0,0.0,0.0,0.0,0.0,0.0,0.0,0.0,0.0,0.0,0.0,0.0,0.0,0.0,0.0,0.0,0.0,0.0,0.0,0.0,0.0,0.0,0.0,0.0,0.0,0.0,0.0,0.0,0.0,0.0,0.0,0.0,0.0,0.0,0.0,0.0,0.0,0.0,0.0,0.0,0.0,0.0,0.0,0.0,0.0,0.0,0.0,0.0,0.0,0.0,0.0,0.0,0.0,0.0,0.0,0.0,0.0,0.0,0.0,0.0,0.0,0.0,0.0,0.0,0.0,0.0,0.0,0.0,0.0,0.0,0.0,0.0,0.0,0.0,0.0,0.0,0.0,0.0,0.0,0.0,0.0,0.0,0.0,0.0,0.0,0.0,0.0,0.0,0.0,0.0,0.0,0.0,0.0,0.0,0.0,0.0,0.0,0.0,0.0,0.0,0.0,0.0,0.0,0.0,0.0,0.0,0.0,0.0,0.0,0.0,0.0,0.0,0.0,0.0,0.0,0.0,0.0,0.0,0.0,0.0,0.0,0.0,0.0,0.0,0.0,0.0,0.0,0.0,0.0,0.0,0.0,0.0,0.0,0.0,0.0,0.0,0.0,0.0,0.0,0.0,0.0,0.0,0.0,0.0,0.0,0.0,0.0,0.0,0.0,0.0,0.0,0.0,0.0,0.0,0.0,0.0,0.0,0.0,0.0,0.0,0.0,0.0,0.0,0.0,0.0,0.0,0.0,0.0,0.0,0.0,0.0,0.0,0.0,0.0,0.0,0.0,0.0,0.0,0.0,0.0,0.0,0.0,0.0,0.0,0.0,0.0,0.0,0.0,0.0,0.0,0.0,0.0,0.0,0.0,0.0,0.0,0.0,0.0,0.0,0.0,0.0,0.0,0.0,0.0,0.0,0.0,0.0,0.0,0.0,0.0,0.0,0.0,0.0,0.0,0.0,0.0,0.0,0.0,0.0,0.0,0.0,0.0,0.0,0.0,0.0,0.0,0.0,0.0,0.0,0.0,0.0,0.0,0.0,0.0,0.0,0.0,0.0,0.0,0.0,0.0,0.0,0.0,0.0,0.0,0.0,0.0,0.0,0.0,0.0,0.0,0.0,0.0,0.0,0.0,0.0,0.0,0.0,0.0,0.0,0.0,0.0,0.0,0.0,0.0,0.0,0.0,0.0,0.0,0.0,0.0,0.0,0.0,0.0,0.0,0.0,0.0,0.0,0.0,0.0,0.0,0.0,0.0,0.0,0.0,0.0,0.0,0.0,0.0,0.0,0.0,0.0,0.0,0.0,0.0,0.0,0.0,0.0,0.0,0.0,0.0,0.0,0.0,0.0,0.0,0.0,0.0,0.0,0.0,0.0,0.0,0.0,0.0,0.0,0.0,0.0,0.0,0.0,0.0,0.0,0.0,0.0,0.0,0.0,0.0,0.0,0.0,0.0,0.0,0.0,0.0,0.0,0.0,0.0,0.0,0.0,0.0,0.0,0.0,0.0,0.0,0.0,0.0,0.0,0.0,0.0,0.0,0.0,0.0,0.0,0.0,0.0,0.0,0.0,0.0,0.0,0.0,0.0,0.0,0.0,0.0,0.0,0.0,0.0,0.0,0.0,0.0,0.0,0.0,0.0,0.0,0.0,0.0,0.0,0.0,0.0,0.0,0.0,0.0,0.0,0.0,0.0,0.0,0.0,0.0,0.0,0.0,0.0,0.0,0.0,0.0,0.0,0.0,0.0,0.0,0.0,0.0,0.0,0.0,0.0,0.0,0.0,0.0,0.0,0.0,0.0,0.0,0.0,0.0,0.0,0.0,0.0,0.0,0.0,0.0,0.0,0.0,0.0,0.0,0.0,0.0,0.0,0.0,0.0,0.0,0.0,0.0,0.0,0.0,0.0,0.0,0.0,0.0,0.0,0.0,0.0,0.0,0.0,0.0,0.0,0.0,0.0,0.0,0.0,0.0,0.0,0.0,0.0,0.0,0.0,0.0,0.0,0.0,0.0,0.0,0.0,0.0,0.0,0.0,0.0,0.0,0.0,0.0,0.0,0.0,0.0,0.0,0.0,0.0,0.0,0.0,0.0,0.0,0.0,0.0,0.0,0.0,0.0,0.0,0.0,0.0,0.0,0.0,0.0,0.0,0.0,0.0,0.0,0.0,0.0,0.0,0.0,0.0,0.0,0.0,0.0,0.0,0.0,0.0,0.0,0.0,0.0,0.0,0.0,0.0,0.0,0.0,0.0,0.0,0.0,0.0,0.0,0.0,0.0,0.0,0.0,0.0,0.0,0.0,0.0,0.0,0.0,0.0,0.0,0.0,0.0,0.0,0.0,0.0,0.0,0.0,0.0,0.0,0.0,0.0,0.0,0.0,0.0,0.0,0.0,0.0,0.0,0.0,0.0,0.0,0.0,0.0,0.0,0.0,0.0,0.0,0.0,0.0,0.0,0.0,0.0,0.0,0.0,0.0,0.0,0.0,0.0,0.0,0.0,0.0,0.0,0.0,0.0,0.0,0.0,0.0,0.0,0.0,0.0,0.0,0.0,0.0,0.0,0.0,0.0,0.0,0.0,0.0,0.0,0.0,0.0,0.0,0.0,0.0,0.0,0.0,0.0,0.0,0.0,0.0,0.0,0.0,0.0,0.0,0.0,0.0,0.0,0.0,0.0,0.0,0.0,0.0,0.0,0.0,0.0,0.0,0.0,0.0,0.0,0.0,0.0,0.0,0.0,0.0,0.0,0.0,0.0,0.0,0.0,0.0,0.0,0.0,0.0,0.0,0.0,0.0,0.0,0.0,0.0,0.0,0.0,0.0,0.0,0.0,0.0,0.0,0.0,0.0,0.0,0.0,0.0,0.0,0.0,0.0,0.0,0.0,0.0,0.0,0.0,0.0,0.0,0.0,0.0,0.0,0.0,0.0,0.0,0.0,0.0,0.0,0.0,0.0,0.0,0.0,0.0,0.0,0.0,0.0,0.0,0.0,0.0,0.0,0.0,0.0,0.0,0.0,0.0,0.0,0.0,0.0,0.0,0.0,0.0,0.0,0.0,0.0,0.0,0.0,0.0,0.0,0.0,0.0,0.0,0.0,0.0,0.0,0.0,0.0,0.0,0.0,0.0,0.0,0.0,0.0,0.0,0.0,0.0,0.0,0.0,0.0,0.0,0.0,0.0,0.0,0.0,0.0,0.0,0.0,0.0,0.0,0.0,0.0,0.0,0.0,0.0,0.0,0.0,0.0,0.0,0.0,0.0,0.0,0.0,0.0,0.0,0.0,0.0,0.0,0.0,0.0,0.0,0.0,0.0,0.0,0.0,0.0,0.0,0.0,0.0,0.0,0.0,0.0,0.0,0.0,0.0,0.0,0.0,0.0,0.0,0.0,0.0,0.0,0.0,0.0,0.0,0.0,0.0,0.0,0.0,0.0,0.0,0.0,0.0,0.0,0.0,0.0,0.0,0.0,0.0,0.0,0.0,0.0,0.0,0.0,0.0,0.0,0.0,0.0,0.0,0.0,0.0,0.0,0.0,0.0,0.0,0.0,0.0,0.0,0.0,0.0,0.0,0.0,0.0,0.0,0.0,0.0,0.0,0.0,0.0,0.0,0.0,0.0,0.0,0.0,0.0,0.0,0.0,0.0,0.0,0.0,0.0,0.0,0.0,0.0,0.0,0.0,0.0,0.0,0.0,0.0,0.0,0.0,0.0,0.0,0.0,0.0,0.0,0.0,0.0,0.0,0.0,0.0,0.0,0.0,0.0,0.0,0.0,0.0,0.0,0.0,0.0,0.0,0.0,0.0,0.0,0.0,0.0,0.0,0.0,0.0,0.0,0.0,0.0,0.0,0.0,0.0,0.0,0.0,0.0,0.0,0.0,0.0,0.0,0.0,0.0,0.0,0.0,0.0,0.0,0.0,0.0,0.0,0.0,0.0,0.0,0.0,0.0,0.0,0.0,0.0,0.0,0.0,0.0,0.0,0.0,0.0,0.0,0.0,0.0,0.0,0.0,0.0,0.0,0.0,0.0,0.0,0.0,0.0,0.0,0.0,0.0,0.0,0.0,0.0,0.0,0.0,0.0,0.0,0.0,0.0,0.0,0.0,0.0,0.0,0.0,0.0,0.0,0.0,0.0,0.0,0.0,0.0,0.0,0.0,0.0,0.0,0.0,0.0,0.0,0.0,0.0,0.0,0.0,0.0,0.0,0.0,0.0,0.0,0.0,0.0,0.0,0.0,0.0,0.0,0.0,0.0,0.0,0.0,0.0,0.0,0.0,0.0,0.0,0.0,0.0,0.0,0.0,0.0,0.0,0.0,0.0,0.0,0.0,0.0,0.0,0.0,0.0,0.0,0.0,0.0,0.0,0.0,0.0,0.0,0.0,0.0,0.0,0.0,0.0,0.0,0.0,0.0,0.0,0.0,0.0,0.0,0.0,0.0,0.0,0.0,0.0,0.0,0.0,0.0,0.0,0.0,0.0,0.0,0.0,0.0,0.0,0.0,0.0,0.0,0.0,0.0,0.0,0.0,0.0,0.0,0.0,0.0,0.0,0.0,0.0,0.0,0.0,0.0,0.0,0.0,0.0,0.0,0.0,0.0,0.0,0.0,0.0,0.0,0.0,0.0,0.0,0.0,0.0,0.0,0.0,0.0,0.0,0.0,0.0,0.0,0.0,0.0,0.0,0.0,0.0,0.0,0.0,0.0,0.0,0.0,0.0,0.0,0.0,0.0,0.0,0.0,0.0,0.0,0.0,0.0,0.0,0.0,0.0,-2.498,0.0,0.0,0.0,0.0,0.0,0.0,0.0,0.0,0.0,0.0,0.0,0.0,0.0,0.0,0.0,0.0,0.0,0.0,0.0,0.0,0.0,0.0,0.0,0.0,0.0,0.0,0.0,0.0,0.0,0.0,0.0,0.0,0.0,0.0,0.0,0.0,0.0,0.0,0.0,0.0,0.0,0.0,0.0,0.0,0.0,0.0,0.0,0.0,0.0,0.0,0.0,0.0,0.0,0.0,0.0,0.0,0.0,0.0,0.0,0.0,0.0,0.0,0.0,0.0,0.0,0.0,0.0,0.0,0.0,0.0,0.0,0.0,0.0,0.0,0.0,0.0,0.0,0.0,0.0,0.0,0.0,0.0,0.0,0.0,0.0,0.0,0.0,0.0,0.0,0.0,0.0,0.0,0.0,0.0,0.0,0.0,0.0,0.0,0.0,0.0,0.0,0.0,0.0,0.0,0.0,0.0,0.0,0.0,0.0,0.0,0.0,0.0,0.0,0.0,0.0,0.0,-2.6788,0.0,0.0,0.0,0.0,0.0,0.0,0.0,0.0,0.0,0.0,0.0,0.0,0.0,0.0,0.0,0.0,0.0,0.0,0.0,0.0,0.0,0.0,0.0,0.0,0.0,0.0,0.0,0.0,0.0,0.0,0.0,0.0,0.0,0.0,0.0,0.0,0.0,0.0,0.0,0.0,0.0,0.0,0.0,0.0,0.0,0.0,0.0,0.0,0.0,0.0,0.0,0.0,0.0,0.0,0.0,0.0,0.0,0.0,0.0,0.0,0.0,0.0,0.0,0.0,0.0,0.0,0.0,0.0,0.0,0.0,0.0,0.0,0.0,0.0,0.0,0.0,0.0,0.0,0.0,0.0,0.0,0.0,0.0,0.0,0.0,0.0,0.0,0.0,0.0,0.0,0.0,0.0,0.0,0.0,0.0,0.0,0.0,0.0,0.0,0.0,0.0,0.0,0.0,0.0,0.0,0.0,0.0,0.0,-2.8185,-2.885,-2.9228,-2.9137,-2.919,-2.9369,-2.8515,-2.8252,-2.8445,0.0,0.0,0.0,0.0,0.0,0.0,0.0,0.0,0.0,0.0,0.0,0.0,0.0,0.0,0.0,0.0,0.0,0.0,0.0,0.0,0.0,0.0,0.0,0.0,0.0,0.0,0.0,0.0,0.0,0.0,0.0,0.0,0.0,0.0,0.0,0.0,0.0,0.0,0.0,-1.5109,-1.5769,-1.6162,-1.6274,0.0,0.0,0.0,0.0,0.0,0.0,0.0,0.0,0.0,0.0,0.0,0.0,0.0,0.0,0.0,0.0,0.0,0.0,0.0,0.0,0.0,0.0,0.0,0.0,0.0,0.0,0.0,0.0,0.0,0.0,0.0,0.0,0.0,0.0,0.0,0.0,0.0,0.0,0.0,0.0,0.0,0.0,0.0,0.0,-1.3585,-1.3888,0.0,0.0,0.0,0.0,0.0,0.0,0.0,0.0,0.0,0.0,0.0,0.0,0.0,0.0,-2.7406,-2.8521,-2.9229,-2.9747,-3.0801,-3.1295,-3.1352,-3.0905,-3.0709,-3.0767,-3.0814,0.0,-2.9232,-2.8659,0.0,0.0,0.0,0.0,0.0,0.0,0.0,0.0,0.0,0.0,0.0,0.0,0.0,0.0,0.0,0.0,0.0,0.0,0.0,0.0,0.0,0.0,0.0,0.0,0.0,0.0,0.0,0.0,0.0,0.0,0.0,0.0,0.0,0.0,0.0,0.0,0.0,0.0,0.0,0.0,-1.7126,-1.7406,-1.8064,-1.7812,-1.6892,-1.74,0.0,0.0,0.0,0.0,0.0,0.0,0.0,0.0,0.0,0.0,0.0,0.0,0.0,0.0,0.0,0.0,0.0,0.0,0.0,0.0,0.0,0.0,0.0,0.0,0.0,0.0,0.0,0.0,0.0,0.0,0.0,0.0,0.0,0.0,0.0,0.0,0.0,0.0,0.0,-1.395,-1.4501,-1.4282,-1.486,-1.5242,0.0,0.0,0.0,0.0,0.0,0.0,0.0,0.0,0.0,-2.5746,-2.6845,-2.8044,-2.9341,-3.0339,-3.1175,-3.1949,-3.2684,-3.3028,-3.3017,-3.2799,-3.2644,-3.2549,-3.3038,-3.2812,-3.2027,-3.0817,-3.0478,-3.069,0.0,0.0,0.0,0.0,0.0,-3.2614,0.0,0.0,0.0,0.0,0.0,0.0,0.0,0.0,0.0,0.0,0.0,0.0,0.0,0.0,0.0,0.0,0.0,0.0,0.0,0.0,0.0,0.0,0.0,0.0,0.0,0.0,0.0,0.0,0.0,0.0,0.0,0.0,0.0,0.0,0.0,0.0,0.0,0.0,0.0,0.0,0.0,0.0,0.0,0.0,0.0,0.0,0.0,0.0,0.0,0.0,0.0,0.0,0.0,0.0,0.0,0.0,0.0,0.0,0.0,0.0,0.0,0.0,0.0,0.0,0.0,0.0,0.0,0.0,0.0,0.0,0.0,0.0,0.0,0.0,0.0,0.0,0.0,-1.4322,-1.5218,-1.4655,-1.576,-1.6339,0.0,0.0,0.0,0.0,0.0,0.0,-2.4029,-2.5363,-2.6774,-2.8231,-2.9659,-3.0728,-3.149,-3.2254,-3.2925,-3.3671,-3.4039,-3.413,-3.4004,-3.4004,-3.3841,-3.3656,-3.4294,-3.4475,-3.426,-3.2866,-3.1939,-3.1428,-3.1387,-3.1883,-3.2737,-3.2643,-3.339,-3.4425,0.0,0.0,0.0,0.0,0.0,0.0,0.0,0.0,0.0,0.0,0.0,0.0,0.0,0.0,0.0,0.0,0.0,0.0,0.0,0.0,0.0,0.0,0.0,0.0,0.0,0.0,0.0,0.0,0.0,0.0,0.0,0.0,0.0,0.0,0.0,0.0,0.0,0.0,0.0,0.0,0.0,0.0,0.0,0.0,0.0,0.0,0.0,0.0,0.0,0.0,0.0,0.0,0.0,0.0,0.0,0.0,0.0,0.0,0.0,0.0,0.0,0.0,0.0,0.0,0.0,0.0,0.0,0.0,0.0,0.0,0.0,0.0,0.0,0.0,0.0,0.0,0.0,0.0,0.0,-1.4962,-1.6755,0.0,0.0,0.0,0.0,-2.1646,-2.3278,-2.4635,-2.5405,-2.7056,-2.8807,-3.0395,-3.1737,-3.3175,-3.4601,-3.4636,-3.467,-3.4716,-3.475,-3.4498,-3.4004,-3.4004,-3.374,-3.3381,-3.4091,-3.4535,-3.4656,-3.3802,-3.3182,-3.2568,-3.2104,-3.1663,-3.1373,-3.2663,-3.2927,-3.2707,0.0,0.0,0.0,0.0,0.0,0.0,0.0,0.0,0.0,0.0,0.0,0.0,0.0,0.0,0.0,0.0,0.0,0.0,0.0,0.0,0.0,0.0,0.0,0.0,0.0,0.0,0.0,0.0,0.0,0.0,0.0,0.0,0.0,0.0,0.0,0.0,0.0,0.0,0.0,0.0,0.0,0.0,0.0,0.0,0.0,0.0,0.0,0.0,0.0,0.0,0.0,0.0,0.0,0.0,0.0,0.0,0.0,0.0,0.0,0.0,0.0,0.0,0.0,0.0,0.0,0.0,0.0,0.0,0.0,0.0,0.0,0.0,0.0,0.0,0.0,0.0,0.0,0.0,0.0,-1.7311,-1.8613,0.0,0.0,-2.1366,-2.2851,-2.3388,-2.5718,-2.7489,-2.8463,-3.0317,-3.1979,-3.3175,-3.4065,-3.4932,-3.5738,-3.5428,-3.5256,-3.5256,-3.5256,-3.4819,-3.4004,-3.4004,-3.374,-3.3381,-3.4115,-3.4473,-3.451,-3.4891,-3.456,-3.3744,-3.3567,-3.3512,-3.3492,-3.3142,-3.3818,-3.4806,0.0,0.0,0.0,0.0,0.0,0.0,0.0,0.0,0.0,0.0,0.0,0.0,0.0,0.0,0.0,0.0,0.0,0.0,0.0,0.0,0.0,0.0,0.0,0.0,0.0,0.0,0.0,0.0,0.0,0.0,0.0,0.0,0.0,0.0,0.0,0.0,0.0,0.0,0.0,0.0,0.0,0.0,-2.2351,0.0,0.0,0.0,0.0,0.0,0.0,0.0,0.0,0.0,0.0,0.0,0.0,0.0,0.0,0.0,0.0,0.0,0.0,0.0,0.0,0.0,0.0,0.0,0.0,0.0,0.0,0.0,0.0,0.0,0.0,0.0,0.0,0.0,0.0,0.0,-1.7927,-1.8816,-2.0047,-2.0885,-2.118,-2.3044,-2.459,-2.5329,-2.758,-2.9467,-3.1019,-3.2575,-3.3854,-3.4896,-3.5449,-3.5853,-3.6013,-3.552,-3.5187,-3.5003,-3.4842,-3.4418,-3.3752,-3.3752,-3.3579,-3.3281,-3.3843,-3.4299,-3.4848,-3.5556,-3.5455,-3.4959,-3.4776,-3.4664,-3.458,-3.3819,-3.427,-3.5053,0.0,0.0,0.0,0.0,0.0,0.0,0.0,0.0,0.0,0.0,0.0,0.0,0.0,0.0,0.0,0.0,0.0,0.0,0.0,0.0,0.0,0.0,0.0,0.0,0.0,0.0,0.0,0.0,0.0,0.0,0.0,0.0,0.0,0.0,0.0,0.0,0.0,0.0,0.0,0.0,0.0,0.0,-2.536,0.0,0.0,0.0,0.0,0.0,0.0,0.0,0.0,0.0,0.0,0.0,0.0,0.0,0.0,0.0,0.0,0.0,0.0,0.0,0.0,0.0,0.0,0.0,0.0,0.0,0.0,0.0,0.0,0.0,0.0,0.0,0.0,0.0,-1.6058,-1.7347,-1.8654,-1.9269,-2.0963,-2.2054,-2.2078,-2.4167,-2.6062,-2.7511,-2.8721,-3.0447,-3.2759,-3.3485,-3.4351,-3.5356,-3.6048,-3.6036,-3.5543,-3.5072,-3.4555,-3.4027,-3.3534,-3.3292,-3.3281,-3.3281,-3.3281,-3.3281,-3.3281,-3.4139,-3.5547,-3.5559,-3.576,-3.6057,-3.5521,-3.4946,-3.4402,-3.462,-3.3964,-3.3164,0.0,0.0,0.0,0.0,0.0,0.0,0.0,0.0,0.0,0.0,0.0,0.0,0.0,0.0,0.0,0.0,0.0,0.0,0.0,0.0,0.0,0.0,0.0,0.0,0.0,0.0,0.0,0.0,0.0,0.0,0.0,0.0,0.0,0.0,0.0,0.0,0.0,0.0,0.0,0.0,0.0,0.0,-2.4805,0.0,0.0,0.0,0.0,0.0,0.0,0.0,0.0,0.0,0.0,0.0,0.0,0.0,0.0,0.0,0.0,0.0,0.0,0.0,0.0,0.0,0.0,0.0,0.0,0.0,0.0,0.0,0.0,0.0,0.0,0.0,0.0,-1.8478,-1.7446,-1.888,-2.0557,-2.1829,-2.3037,-2.4248,-2.5248,-2.7141,-2.8388,-2.8878,-3.0631,-3.234,-3.3474,-3.3998,-3.4792,-3.6036,-3.6157,-3.6208,-3.6071,-3.5566,-3.5072,-3.4578,-3.405,-3.3625,-3.3281,-3.3281,-3.3281,-3.3281,-3.3281,-3.3644,-3.427,-3.522,-3.5494,-3.5302,-3.5603,-3.5029,-3.4178,-3.3757,-3.3621,-3.3717,0.0,0.0,0.0,0.0,0.0,0.0,0.0,0.0,0.0,0.0,0.0,0.0,0.0,0.0,0.0,0.0,0.0,0.0,0.0,0.0,0.0,0.0,0.0,0.0,0.0,0.0,0.0,0.0,0.0,0.0,0.0,0.0,0.0,0.0,0.0,0.0,0.0,0.0,0.0,0.0,0.0,0.0,-2.6886,-2.6741,-2.6953,-2.7229,-2.6564,-2.7063,-2.7826,-2.6288,0.0,0.0,0.0,0.0,0.0,0.0,0.0,0.0,0.0,0.0,0.0,0.0,0.0,0.0,0.0,0.0,0.0,0.0,0.0,0.0,0.0,0.0,0.0,0.0,-1.9158,-1.9999,-1.9645,-2.0639,-2.1946,-2.3247,-2.419,-2.5267,-2.6565,-2.8173,-2.9221,-2.9917,-3.1564,-3.2912,-3.3987,-3.4115,-3.4814,-3.6266,-3.5817,-3.5727,-3.5956,-3.5462,-3.4969,-3.4463,-3.4049,-3.3657,-3.3281,-3.3381,-3.3381,0.0,-3.3281,-3.3691,-3.4474,-3.5257,-3.5587,0.0,0.0,0.0,0.0,0.0,-3.3342,-3.3734,0.0,0.0,0.0,0.0,0.0,0.0,0.0,0.0,0.0,0.0,0.0,0.0,0.0,0.0,0.0,0.0,0.0,0.0,0.0,0.0,0.0,0.0,0.0,0.0,0.0,0.0,0.0,0.0,0.0,0.0,0.0,0.0,0.0,0.0,0.0,0.0,0.0,0.0,0.0,0.0,0.0,0.0,-2.9905,-2.854,-2.9166,-3.0483,-2.883,-2.8408,-2.8438,-2.7664,0.0,0.0,0.0,0.0,0.0,0.0,0.0,0.0,0.0,0.0,0.0,0.0,0.0,0.0,0.0,0.0,0.0,0.0,0.0,0.0,0.0,0.0,0.0,0.0,-2.0554,-2.1582,-2.2191,-2.2541,-2.3013,-2.3817,-2.4761,-2.5678,-2.6936,-2.8164,-2.9476,-3.0847,-3.1942,-3.3098,-3.448,0.0,0.0,0.0,0.0,-3.4946,-3.5611,-3.5129,-3.4613,-3.4085,-3.3893,-3.3638,-3.3381,-3.358,-3.358,-3.3381,-3.3281,-3.4115,-3.5485,-3.5485,-3.5672,-3.5918,-3.5839,-3.5353,-3.4624,-3.3379,-3.3206,-3.3378,0.0,0.0,0.0,0.0,0.0,0.0,0.0,0.0,0.0,0.0,0.0,0.0,0.0,0.0,0.0,0.0,0.0,0.0,0.0,0.0,0.0,0.0,0.0,0.0,0.0,0.0,0.0,0.0,0.0,0.0,0.0,0.0,0.0,0.0,0.0,0.0,0.0,0.0,0.0,0.0,0.0,0.0,-2.9142,-2.9478,-2.9903,-3.0281,-2.9922,-3.0547,-3.1298,-2.9666,-2.972,-3.0304,-2.9045,0.0,0.0,0.0,0.0,0.0,0.0,0.0,0.0,0.0,0.0,0.0,0.0,0.0,0.0,0.0,0.0,0.0,0.0,0.0,0.0,-2.0702,-2.191,-2.2978,-2.3685,-2.4133,-2.4393,-2.4414,-2.518,-2.6408,-2.8061,-2.9527,-3.1013,-3.2368,-3.3428,-3.4357,-3.5146,-3.5146,0.0,-3.6266,-3.6048,-3.6002,-3.6128,-3.5634,-3.5129,-3.4636,0.0,0.0,-3.358,-3.3679,-3.3679,-3.358,-3.3381,-3.3903,-3.4826,-3.4826,-3.5014,-3.5046,-3.4397,-3.3982,-3.3696,-3.3407,-3.3213,-3.3031,0.0,0.0,0.0,0.0,0.0,0.0,0.0,0.0,0.0,0.0,0.0,0.0,0.0,0.0,0.0,0.0,0.0,0.0,0.0,0.0,0.0,0.0,0.0,0.0,0.0,0.0,0.0,0.0,0.0,0.0,0.0,0.0,0.0,0.0,0.0,0.0,0.0,0.0,0.0,0.0,0.0,0.0,-2.948,-3.0294,-3.0827,-3.1207,-3.1482,-3.2006,-3.2462,-3.1701,-3.158,-3.1688,-3.1294,-3.041,-2.9246,0.0,0.0,0.0,0.0,0.0,0.0,0.0,0.0,0.0,0.0,0.0,0.0,0.0,0.0,-1.7733,0.0,0.0,-2.0395,-2.2224,-2.2924,-2.3547,-2.4393,-2.4701,-2.5061,-2.5527,-2.6415,-2.7713,-2.9485,-3.07,-3.1881,-3.3162,-3.4026,-3.4814,-3.5378,-3.5146,-3.5367,-3.6266,-3.5708,-3.5708,-3.6266,-3.5772,-3.5393,-3.5152,-3.4783,-3.4385,-3.404,-3.3995,-3.3918,-3.4028,-3.3484,-3.3953,-3.4969,-3.51,-3.513,-3.5131,-3.428,-3.3725,-3.3398,-3.3326,-3.314,-3.2898,0.0,0.0,0.0,0.0,0.0,0.0,0.0,0.0,0.0,0.0,0.0,0.0,0.0,0.0,0.0,0.0,0.0,0.0,0.0,0.0,0.0,0.0,0.0,0.0,0.0,0.0,0.0,0.0,0.0,0.0,0.0,0.0,0.0,0.0,0.0,0.0,0.0,0.0,0.0,0.0,0.0,0.0,-3.048,-3.1289,-3.1847,-3.2176,-3.2423,-3.2435,-3.2279,-3.2467,-3.2075,-3.1628,-3.2512,-3.1992,-3.0797,-2.9265,-2.8005,0.0,0.0,0.0,0.0,0.0,0.0,0.0,0.0,0.0,-1.6918,-1.6397,-1.7092,-1.8138,-1.9153,-1.9706,-2.0865,-2.3437,-2.3624,-2.38,-2.4556,-2.465,-2.5168,-2.6627,-2.7373,-2.8535,-3.0442,-3.1513,-3.2546,-3.3695,-3.4491,-3.4925,-3.5256,-3.5035,-3.5146,-3.5938,-3.5256,-3.5268,-3.6266,-3.5864,-3.5611,-3.5508,-3.5107,-3.4809,-3.4388,-3.4199,-3.4188,-3.4237,-3.3942,-3.4228,-3.5035,-3.5518,-3.558,-3.5391,-3.4666,-3.4058,-3.3465,-3.3205,-3.2908,-3.2523,0.0,0.0,0.0,0.0,0.0,0.0,0.0,0.0,0.0,0.0,0.0,0.0,0.0,0.0,0.0,0.0,0.0,0.0,0.0,0.0,0.0,0.0,0.0,0.0,0.0,0.0,0.0,0.0,0.0,0.0,0.0,0.0,0.0,0.0,0.0,0.0,0.0,0.0,0.0,0.0,0.0,0.0,-3.1762,-3.2711,-3.256,-3.1787,-3.1448,-3.0919,-3.0369,-2.9957,-3.0192,-3.0731,-3.1167,-3.1678,-3.1776,-3.0397,0.0,-2.6902,-2.3689,-2.0114,-1.7302,-1.7375,-1.7111,-1.708,0.0,0.0,-1.7632,-1.748,-1.7795,-1.858,-1.9962,-2.056,-2.1573,-2.3626,-2.3624,-2.3705,-2.4187,-2.4025,-2.4588,-2.6546,-2.6811,-2.7763,-2.9925,-3.1501,-3.2929,-3.4336,-3.5488,-3.5708,-3.4703,-3.5598,-3.5708,-3.4703,-3.5598,-3.6157,-3.6266,-3.622,-3.5956,-3.5508,-3.5491,-3.5081,-3.4388,-3.4199,-3.4,-3.386,-3.4932,-3.4943,-3.4554,-3.5923,-3.5942,-3.5188,-3.5035,-3.4565,-3.3746,-3.3257,-3.2487,-3.1637,0.0,0.0,0.0,0.0,0.0,0.0,0.0,0.0,0.0,0.0,0.0,0.0,0.0,0.0,0.0,0.0,0.0,0.0,0.0,0.0,0.0,0.0,0.0,0.0,0.0,0.0,0.0,0.0,0.0,0.0,0.0,0.0,0.0,0.0,0.0,0.0,0.0,0.0,0.0,0.0,0.0,0.0,-3.2377,-3.2927,-3.2077,-3.072,-3.1213,-3.0117,0.0,0.0,-2.8854,-2.869,-2.9321,-3.0004,-3.0316,-2.8682,-2.7929,0.0,-2.2434,-1.9778,0.0,0.0,-1.7638,-1.8437,-1.8869,-1.9126,-1.9239,-1.8916,-1.9297,-1.9904,-2.084,-2.1345,-2.212,0.0,-2.4043,-2.4024,-2.4147,-2.3989,-2.4281,-2.5243,-2.6162,-2.7781,-3.0235,-3.1548,-3.266,-3.3639,-3.443,-3.4984,-3.5039,-3.5614,-3.574,-3.5587,-3.6048,-3.6266,-3.6266,-3.6266,-3.6162,-3.5944,-3.5585,-3.52,-3.4853,-3.414,-3.3568,-3.2958,-3.3846,-3.4268,-3.4354,-3.4917,-3.527,-3.5529,-3.5032,-3.4476,-3.3872,-3.3646,-3.2928,-3.2086,0.0,0.0,0.0,0.0,0.0,0.0,0.0,0.0,0.0,0.0,0.0,0.0,0.0,0.0,0.0,0.0,0.0,0.0,0.0,0.0,0.0,0.0,0.0,0.0,0.0,0.0,0.0,0.0,0.0,0.0,0.0,0.0,0.0,0.0,0.0,0.0,0.0,0.0,0.0,0.0,0.0,0.0,-3.2835,-3.2724,-3.1361,-2.9502,-3.0306,-2.8854,0.0,0.0,-2.6945,-2.6587,-2.7114,-2.7904,-2.8385,-2.6977,-2.6335,-2.5157,-2.1039,0.0,0.0,-1.8027,-1.8976,-2.0203,-1.9984,-2.056,-2.0973,-2.0368,-2.0421,-2.0746,-2.1517,-2.1639,-2.2256,-2.3976,-2.4059,-2.4029,-2.4105,-2.3817,-2.3856,-2.4482,-2.5591,-2.7279,-2.9735,-3.1307,-3.2545,-3.3246,-3.3799,-3.4426,-3.5143,-3.5374,-3.5642,-3.5806,-3.6157,-3.6266,-3.6266,-3.6266,-3.6266,-3.6254,-3.5723,-3.5236,-3.5074,-3.383,-3.3047,-3.2432,-3.2915,-3.3556,-3.4288,-3.4276,-3.5027,-3.5982,-3.542,-3.4738,-3.4123,-3.4123,-3.3305,-3.2244,0.0,0.0,0.0,0.0,0.0,0.0,0.0,0.0,0.0,0.0,0.0,0.0,0.0,0.0,0.0,0.0,0.0,0.0,0.0,0.0,0.0,0.0,0.0,0.0,0.0,0.0,0.0,0.0,0.0,0.0,0.0,0.0,0.0,0.0,0.0,0.0,0.0,0.0,0.0,0.0,0.0,0.0,-3.3267,-3.2369,-3.053,-2.8395,-2.8125,0.0,0.0,0.0,-2.4116,-2.4652,-2.4471,-2.5384,0.0,-2.6125,-2.4181,0.0,0.0,0.0,-1.9233,-2.0612,-2.1738,-2.2359,-2.1796,-2.2294,-2.2679,-2.1609,-2.0757,-2.0654,-2.198,-2.1472,-2.1648,-2.3886,-2.3701,-2.3394,-2.4035,-2.3138,-2.3046,-2.4669,-2.4951,-2.583,0.0,-3.0638,-3.2754,-3.3704,-3.4426,-3.4679,-3.4515,-3.5125,-3.5199,-3.4569,-3.5708,-3.6266,-3.6266,-3.6266,-3.6266,-3.6266,-3.5952,-3.5455,-3.4762,-3.3186,-3.2409,-3.242,-3.2723,-3.3312,-3.4091,-3.4763,-3.5642,-3.6427,-3.632,-3.5655,-3.47,-3.47,-3.3307,-3.1417,0.0,0.0,0.0,0.0,0.0,0.0,0.0,0.0,0.0,0.0,0.0,0.0,0.0,0.0,0.0,0.0,0.0,0.0,0.0,0.0,0.0,0.0,0.0,0.0,0.0,0.0,0.0,0.0,0.0,0.0,0.0,0.0,0.0,0.0,0.0,0.0,0.0,0.0,0.0,0.0,0.0,0.0,-3.6006,-3.3265,-3.0681,-2.8304,0.0,0.0,0.0,0.0,-2.208,-2.1444,-2.1357,0.0,0.0,-2.2713,-2.1796,-2.0594,-1.9238,0.0,-1.9286,-1.9947,-2.1031,-2.2152,-2.3059,-2.398,-2.4524,-2.4169,-2.3598,-2.3125,-2.3162,-2.3118,-2.33,-2.3607,-2.4258,-2.4454,-2.3785,-2.3741,-2.3684,-2.3528,-2.4978,0.0,0.0,0.0,0.0,-3.175,-3.2416,-3.3231,-3.4026,-3.4706,-3.5043,-3.5199,-3.5876,-3.6266,-3.6266,-3.6266,-3.6266,-3.6266,-3.5868,-3.4978,-3.3752,-3.3196,-3.2336,-3.13,-3.1392,-3.2196,-3.3499,-3.3784,-3.4872,-3.6282,-3.5554,-3.5052,-3.4587,-3.347,-3.2353,-3.1361,0.0,0.0,0.0,0.0,0.0,0.0,0.0,0.0,0.0,0.0,0.0,0.0,0.0,0.0,0.0,0.0,0.0,0.0,0.0,0.0,0.0,0.0,0.0,0.0,0.0,0.0,0.0,0.0,0.0,0.0,0.0,0.0,0.0,0.0,0.0,0.0,0.0,0.0,0.0,0.0,0.0,0.0,-3.5162,-3.2437,-3.0113,0.0,0.0,0.0,0.0,0.0,0.0,-1.9381,-1.9139,-1.9628,-2.0167,-1.957,-1.9527,-1.9413,-1.8252,-1.8432,-1.9173,-1.9916,-2.1173,-2.2737,-2.4388,-2.5326,-2.5891,-2.6106,-2.5451,-2.457,-2.3941,-2.3794,-2.3787,-2.3924,-2.4574,-2.4935,-2.4631,-2.4509,-2.44,-2.4216,-2.5246,0.0,0.0,0.0,0.0,-3.0618,-3.1487,-3.2519,-3.3877,-3.4091,-3.461,-3.5497,-3.583,-3.6094,-3.6266,-3.6266,-3.6266,-3.6266,-3.5761,-3.4767,-3.3451,-3.3053,-3.2181,-3.0785,-3.0981,-3.1891,-3.3201,-3.3598,-3.4775,-3.627,-3.5366,-3.4901,-3.4562,-3.3294,-3.2298,-3.1455,0.0,0.0,0.0,0.0,0.0,0.0,0.0,0.0,0.0,0.0,0.0,0.0,0.0,0.0,0.0,0.0,0.0,0.0,0.0,0.0,0.0,0.0,0.0,0.0,0.0,0.0,0.0,0.0,0.0,0.0,0.0,0.0,0.0,0.0,0.0,0.0,0.0,0.0,0.0,0.0,0.0,0.0,-3.1288,-3.0249,0.0,0.0,0.0,0.0,0.0,0.0,0.0,0.0,0.0,-1.824,-1.8623,-1.7044,-1.7451,-1.8218,-1.7287,-1.7766,-1.9004,-2.0504,-2.2187,-2.3929,-2.5633,-2.6333,-2.6677,-2.7225,-2.6129,-2.4895,0.0,0.0,-2.3405,-2.4721,-2.468,-2.5043,-2.6438,-2.5332,-2.4909,0.0,0.0,0.0,0.0,0.0,0.0,-3.0276,0.0,-3.2713,-3.3854,-3.3451,-3.3944,-3.5451,-3.5508,-3.5761,-3.6266,-3.6266,-3.6266,-3.6266,-3.5784,-3.496,-3.391,-3.2906,-3.1776,-3.0785,-3.1381,-3.2185,-3.33,-3.4385,-3.5475,-3.6307,-3.573,-3.519,-3.465,-3.4073,-3.2988,-3.158,0.0,0.0,0.0,0.0,0.0,0.0,0.0,0.0,0.0,0.0,0.0,0.0,0.0,0.0,0.0,0.0,0.0,0.0,0.0,0.0,0.0,0.0,0.0,0.0,0.0,0.0,0.0,0.0,0.0,0.0,0.0,0.0,0.0,0.0,0.0,0.0,0.0,0.0,0.0,0.0,0.0,0.0,-3.3901,0.0,0.0,0.0,0.0,0.0,0.0,0.0,0.0,0.0,0.0,-1.6588,-1.6764,-1.6648,-1.7066,-1.7578,-1.727,-1.7945,-1.9044,-1.9889,-2.156,-2.342,-2.5275,-2.6137,-2.6648,-2.6812,-2.6191,-2.5166,0.0,0.0,0.0,-2.4971,-2.6443,0.0,-2.6932,-2.5815,0.0,-2.6101,0.0,-2.5005,-2.6013,-2.7439,0.0,0.0,-2.9766,-3.1023,-3.2702,-3.3053,-3.3797,-3.4969,-3.5336,-3.5761,-3.6266,-3.6266,-3.6266,-3.6266,-3.614,-3.5075,-3.3274,-3.3046,-3.19,-3.0297,-3.1176,-3.2185,-3.33,-3.4385,-3.5475,-3.627,-3.5316,-3.4851,-3.46,-3.3808,-3.2731,-3.1724,0.0,0.0,0.0,0.0,0.0,0.0,0.0,0.0,0.0,0.0,0.0,0.0,0.0,0.0,0.0,0.0,0.0,0.0,0.0,0.0,0.0,0.0,0.0,0.0,0.0,0.0,0.0,0.0,0.0,0.0,0.0,0.0,0.0,0.0,0.0,0.0,0.0,0.0,0.0,0.0,0.0,0.0,0.0,0.0,0.0,0.0,0.0,0.0,0.0,0.0,0.0,-1.6556,-1.6141,-1.6342,-1.6757,-1.6475,0.0,-1.7057,-1.6893,-1.7795,-1.9002,-1.9643,-2.1292,-2.3165,-2.4655,-2.5262,-2.5487,-2.5521,-2.5261,0.0,0.0,0.0,0.0,0.0,0.0,0.0,-2.7509,-2.666,-2.6203,0.0,-2.5919,0.0,-2.5255,-2.6915,-2.7889,0.0,-2.891,-3.0224,-3.1063,-3.2022,-3.2975,-3.3877,-3.4721,-3.5436,-3.5927,-3.5927,-3.5817,-3.5477,-3.5275,-3.4336,-3.2739,-3.2533,-3.1814,-3.0785,0.0,-3.2889,-3.3993,-3.5078,-3.587,-3.627,-3.5416,-3.4939,-3.4805,-3.4009,-3.2988,-3.2072,0.0,0.0,0.0,0.0,0.0,0.0,0.0,0.0,0.0,0.0,0.0,0.0,0.0,0.0,0.0,0.0,0.0,0.0,0.0,0.0,0.0,0.0,0.0,0.0,0.0,0.0,0.0,0.0,0.0,0.0,0.0,0.0,0.0,0.0,0.0,0.0,0.0,0.0,0.0,0.0,0.0,0.0,0.0,0.0,0.0,0.0,0.0,0.0,0.0,0.0,-1.9131,-1.6983,-1.6562,-1.6957,-1.7468,-1.6629,-1.6584,-1.6768,-1.6683,-1.7803,-1.9161,-1.9825,-2.1511,-2.3177,-2.4167,-2.4207,-2.4099,-2.4007,0.0,-2.3848,-2.328,0.0,-2.4834,-2.5075,0.0,-2.695,-2.8098,-2.7252,-2.6747,-2.7678,-2.6464,-2.5233,-2.447,-2.6008,-2.6744,-2.6155,-2.8574,-2.9835,-2.9659,-3.0888,-3.2044,-3.2973,-3.4189,-3.5005,-3.5367,-3.5367,-3.5035,-3.458,-3.412,-3.3312,-3.2308,-3.1838,-3.1661,-3.1677,0.0,0.0,-3.4872,-3.5966,-3.6452,-3.6402,-3.5755,-3.5436,-3.5226,-3.4564,-3.361,-3.26,0.0,0.0,0.0,0.0,0.0,0.0,0.0,0.0,0.0,0.0,0.0,0.0,0.0,0.0,0.0,0.0,0.0,0.0,0.0,0.0,0.0,0.0,0.0,0.0,0.0,0.0,0.0,0.0,0.0,0.0,0.0,0.0,0.0,0.0,0.0,0.0,0.0,0.0,0.0,0.0,0.0,0.0,0.0,0.0,0.0,0.0,0.0,0.0,0.0,0.0,-2.0183,-1.7998,-1.8232,-1.7564,-1.6684,-1.7024,-1.6625,-1.6441,-1.7903,-1.9213,-2.0422,-2.1491,-2.2977,-2.4183,-2.4272,-2.4207,0.0,0.0,0.0,-2.3914,-2.3315,-2.386,0.0,-2.5698,0.0,0.0,0.0,0.0,-2.4384,0.0,0.0,0.0,0.0,0.0,0.0,0.0,0.0,0.0,-3.0183,-3.1105,-3.248,-3.4425,-3.4527,-3.4904,-3.5367,-3.4925,-3.4814,-3.5256,-3.4656,-3.3962,-3.2942,-3.2463,-3.2066,-3.1677,0.0,0.0,-3.4872,-3.5966,-3.6546,-3.6564,-3.6008,-3.5938,-3.6006,-3.5144,-3.4366,-3.3809,0.0,0.0,0.0,0.0,0.0,0.0,0.0,0.0,0.0,0.0,0.0,0.0,0.0,0.0,0.0,0.0,0.0,0.0,0.0,0.0,0.0,0.0,0.0,0.0,0.0,0.0,0.0,0.0,0.0,0.0,0.0,0.0,0.0,0.0,0.0,0.0,0.0,0.0,0.0,0.0,0.0,0.0,0.0,0.0,0.0,0.0,0.0,0.0,0.0,0.0,-2.0638,-1.8653,-1.903,-1.7932,-1.6691,-1.7109,-1.7176,-1.7497,-1.9175,-2.1033,-2.2717,-2.3355,-2.4367,-2.5015,-2.4037,0.0,0.0,0.0,0.0,-2.2786,-2.2193,0.0,0.0,0.0,0.0,0.0,0.0,0.0,0.0,0.0,0.0,0.0,0.0,0.0,0.0,0.0,0.0,0.0,-2.8329,-3.0473,-3.2558,-3.4249,-3.4758,-3.4813,-3.4502,-3.4166,-3.4166,-3.4491,-3.3748,-3.3278,-3.3038,-3.2086,-3.202,-3.2889,-3.3101,0.0,-3.5846,-3.6332,-3.6734,-3.6883,-3.6616,-3.6352,-3.5968,-3.5502,-3.4743,-3.3788,0.0,0.0,0.0,0.0,0.0,0.0,0.0,0.0,0.0,0.0,0.0,0.0,0.0,0.0,0.0,0.0,0.0,0.0,0.0,0.0,0.0,0.0,0.0,0.0,0.0,0.0,0.0,0.0,0.0,0.0,0.0,0.0,0.0,0.0,0.0,0.0,0.0,0.0,0.0,0.0,0.0,0.0,0.0,0.0,0.0,0.0,0.0,0.0,0.0,0.0,-2.074,-1.8596,-1.8849,-1.7883,-1.6718,-1.7009,-1.778,-1.8905,-2.0646,-2.2838,-2.4753,-2.52,-2.5777,-2.58,-2.4024,-2.343,0.0,0.0,-2.1666,-2.1918,-2.1223,0.0,0.0,0.0,0.0,0.0,0.0,0.0,0.0,0.0,0.0,0.0,0.0,0.0,0.0,0.0,0.0,0.0,-2.714,-2.9904,-3.2158,-3.3721,-3.4336,-3.4405,-3.3625,-3.3417,-3.3417,-3.3829,-3.2972,-3.2836,-3.3252,-3.2154,-3.2488,-3.4091,-3.3784,0.0,0.0,-3.6815,-3.6845,-3.7021,-3.7021,-3.6509,-3.5872,-3.5768,-3.4946,-3.394,0.0,0.0,0.0,0.0,0.0,0.0,0.0,0.0,0.0,0.0,0.0,0.0,0.0,0.0,0.0,0.0,0.0,0.0,0.0,0.0,0.0,0.0,0.0,0.0,0.0,0.0,0.0,0.0,0.0,0.0,0.0,0.0,0.0,0.0,0.0,0.0,0.0,0.0,0.0,0.0,0.0,0.0,0.0,0.0,0.0,0.0,0.0,0.0,0.0,0.0,0.0,-1.7531,-1.7417,-1.6934,-1.643,-1.6838,0.0,0.0,-2.2385,-2.4165,-2.5696,-2.7048,-2.7069,-2.6371,-2.4837,0.0,0.0,-2.2147,-2.2174,-2.2225,-2.1634,-2.0602,0.0,0.0,0.0,0.0,0.0,0.0,0.0,0.0,0.0,0.0,0.0,0.0,0.0,0.0,0.0,0.0,0.0,-2.9972,-3.1186,-3.3156,-3.2717,-3.2863,-3.3625,-3.265,-3.2966,-3.4368,-3.3846,-3.3691,-3.3899,-3.4039,-3.4128,-3.4385,0.0,0.0,0.0,-3.7015,-3.6893,-3.6612,-3.6612,-3.6404,-3.6044,-3.5561,-3.5273,-3.5064,0.0,0.0,0.0,0.0,0.0,0.0,0.0,0.0,0.0,0.0,0.0,0.0,0.0,0.0,0.0,0.0,0.0,0.0,0.0,0.0,0.0,0.0,0.0,0.0,0.0,0.0,0.0,0.0,0.0,0.0,0.0,0.0,0.0,0.0,0.0,0.0,0.0,0.0,0.0,0.0,0.0,0.0,0.0,0.0,0.0,0.0,0.0,0.0,0.0,0.0,0.0,0.0,-1.5127,-1.4712,0.0,0.0,-1.8061,-2.0006,-2.3154,-2.5298,-2.6901,-2.8132,-2.7812,-2.6703,-2.5123,0.0,0.0,-2.1894,-2.1549,-2.125,-2.0375,-1.9498,-1.9064,0.0,0.0,0.0,0.0,0.0,0.0,0.0,0.0,0.0,0.0,0.0,0.0,0.0,0.0,0.0,0.0,-3.0175,-3.1233,-3.1664,-3.1753,-3.2007,-3.2232,-3.1844,-3.2401,-3.4043,-3.3465,-3.352,-3.397,-3.3447,-3.3621,-3.433,0.0,0.0,0.0,-3.6779,-3.6832,-3.6779,-3.6415,-3.6022,-3.5587,-3.5378,-3.5064,-3.4724,0.0,0.0,0.0,0.0,0.0,0.0,0.0,0.0,0.0,0.0,0.0,0.0,0.0,0.0,0.0,0.0,0.0,0.0,0.0,0.0,0.0,0.0,0.0,0.0,0.0,0.0,0.0,0.0,0.0,0.0,0.0,0.0,0.0,0.0,0.0,0.0,0.0,0.0,0.0,0.0,0.0,0.0,0.0,0.0,0.0,0.0,0.0,0.0,0.0,0.0,0.0,0.0,0.0,0.0,0.0,0.0,-1.7612,-1.9952,-2.2873,-2.5217,-2.7078,-2.8074,-2.7355,-2.612,0.0,0.0,-2.2362,-2.1504,-2.0944,-2.0346,-1.9421,-1.8824,-1.8452,0.0,0.0,0.0,0.0,0.0,0.0,0.0,0.0,0.0,0.0,0.0,0.0,0.0,0.0,0.0,0.0,-3.0054,-3.081,-3.0599,-3.0789,-3.0916,-3.0967,-3.1173,-3.1932,-3.3344,-3.3276,-3.3481,-3.3775,-3.3484,-3.3629,-3.4259,0.0,0.0,0.0,-3.6715,-3.6714,-3.6609,-3.6096,-3.5521,-3.5025,-3.5025,-3.4659,-3.4162,0.0,0.0,0.0,0.0,0.0,0.0,0.0,0.0,0.0,0.0,0.0,0.0,0.0,0.0,0.0,0.0,0.0,0.0,0.0,0.0,0.0,0.0,0.0,0.0,0.0,0.0,0.0,0.0,0.0,0.0,0.0,0.0,0.0,0.0,0.0,0.0,0.0,0.0,0.0,0.0,0.0,0.0,0.0,0.0,0.0,0.0,0.0,0.0,0.0,0.0,0.0,0.0,0.0,0.0,0.0,0.0,-1.6865,-2.0233,-2.1281,-2.3554,-2.5795,-2.6483,-2.5411,-2.4268,0.0,0.0,-2.1624,-2.1174,-2.0549,-1.9909,-1.9241,-1.8633,-1.8423,-1.8653,0.0,0.0,0.0,0.0,0.0,0.0,0.0,0.0,0.0,0.0,0.0,0.0,0.0,0.0,0.0,-2.9249,-2.9528,-2.9984,-2.9549,-2.9539,-3.0005,-3.0505,-3.1352,-3.2466,-3.3382,-3.374,-3.3392,-3.4823,-3.4875,0.0,0.0,0.0,0.0,-3.6908,-3.6506,-3.5771,-3.5448,-3.4933,-3.441,-3.441,-3.4071,-3.36,0.0,0.0,0.0,0.0,0.0,0.0,0.0,0.0,0.0,0.0,0.0,0.0,0.0,0.0,0.0,0.0,0.0,0.0,0.0,0.0,0.0,0.0,0.0,0.0,0.0,0.0,0.0,0.0,0.0,0.0,0.0,0.0,0.0,0.0,0.0,0.0,0.0,0.0,0.0,0.0,0.0,0.0,0.0,0.0,0.0,0.0,0.0,0.0,0.0,0.0,0.0,0.0,0.0,0.0,0.0,0.0,0.0,0.0,-2.0937,-2.2461,-2.3553,-2.4416,-2.3787,-2.3088,-2.3183,0.0,-2.0915,-2.1171,-2.0454,-1.9702,-1.9403,-1.8941,-1.8655,-1.9026,-1.9643,0.0,0.0,0.0,0.0,0.0,0.0,0.0,0.0,0.0,0.0,0.0,0.0,0.0,0.0,-2.8932,-2.8897,-2.9052,-2.8597,-2.8587,-2.9052,-2.9547,-3.0375,-3.1356,-3.2017,-3.2273,-3.2345,-3.3268,0.0,0.0,0.0,0.0,0.0,-3.6246,-3.6142,-3.5944,-3.5064,-3.4332,-3.3849,-3.3849,-3.347,-3.2973,0.0,0.0,0.0,0.0,0.0,0.0,0.0,0.0,0.0,0.0,0.0,0.0,0.0,0.0,0.0,0.0,0.0,0.0,0.0,0.0,0.0,0.0,0.0,0.0,0.0,0.0,0.0,0.0,0.0,0.0,0.0,0.0,0.0,0.0,0.0,0.0,0.0,0.0,0.0,0.0,0.0,0.0,-2.5176,0.0,0.0,0.0,0.0,0.0,0.0,0.0,0.0,0.0,0.0,0.0,0.0,0.0,-1.4885,0.0,0.0,-2.0748,-2.1902,-2.26,-2.2157,-2.1629,-2.2078,0.0,-2.0004,-2.0466,-1.9944,-1.9374,-1.9189,-1.8958,-1.8911,-1.9237,-1.9907,0.0,0.0,0.0,0.0,0.0,0.0,0.0,0.0,0.0,0.0,0.0,0.0,0.0,0.0,0.0,-2.869,-2.8866,-2.8255,-2.7986,-2.81,-2.9133,-2.9959,-3.0362,-3.1225,-3.1553,-3.1479,-3.2485,0.0,0.0,0.0,0.0,0.0,-3.524,-3.5279,-3.5418,-3.436,-3.3806,-3.3587,-3.3587,-3.2934,-3.2045,0.0,0.0,0.0,0.0,0.0,0.0,0.0,0.0,0.0,0.0,0.0,0.0,0.0,0.0,0.0,0.0,0.0,0.0,0.0,0.0,0.0,0.0,0.0,0.0,0.0,0.0,0.0,0.0,-2.6007,-2.5588,-2.6044,0.0,0.0,0.0,0.0,0.0,0.0,0.0,0.0,0.0,0.0,0.0,0.0,0.0,0.0,0.0,0.0,0.0,0.0,0.0,0.0,0.0,0.0,0.0,0.0,0.0,0.0,0.0,0.0,0.0,0.0,0.0,-2.0297,-2.0042,-2.1187,0.0,0.0,0.0,-1.9165,-1.8931,-1.8794,-1.8854,-1.9084,-1.9311,-2.0026,0.0,0.0,0.0,0.0,0.0,0.0,0.0,0.0,0.0,0.0,0.0,0.0,0.0,0.0,0.0,-2.8804,-2.9239,-2.8452,-2.78,-2.7355,-2.9246,-2.9947,-2.9543,-3.1038,-3.1479,-3.1008,-3.2442,0.0,0.0,0.0,0.0,0.0,-3.4159,-3.425,-3.4452,-3.3597,-3.332,-3.347,-3.3417,-3.2346,-3.0921,0.0,0.0,0.0,0.0,0.0,0.0,0.0,0.0,0.0,0.0,0.0,0.0,0.0,0.0,0.0,0.0,0.0,0.0,0.0,0.0,0.0,0.0,0.0,0.0,0.0,0.0,0.0,-2.7994,-2.6414,-2.5954,-2.668,-2.4764,0.0,0.0,0.0,0.0,0.0,0.0,0.0,0.0,0.0,0.0,0.0,0.0,0.0,0.0,-2.2494,-2.1272,0.0,0.0,0.0,0.0,0.0,0.0,0.0,0.0,-1.4281,-1.5067,-1.5429,0.0,-1.8145,-1.836,-1.8212,-1.8283,0.0,0.0,0.0,0.0,0.0,0.0,0.0,0.0,-1.887,0.0,0.0,0.0,0.0,0.0,0.0,0.0,0.0,0.0,0.0,0.0,0.0,0.0,0.0,0.0,0.0,0.0,-2.8659,-2.8773,-2.8907,-2.8763,-2.8297,-2.9236,-2.9784,-3.0046,-3.1219,-3.1502,-3.1008,-3.2442,0.0,0.0,0.0,0.0,-3.3814,-3.3493,-3.3602,-3.3749,-3.3102,-3.2554,-3.2202,-3.1757,-3.1065,-3.0268,0.0,0.0,0.0,0.0,0.0,0.0,0.0,0.0,0.0,0.0,0.0,0.0,0.0,0.0,0.0,0.0,0.0,0.0,0.0,0.0,0.0,0.0,0.0,0.0,0.0,0.0,0.0,0.0,0.0,-2.6855,0.0,0.0,0.0,0.0,0.0,0.0,0.0,0.0,0.0,0.0,-2.6022,0.0,0.0,0.0,0.0,0.0,-2.2639,-2.1531,0.0,-1.7783,-1.5531,-1.379,0.0,0.0,0.0,0.0,-1.4336,-1.482,-1.4965,-1.6104,-1.7336,-1.7488,-1.7611,-1.7876,-1.8461,0.0,0.0,0.0,0.0,0.0,0.0,0.0,0.0,0.0,0.0,0.0,0.0,0.0,0.0,0.0,0.0,0.0,0.0,0.0,0.0,0.0,0.0,0.0,0.0,0.0,-2.8394,-2.8918,-2.897,-2.8967,-2.9016,-2.9764,-3.0252,-3.0588,-3.1145,-3.1146,-3.0641,-3.1829,0.0,0.0,0.0,0.0,-3.3008,-3.232,-3.2196,-3.2538,-3.196,-3.1628,-3.1397,-3.1407,-3.0856,-3.0059,0.0,0.0,0.0,0.0,0.0,0.0,0.0,0.0,0.0,0.0,0.0,0.0,0.0,0.0,0.0,0.0,0.0,0.0,0.0,0.0,0.0,0.0,0.0,0.0,0.0,0.0,0.0,0.0,0.0,0.0,0.0,0.0,0.0,0.0,0.0,0.0,0.0,0.0,0.0,0.0,-2.6735,0.0,0.0,0.0,0.0,0.0,0.0,0.0,0.0,-1.8537,-1.6264,-1.4445,-1.456,0.0,0.0,0.0,0.0,0.0,-1.4774,-1.5874,-1.7074,-1.709,-1.7351,-1.7722,-1.8126,0.0,0.0,0.0,0.0,0.0,0.0,0.0,0.0,0.0,0.0,0.0,0.0,0.0,0.0,0.0,0.0,0.0,0.0,0.0,0.0,0.0,0.0,0.0,0.0,0.0,0.0,-2.9073,-2.8711,-2.8812,-2.9306,-3.0262,-3.0789,-3.0868,-3.0967,-3.0732,-3.0193,-3.1009,-3.1111,0.0,0.0,0.0,-3.2096,-3.1121,-3.096,-3.1259,-3.0871,-3.0747,-3.0969,-3.137,-3.0973,-3.0191,0.0,0.0,0.0,0.0,0.0,0.0,0.0,0.0,0.0,0.0,0.0,0.0,0.0,0.0,0.0,0.0,0.0,0.0,0.0,0.0,0.0,0.0,0.0,0.0,0.0,0.0,0.0,0.0,0.0,0.0,-2.7959,-2.7908,-2.7859,0.0,0.0,0.0,0.0,-2.7763,-2.7614,-2.668,-2.7432,0.0,0.0,0.0,0.0,0.0,0.0,0.0,0.0,-2.0105,-1.8132,-1.6366,-1.5299,0.0,0.0,0.0,0.0,0.0,-1.4721,-1.5036,-1.5529,-1.551,-1.5844,-1.6437,-1.7378,0.0,0.0,0.0,0.0,0.0,0.0,0.0,0.0,0.0,0.0,0.0,0.0,0.0,0.0,0.0,0.0,0.0,0.0,0.0,0.0,0.0,0.0,0.0,0.0,0.0,0.0,-2.8121,-2.8069,-2.8331,-2.8935,-2.9786,-3.0275,-3.0296,-3.0778,-3.0732,-3.0193,-3.0548,-3.0387,0.0,0.0,-3.1203,-3.1172,-3.0992,-3.1018,-3.1083,-3.0992,-3.0966,-3.0901,-3.0507,-3.05,-3.061,0.0,0.0,0.0,0.0,0.0,0.0,0.0,0.0,0.0,0.0,0.0,0.0,0.0,0.0,0.0,0.0,0.0,0.0,0.0,0.0,0.0,0.0,0.0,0.0,0.0,0.0,0.0,0.0,0.0,-2.8596,-2.8585,-2.8558,-2.8622,-2.8733,0.0,0.0,0.0,-2.8907,-2.8873,-2.8369,0.0,0.0,0.0,0.0,0.0,0.0,0.0,0.0,0.0,0.0,-1.9137,-1.7577,-1.6896,0.0,0.0,0.0,0.0,0.0,-1.4632,-1.4667,-1.4888,-1.4384,-1.5202,-1.6297,-1.7277,0.0,0.0,0.0,0.0,0.0,0.0,0.0,0.0,0.0,0.0,0.0,0.0,0.0,0.0,0.0,0.0,0.0,0.0,0.0,0.0,0.0,0.0,0.0,0.0,0.0,0.0,0.0,-2.7686,-2.785,-2.8338,-2.878,-2.9266,-2.9908,-3.0328,-3.017,-2.9378,-2.9538,-2.9248,-2.8609,0.0,-3.0011,-3.007,-2.9986,-3.019,-3.0432,-3.0432,-3.057,-3.0846,-3.1103,-3.1245,-3.1276,0.0,0.0,0.0,0.0,0.0,0.0,0.0,0.0,0.0,0.0,0.0,0.0,0.0,0.0,0.0,0.0,0.0,0.0,0.0,0.0,0.0,0.0,0.0,0.0,0.0,0.0,0.0,-2.7557,-2.8446,-2.9063,-2.9427,-2.9238,-2.9336,0.0,0.0,0.0,0.0,-3.0186,-3.0151,-2.9624,0.0,0.0,0.0,0.0,0.0,0.0,0.0,0.0,0.0,0.0,0.0,0.0,0.0,0.0,0.0,-1.6918,-1.6646,-1.6068,-1.488,-1.4813,-1.4896,-1.426,0.0,-1.5899,-1.7447,0.0,0.0,0.0,0.0,0.0,0.0,0.0,0.0,0.0,0.0,0.0,0.0,0.0,0.0,0.0,0.0,0.0,0.0,0.0,0.0,0.0,0.0,0.0,0.0,0.0,0.0,0.0,-2.7282,-2.7379,-2.7745,-2.7839,-2.833,-2.9251,-2.9363,-2.9114,-2.8333,-2.8187,-2.7794,-2.7305,-2.8297,-2.8849,-2.9122,-2.9302,-2.9681,-3.0163,-3.0291,-3.0633,-3.1057,-3.1896,-3.2116,-3.2013,0.0,0.0,0.0,0.0,0.0,0.0,0.0,0.0,0.0,0.0,0.0,0.0,0.0,0.0,0.0,0.0,0.0,0.0,0.0,0.0,0.0,0.0,0.0,0.0,0.0,-2.9056,-2.8785,-2.9292,-2.8869,-2.9303,-3.0467,-3.0173,-3.0217,-3.0637,0.0,0.0,0.0,-3.1774,-3.1462,-2.9812,-3.0223,0.0,0.0,0.0,0.0,0.0,0.0,0.0,0.0,0.0,0.0,0.0,0.0,0.0,-1.7486,-1.6547,-1.6607,-1.6791,-1.5932,-1.5686,-1.5671,-1.5568,0.0,0.0,-1.7624,-1.7849,0.0,0.0,0.0,0.0,0.0,0.0,0.0,0.0,0.0,0.0,0.0,0.0,0.0,0.0,0.0,0.0,0.0,0.0,0.0,0.0,0.0,0.0,0.0,0.0,0.0,0.0,0.0,-2.6888,-2.7338,-2.7331,-2.7646,-2.8107,-2.7633,-2.7403,-2.73,-2.6313,-2.6193,-2.6709,-2.7346,-2.7939,-2.8549,-2.9576,-3.0249,-3.0738,-3.1269,-3.169,-3.2055,-3.2475,-3.2676,-3.2777,0.0,0.0,0.0,0.0,0.0,0.0,0.0,0.0,0.0,0.0,0.0,0.0,0.0,0.0,0.0,0.0,0.0,0.0,0.0,0.0,0.0,0.0,0.0,-3.0341,-2.9481,-2.956,-2.9447,-2.9217,-2.9887,-3.0699,-3.1696,-3.1229,0.0,0.0,0.0,0.0,0.0,-3.1584,-3.1714,-3.119,-3.1574,-3.1541,0.0,0.0,0.0,0.0,0.0,0.0,0.0,0.0,-2.123,-1.9762,0.0,0.0,-1.8441,-1.736,-1.6971,-1.6827,-1.5978,-1.588,-1.592,-1.5818,0.0,0.0,0.0,0.0,0.0,0.0,0.0,0.0,0.0,0.0,0.0,0.0,0.0,0.0,0.0,0.0,0.0,0.0,0.0,0.0,0.0,0.0,0.0,0.0,0.0,0.0,0.0,0.0,0.0,0.0,0.0,-2.6085,-2.679,-2.6764,-2.7015,-2.7531,-2.7321,-2.7059,-2.6726,-2.6037,-2.5838,-2.6134,-2.6668,-2.7287,-2.7964,-2.8898,-2.9633,-3.0281,-3.1284,-3.1785,-3.1981,-3.2792,-3.3086,-3.3157,0.0,0.0,0.0,0.0,0.0,0.0,0.0,0.0,0.0,0.0,0.0,0.0,0.0,0.0,0.0,0.0,0.0,0.0,0.0,0.0,0.0,0.0,0.0,-3.0169,-2.9673,-3.0551,-3.0613,-2.98,-3.1357,-3.2384,-3.2847,0.0,0.0,0.0,0.0,0.0,0.0,0.0,-3.1975,-3.2318,-3.2551,-3.2717,0.0,0.0,0.0,0.0,0.0,0.0,0.0,0.0,0.0,0.0,0.0,0.0,0.0,0.0,-1.733,-1.6871,-1.6171,-1.6203,-1.6346,0.0,0.0,0.0,0.0,0.0,0.0,0.0,0.0,0.0,0.0,0.0,0.0,0.0,0.0,0.0,0.0,0.0,0.0,0.0,0.0,0.0,0.0,0.0,0.0,0.0,0.0,0.0,0.0,0.0,0.0,0.0,0.0,-2.5764,-2.6535,-2.6534,-2.6715,-2.7219,-2.6898,-2.6563,-2.6198,-2.5543,-2.5338,-2.5599,-2.6079,-2.6746,-2.7518,-2.842,-2.9333,-3.0281,-3.1502,-3.2027,-3.2097,-3.2947,-3.3326,-3.3312,0.0,0.0,0.0,0.0,0.0,0.0,0.0,0.0,0.0,0.0,0.0,0.0,0.0,0.0,0.0,0.0,0.0,0.0,0.0,0.0,0.0,0.0,0.0,-3.0648,-3.096,-3.2002,-3.2164,-3.1547,-3.3352,-3.4061,-3.3768,0.0,0.0,0.0,0.0,0.0,0.0,0.0,0.0,-3.3005,-3.299,-3.3479,-3.4101,0.0,0.0,0.0,0.0,0.0,0.0,0.0,-2.097,0.0,0.0,0.0,0.0,0.0,-1.752,-1.7083,-1.6663,-1.6733,-1.7016,0.0,0.0,0.0,0.0,0.0,0.0,0.0,0.0,0.0,0.0,0.0,0.0,0.0,0.0,0.0,0.0,0.0,0.0,0.0,0.0,0.0,0.0,0.0,0.0,0.0,0.0,0.0,0.0,0.0,0.0,0.0,0.0,0.0,-2.6562,-2.6535,-2.6727,-2.7208,-2.6282,-2.5737,-2.567,-2.4659,-2.4539,-2.5075,-2.5639,-2.6402,-2.7268,-2.845,-2.9727,-3.1017,-3.1996,-3.2384,-3.2469,-3.3087,-3.3312,-3.3382,0.0,0.0,0.0,0.0,0.0,0.0,0.0,0.0,0.0,0.0,0.0,0.0,0.0,0.0,0.0,0.0,0.0,0.0,0.0,0.0,0.0,0.0,0.0,0.0,0.0,0.0,-3.3048,-3.4221,-3.358,-3.3651,0.0,0.0,0.0,-3.2927,0.0,0.0,0.0,0.0,0.0,0.0,-3.3504,-3.4299,-3.5152,0.0,0.0,0.0,0.0,0.0,0.0,0.0,0.0,0.0,0.0,0.0,0.0,0.0,-1.7696,-1.7735,-1.7406,-1.7372,0.0,0.0,0.0,0.0,0.0,0.0,0.0,0.0,0.0,0.0,0.0,0.0,0.0,0.0,0.0,0.0,0.0,0.0,0.0,0.0,0.0,0.0,0.0,0.0,0.0,0.0,0.0,0.0,0.0,0.0,0.0,0.0,0.0,0.0,-2.6347,-2.6497,-2.676,-2.7281,-2.6257,-2.5772,-2.5753,-2.5481,-2.5791,-2.6539,-2.6744,-2.7364,-2.8262,-2.8828,-2.9394,-3.0079,-3.0774,-3.1078,-3.1204,-3.2286,-3.2679,-3.279,0.0,0.0,0.0,0.0,0.0,0.0,0.0,0.0,0.0,0.0,0.0,0.0,0.0,0.0,0.0,0.0,0.0,0.0,0.0,0.0,0.0,0.0,0.0,0.0,0.0,-3.2437,-3.3819,0.0,0.0,0.0,0.0,0.0,0.0,-3.2703,0.0,-3.1903,0.0,0.0,0.0,0.0,-3.4218,-3.5194,-3.5876,0.0,0.0,0.0,0.0,0.0,0.0,0.0,0.0,0.0,0.0,0.0,0.0,-1.8506,-1.8115,-1.8103,-1.8355,0.0,0.0,0.0,0.0,0.0,0.0,0.0,0.0,0.0,0.0,0.0,0.0,0.0,0.0,0.0,0.0,0.0,0.0,0.0,0.0,0.0,0.0,0.0,0.0,0.0,0.0,0.0,0.0,0.0,0.0,0.0,0.0,0.0,0.0,0.0,-2.6574,-2.6753,-2.6954,-2.7031,-2.619,-2.5893,-2.5963,-2.6037,-2.6539,-2.7229,-2.7762,-2.83,-2.8844,-2.9162,-2.9415,-2.9673,-3.0355,-3.0594,-3.0642,-3.1787,-3.2255,-3.2591,0.0,0.0,0.0,0.0,0.0,0.0,0.0,0.0,0.0,0.0,0.0,0.0,0.0,0.0,0.0,0.0,0.0,0.0,0.0,0.0,0.0,0.0,0.0,0.0,0.0,0.0,0.0,0.0,0.0,0.0,0.0,0.0,-3.258,-3.2944,0.0,-3.2845,0.0,0.0,0.0,0.0,-3.5004,-3.5861,-3.6251,-3.4887,0.0,0.0,0.0,0.0,0.0,0.0,0.0,0.0,0.0,0.0,-1.9374,-1.9313,-1.8775,-1.838,0.0,0.0,0.0,0.0,0.0,0.0,0.0,0.0,0.0,0.0,0.0,0.0,0.0,0.0,0.0,0.0,0.0,0.0,0.0,0.0,0.0,0.0,0.0,0.0,0.0,0.0,0.0,0.0,0.0,0.0,0.0,0.0,0.0,0.0,0.0,0.0,-2.6916,-2.7188,-2.7078,0.0,-2.6038,-2.5972,-2.6324,-2.6467,-2.6815,-2.743,-2.8638,-2.9162,-2.9162,-2.9477,-2.9602,-2.9659,-3.0411,-3.0573,-3.058,-3.146,-3.2004,-3.25,0.0,0.0,0.0,0.0,0.0,0.0,0.0,0.0,0.0,0.0,0.0,0.0,0.0,0.0,0.0,0.0,0.0,0.0,0.0,0.0,0.0,0.0,0.0,0.0,0.0,0.0,0.0,0.0,0.0,0.0,0.0,0.0,0.0,-3.3262,0.0,-3.2775,0.0,0.0,0.0,0.0,-3.4412,-3.5065,-3.5401,-3.4131,-3.3145,0.0,0.0,0.0,0.0,0.0,0.0,0.0,-2.1819,-2.1295,-2.0795,-1.9727,-1.9483,-1.9657,0.0,0.0,0.0,0.0,0.0,0.0,0.0,0.0,0.0,0.0,0.0,0.0,0.0,0.0,0.0,0.0,0.0,0.0,0.0,0.0,0.0,0.0,0.0,0.0,0.0,0.0,0.0,0.0,0.0,0.0,0.0,0.0,0.0,0.0,0.0,-2.6989,-2.6929,-2.6426,-2.6425,0.0,-2.596,-2.5879,-2.6618,-2.6876,-2.7664,-2.8702,-2.9289,-2.9477,-2.9477,-2.954,-2.9602,-2.9617,-2.9916,-3.0021,-3.0029,-3.0743,-3.1325,-3.1878,0.0,0.0,0.0,0.0,0.0,0.0,0.0,0.0,0.0,0.0,0.0,0.0,0.0,0.0,0.0,0.0,0.0,0.0,0.0,0.0,0.0,0.0,0.0,0.0,0.0,0.0,0.0,0.0,0.0,0.0,0.0,0.0,0.0,-3.3054,0.0,-3.3441,0.0,0.0,0.0,0.0,0.0,-3.4732,-3.5122,-3.4069,-3.3111,0.0,-3.0455,0.0,0.0,0.0,0.0,0.0,0.0,0.0,-2.2247,-2.1512,-2.1186,-2.1378,0.0,0.0,0.0,0.0,0.0,0.0,0.0,0.0,0.0,0.0,0.0,0.0,0.0,0.0,0.0,0.0,0.0,0.0,0.0,0.0,0.0,0.0,0.0,0.0,0.0,0.0,0.0,0.0,0.0,0.0,0.0,0.0,0.0,0.0,-2.7232,-2.7608,-2.7608,-2.7246,-2.702,-2.7066,-2.6254,-2.606,-2.6553,-2.7332,-2.8105,-2.8934,-2.9414,-2.9602,-2.9602,-2.9651,-2.9713,-2.9713,-2.9946,-3.0007,-3.0003,-3.0516,-3.1127,-3.1833,0.0,0.0,0.0,0.0,0.0,0.0,0.0,0.0,0.0,0.0,0.0,0.0,0.0,0.0,0.0,0.0,0.0,0.0,0.0,0.0,0.0,0.0,0.0,0.0,0.0,0.0,0.0,0.0,0.0,0.0,0.0,0.0,0.0,-3.2973,0.0,0.0,0.0,0.0,0.0,0.0,0.0,0.0,0.0,0.0,0.0,0.0,0.0,-2.995,-2.8346,-2.7167,0.0,0.0,0.0,0.0,-2.3465,-2.3326,-2.2936,-2.2949,0.0,0.0,0.0,0.0,0.0,0.0,0.0,0.0,0.0,0.0,0.0,0.0,0.0,0.0,0.0,0.0,0.0,0.0,0.0,0.0,0.0,0.0,0.0,0.0,0.0,0.0,0.0,0.0,0.0,0.0,0.0,0.0,-2.5818,-2.7033,-2.7682,-2.8053,-2.8153,-2.8048,-2.767,-2.6979,-2.6512,-2.6331,-2.6411,-2.7478,-2.8237,-2.8717,-2.935,-2.9602,-2.9665,-2.9761,-2.9822,-2.9884,-3.019,-3.0205,-3.0158,-3.0568,-3.1234,-3.2065,0.0,0.0,0.0,0.0,0.0,0.0,0.0,0.0,0.0,0.0,0.0,0.0,0.0,0.0,0.0,0.0,0.0,0.0,-3.1858,0.0,0.0,-3.5127,0.0,0.0,0.0,0.0,0.0,0.0,0.0,0.0,0.0,0.0,0.0,-3.4241,0.0,0.0,0.0,0.0,0.0,0.0,0.0,0.0,0.0,0.0,0.0,0.0,0.0,0.0,-2.8414,-2.7565,-2.6413,0.0,0.0,0.0,-2.3925,-2.3582,-2.3258,-2.3397,0.0,0.0,0.0,0.0,0.0,0.0,0.0,0.0,0.0,0.0,0.0,0.0,0.0,0.0,0.0,0.0,0.0,0.0,0.0,0.0,0.0,0.0,0.0,0.0,0.0,0.0,0.0,0.0,0.0,0.0,0.0,-2.5892,-2.6061,-2.607,-2.7074,-2.7406,-2.7091,-2.6781,-2.6492,-2.6411,-2.6204,-2.62,-2.6321,-2.6905,-2.7708,-2.8717,-2.935,-2.9651,-2.9747,-2.9808,-2.9884,-3.0111,-3.0266,-3.0266,-3.0326,-3.0881,-3.1467,-3.2,0.0,0.0,0.0,0.0,0.0,0.0,0.0,0.0,0.0,0.0,0.0,0.0,0.0,0.0,0.0,-3.0243,-3.0564,-3.0783,-3.0751,-3.1752,-3.27,-3.3592,-3.4944,0.0,0.0,0.0,0.0,0.0,0.0,0.0,0.0,-3.4561,-3.482,0.0,0.0,0.0,0.0,0.0,0.0,0.0,0.0,0.0,0.0,0.0,0.0,0.0,0.0,0.0,0.0,0.0,-2.7111,-2.5943,-2.5639,0.0,0.0,0.0,-2.5367,0.0,0.0,0.0,0.0,0.0,0.0,0.0,0.0,0.0,0.0,0.0,0.0,0.0,0.0,0.0,0.0,0.0,0.0,0.0,0.0,0.0,0.0,0.0,0.0,0.0,0.0,0.0,0.0,0.0,0.0,0.0,-2.4976,-2.5448,-2.5602,-2.5407,-2.6647,-2.7024,-2.6569,-2.6551,-2.6484,-2.6408,-2.5827,-2.5825,-2.6301,-2.6873,-2.7655,-2.842,-2.8983,-2.9511,-2.996,-3.0068,-3.0144,-3.0219,-3.0387,-3.0673,-3.1014,-3.1248,-3.1905,-3.2664,0.0,0.0,0.0,0.0,0.0,0.0,0.0,0.0,0.0,0.0,0.0,0.0,0.0,0.0,0.0,0.0,-3.0456,-3.0476,-2.9953,-3.0452,-3.1156,-3.1976,-3.3359,-3.3806,0.0,0.0,0.0,0.0,0.0,0.0,-3.608,-3.5703,-3.6133,0.0,-3.5982,0.0,0.0,0.0,0.0,0.0,0.0,0.0,0.0,0.0,0.0,0.0,0.0,0.0,0.0,0.0,0.0,0.0,-2.6658,-2.6726,0.0,0.0,0.0,0.0,0.0,0.0,0.0,0.0,0.0,0.0,0.0,0.0,0.0,0.0,0.0,0.0,0.0,0.0,0.0,0.0,0.0,0.0,0.0,0.0,0.0,0.0,0.0,0.0,0.0,0.0,0.0,0.0,0.0,0.0,-2.5097,-2.5363,-2.554,-2.5487,-2.637,-2.6729,-2.6324,-2.6283,-2.6325,-2.6272,-2.5481,-2.5548,-2.6461,-2.6709,-2.7336,-2.8125,-2.868,-2.9351,-2.9943,-3.0208,-3.0413,-3.0618,-3.0981,-3.1486,-3.2047,-3.2379,-3.2918,-3.352,0.0,0.0,0.0,0.0,0.0,0.0,0.0,0.0,0.0,0.0,0.0,0.0,-3.3375,-3.3343,-3.2593,-3.0908,-3.1237,-3.119,-3.0324,-3.0095,-3.0436,-3.1483,-3.2147,0.0,-3.2433,0.0,0.0,0.0,0.0,0.0,-3.5633,-3.6385,-3.754,-3.8979,-3.6708,-3.4572,-3.2732,0.0,0.0,0.0,0.0,0.0,0.0,0.0,0.0,0.0,0.0,0.0,0.0,0.0,0.0,0.0,-2.6714,-2.6794,-2.7024,0.0,0.0,0.0,0.0,0.0,0.0,0.0,0.0,0.0,0.0,0.0,0.0,0.0,0.0,0.0,0.0,0.0,0.0,0.0,0.0,0.0,0.0,0.0,0.0,0.0,0.0,0.0,0.0,0.0,0.0,0.0,0.0,0.0,-2.6873,-2.6506,-2.6485,-2.6788,-2.6492,-2.6297,-2.629,-2.56,-2.5397,-2.566,-2.4994,-2.5463,-2.6765,-2.6029,-2.6448,-2.7799,-2.8669,-2.9213,-2.9477,-3.0067,-3.0733,-3.1529,-3.2139,-3.2826,-3.3517,-3.4753,-3.481,-3.4333,0.0,0.0,0.0,0.0,0.0,0.0,0.0,0.0,0.0,0.0,0.0,0.0,0.0,-3.3286,-3.2715,-3.1547,-3.0894,-3.0484,-3.025,-3.004,-2.9945,-2.9946,-3.1438,-3.2063,-3.1606,0.0,0.0,0.0,0.0,-3.3877,-3.5368,-3.5308,-3.6016,-3.7142,-3.5687,-3.4678,-3.3924,-3.2649,0.0,0.0,0.0,0.0,0.0,0.0,0.0,0.0,0.0,0.0,0.0,0.0,0.0,0.0,-2.6998,-2.7134,-2.7281,-2.7616,0.0,0.0,0.0,0.0,0.0,0.0,0.0,0.0,0.0,0.0,0.0,0.0,0.0,0.0,0.0,0.0,0.0,0.0,0.0,0.0,0.0,0.0,0.0,0.0,0.0,0.0,0.0,0.0,0.0,0.0,0.0,0.0,-2.663,-2.6541,-2.6274,-2.596,-2.6318,-2.6422,-2.6064,-2.548,-2.5287,-2.5449,-2.4931,-2.501,-2.5546,-2.5669,-2.5988,-2.6547,-2.7674,-2.8699,-2.9522,-2.9739,-3.0499,-3.1545,-3.1765,-3.2463,-3.3339,-3.3849,-3.4096,-3.4217,0.0,0.0,0.0,0.0,0.0,0.0,0.0,0.0,0.0,0.0,0.0,0.0,0.0,0.0,-3.2732,-3.1834,-3.0694,-3.0136,-3.0488,-3.0082,-2.9895,-3.003,-3.1132,-3.1665,-3.1391,0.0,0.0,0.0,0.0,0.0,0.0,-3.4239,-3.4685,-3.589,-3.4716,-3.4318,0.0,0.0,0.0,-3.1989,0.0,0.0,-3.3054,0.0,0.0,0.0,0.0,0.0,0.0,0.0,0.0,0.0,0.0,0.0,0.0,0.0,0.0,0.0,0.0,0.0,0.0,0.0,0.0,0.0,0.0,0.0,0.0,0.0,0.0,0.0,0.0,0.0,0.0,0.0,0.0,0.0,0.0,0.0,0.0,0.0,0.0,0.0,0.0,0.0,0.0,0.0,0.0,0.0,-2.68,-2.6663,-2.6273,-2.5591,-2.5952,-2.5868,-2.5368,-2.5067,-2.4969,-2.5176,-2.4833,-2.4982,-2.5502,-2.5691,-2.5908,-2.617,-2.7041,-2.8239,-2.9591,-2.9796,-3.0773,-3.214,-3.2368,-3.3051,-3.3909,-3.4139,-3.4326,-3.4457,0.0,0.0,0.0,0.0,0.0,0.0,0.0,0.0,0.0,0.0,0.0,0.0,0.0,0.0,0.0,-3.1898,-3.0787,-3.0472,-3.1159,-3.0319,-3.0459,-3.1876,-3.1303,-3.1316,-3.2028,0.0,0.0,0.0,0.0,0.0,0.0,0.0,-3.4,0.0,-3.3947,-3.3599,-3.4235,0.0,-3.394,-3.3531,0.0,-3.2368,-3.283,0.0,0.0,0.0,-3.3671,-3.2482,0.0,-2.9865,0.0,0.0,0.0,0.0,0.0,0.0,0.0,0.0,0.0,0.0,0.0,0.0,0.0,0.0,0.0,0.0,0.0,0.0,0.0,0.0,0.0,0.0,0.0,0.0,0.0,0.0,0.0,0.0,0.0,0.0,0.0,0.0,0.0,0.0,0.0,0.0,0.0,-2.7488,-2.7575,-2.7049,-2.6472,-2.5976,-2.5385,-2.485,-2.4354,-2.4354,-2.4488,-2.4685,-2.4699,-2.5406,-2.6707,-2.6119,-2.6192,-2.6803,-2.6817,-2.7904,-2.9657,-3.0233,-3.1576,-3.3332,-3.4023,-3.4668,-3.5324,-3.5991,-3.5785,-3.5153,0.0,0.0,0.0,0.0,0.0,0.0,0.0,0.0,0.0,0.0,0.0,0.0,-3.4065,-3.392,-3.3916,-3.4204,-3.3926,-3.3703,-3.3563,-3.2913,-3.256,-3.2637,-3.2548,-3.261,-3.2884,0.0,0.0,0.0,0.0,0.0,0.0,0.0,0.0,0.0,-3.4936,-3.4707,-3.4867,-3.3764,0.0,0.0,-3.2891,-3.316,0.0,0.0,0.0,0.0,0.0,-3.2288,-3.1283,0.0,-3.0737,-2.9443,0.0,0.0,0.0,0.0,0.0,0.0,-2.9637,0.0,0.0,0.0,0.0,0.0,0.0,0.0,0.0,0.0,0.0,0.0,0.0,0.0,0.0,0.0,0.0,0.0,0.0,0.0,0.0,0.0,0.0,0.0,0.0,0.0,0.0,0.0,-2.8408,-2.7944,-2.7625,-2.7372,-2.7193,-2.7216,-2.649,-2.5895,-2.5478,-2.5532,-2.5177,-2.438,-2.5015,-2.5292,-2.5221,-2.6032,-2.6451,-2.6708,-2.7519,-2.8682,-2.9977,-2.9864,-3.0922,-3.2541,-3.3256,-3.3889,-3.4478,-3.4649,-3.457,-3.4392,0.0,0.0,0.0,0.0,0.0,0.0,0.0,0.0,0.0,0.0,0.0,0.0,0.0,-3.4965,-3.5096,-3.5204,-3.5204,-3.503,-3.4581,-3.3938,-3.3532,-3.3345,-3.3233,-3.3275,-3.3665,0.0,0.0,0.0,0.0,0.0,0.0,0.0,0.0,0.0,0.0,0.0,0.0,0.0,0.0,0.0,-3.3518,0.0,0.0,-3.3915,-3.3456,0.0,0.0,0.0,-3.3224,-3.3141,-3.2241,0.0,0.0,0.0,0.0,0.0,0.0,0.0,0.0,0.0,0.0,0.0,0.0,0.0,0.0,-3.0878,0.0,0.0,0.0,0.0,0.0,0.0,0.0,0.0,0.0,0.0,0.0,0.0,0.0,0.0,0.0,0.0,0.0,0.0,0.0,0.0,-2.9027,-2.8415,-2.7944,-2.776,-2.7652,-2.7583,-2.6768,-2.6263,-2.6017,-2.5926,-2.5554,-2.4977,-2.5586,-2.5753,-2.5546,-2.6535,-2.6995,-2.701,-2.7926,-2.8856,-2.9738,-3.0103,-3.1165,-3.2652,-3.3323,-3.3815,-3.4101,-3.4101,-3.4101,-3.4101,0.0,0.0,0.0,0.0,0.0,0.0,0.0,0.0,0.0,0.0,0.0,0.0,0.0,0.0,-3.6327,-3.5829,-3.551,-3.5243,-3.5014,-3.4243,-3.3956,-3.4214,-3.3716,-3.3761,-3.4464,0.0,0.0,0.0,0.0,0.0,0.0,0.0,0.0,0.0,0.0,0.0,0.0,0.0,0.0,-3.5017,-3.429,-3.4538,0.0,0.0,-3.5117,0.0,-3.5508,-3.5548,-3.5228,-3.4466,-3.353,0.0,0.0,0.0,0.0,0.0,-3.0073,0.0,0.0,0.0,0.0,0.0,0.0,0.0,-3.0883,-3.073,0.0,0.0,0.0,0.0,0.0,0.0,0.0,0.0,0.0,0.0,0.0,0.0,0.0,0.0,0.0,0.0,0.0,0.0,-3.1851,-3.0607,-2.964,-2.8889,-2.8384,-2.8255,-2.7974,-2.7593,-2.6822,-2.6367,-2.6367,-2.6017,-2.5908,-2.5991,-2.635,-2.6602,-2.682,-2.7399,-2.7665,-2.7715,-2.824,-2.8779,-2.9323,-3.0656,-3.1886,-3.3032,-3.3809,-3.4101,-3.4101,-3.4101,-3.4101,-3.4101,-4.1596,0.0,0.0,0.0,0.0,0.0,0.0,0.0,0.0,0.0,0.0,0.0,0.0,0.0,0.0,-3.9392,-3.7369,-3.6468,-3.7569,-3.6024,-3.5226,-3.5685,-3.511,-3.5086,-3.5732,-3.564,0.0,0.0,0.0,0.0,0.0,0.0,0.0,0.0,0.0,0.0,0.0,0.0,0.0,-3.5579,-3.4742,0.0,-3.5444,-3.4478,-3.4336,-3.469,-3.4557,-3.5115,-3.5829,0.0,-3.3959,-3.3042,0.0,0.0,0.0,0.0,0.0,0.0,0.0,0.0,0.0,0.0,0.0,0.0,-3.1896,-3.1652,-3.1456,0.0,0.0,0.0,0.0,0.0,0.0,0.0,0.0,0.0,0.0,0.0,0.0,0.0,0.0,0.0,0.0,0.0,-3.3271,-3.1941,-3.0112,-2.9028,-2.8935,-2.8685,-2.8599,-2.8672,-2.8065,-2.7584,-2.722,-2.737,-2.6943,-2.5937,-2.7176,-2.7463,-2.6998,-2.8232,-2.8779,-2.8826,-2.9393,-2.9738,-2.9891,-3.0765,-3.1558,-3.2336,-3.3615,-3.4101,-3.4101,-3.4101,-3.4101,-3.4151,-4.2193,0.0,0.0,0.0,0.0,0.0,0.0,0.0,0.0,0.0,0.0,0.0,0.0,0.0,0.0,0.0,0.0,-3.7309,-3.7309,-3.6642,-3.6195,-3.6114,-3.582,-3.5776,-3.6097,-3.6122,-3.6017,0.0,0.0,0.0,0.0,0.0,0.0,0.0,0.0,0.0,0.0,0.0,-3.5271,-3.5316,-3.4791,0.0,-3.5512,-3.3934,-3.3824,-3.4363,-3.3981,-3.4883,-3.6239,-3.5289,-3.5052,0.0,0.0,-3.2533,-3.2397,0.0,-3.2062,-3.1811,0.0,0.0,0.0,-3.2926,0.0,0.0,0.0,-3.2041,0.0,0.0,0.0,0.0,0.0,0.0,0.0,0.0,0.0,0.0,0.0,0.0,0.0,0.0,0.0,0.0,0.0,0.0,-3.3673,-3.2116,-3.1034,-3.0138,-2.9499,-2.9438,-2.9543,-2.9718,-2.9108,-2.8841,-2.9055,-2.8473,-2.7917,-2.7288,-2.7854,-2.7944,-2.7685,-2.8669,-2.9136,-2.9243,-2.9798,-3.0228,-3.0707,-3.1442,-3.2052,-3.269,-3.3356,-3.3809,-3.4101,-3.4101,-3.425,-3.4448,-4.2772,0.0,0.0,0.0,0.0,0.0,0.0,0.0,0.0,0.0,0.0,0.0,0.0,0.0,0.0,0.0,0.0,0.0,0.0,-3.7264,-3.6792,-3.6508,-3.6335,-3.6308,-3.6392,-3.644,-3.6481,-3.6481,0.0,0.0,0.0,0.0,0.0,0.0,0.0,0.0,0.0,0.0,0.0,-3.4764,0.0,-3.515,-3.5465,-3.375,-3.3549,-3.4203,-3.3712,-3.4595,-3.5914,-3.5444,0.0,-3.6024,-3.4519,-3.388,0.0,0.0,0.0,0.0,0.0,0.0,0.0,0.0,0.0,-3.2967,0.0,0.0,0.0,0.0,0.0,0.0,0.0,0.0,0.0,0.0,0.0,0.0,0.0,0.0,0.0,0.0,0.0,0.0,0.0,0.0,-3.371,-3.2286,-3.1825,-3.1113,-3.0017,-3.026,-3.05,-3.069,-3.0258,-3.0338,-3.0981,-2.9925,-2.9264,-2.9012,-2.8826,-2.8622,-2.8436,-2.9011,-2.9319,-2.9486,-3.0032,-3.0658,-3.1352,-3.2089,-3.2747,-3.3225,-3.3307,-3.3664,-3.4101,-3.4234,-3.448,-3.4771,-4.2722,-4.217,0.0,0.0,0.0,0.0,0.0,0.0,0.0,0.0,0.0,0.0,0.0,0.0,0.0,0.0,0.0,0.0,-4.32,0.0,-3.678,-3.7819,-3.7189,-3.6995,-3.7411,-3.7449,-3.7449,-3.7449,0.0,0.0,0.0,0.0,0.0,0.0,-3.5311,0.0,0.0,0.0,-3.4607,0.0,-3.4977,-3.5155,0.0,-3.3781,-3.3763,-3.4297,-3.3874,-3.3803,-3.4074,0.0,-3.4748,-3.5009,0.0,-3.4971,-3.4134,0.0,0.0,0.0,0.0,0.0,0.0,0.0,-3.4182,0.0,0.0,0.0,0.0,0.0,0.0,0.0,0.0,0.0,0.0,0.0,0.0,0.0,0.0,0.0,0.0,0.0,0.0,0.0,0.0,0.0,0.0,-3.3516,-3.184,-3.0734,-3.0609,-3.0952,-3.1271,-3.1477,-3.1984,-3.2314,-3.2481,-3.2563,-3.1795,-3.0182,-3.0838,-3.0261,-2.8791,-2.9479,-2.9858,-2.9962,-3.0789,-3.1204,-3.1352,-3.2089,-3.2747,-3.3274,-3.3925,-3.4136,-3.4134,-3.4721,-3.4941,-3.5081,-4.2014,-4.1339,0.0,0.0,0.0,0.0,0.0,0.0,0.0,0.0,0.0,0.0,0.0,0.0,0.0,0.0,0.0,-4.2005,0.0,0.0,0.0,-3.9935,-3.9171,-3.8895,-3.9155,-3.8707,-3.8241,-3.7775,-3.7775,0.0,0.0,0.0,0.0,0.0,-3.5881,0.0,-3.471,0.0,0.0,0.0,0.0,0.0,0.0,-3.4088,-3.396,-3.3932,-3.382,-3.4263,-3.4864,0.0,-3.5014,0.0,0.0,0.0,0.0,0.0,0.0,0.0,0.0,0.0,0.0,0.0,0.0,0.0,-3.4374,0.0,-3.3919,0.0,0.0,0.0,0.0,0.0,0.0,0.0,0.0,0.0,0.0,0.0,0.0,0.0,0.0,0.0,0.0,0.0,0.0,0.0,0.0,-3.2198,-3.15,-3.2083,-3.2694,-3.3268,-3.3098,-3.3232,-3.3732,-3.3302,-3.2495,-3.135,-3.1454,-3.0886,-2.9688,-3.031,-3.0607,-3.0701,-3.1553,-3.2154,-3.2548,-3.309,-3.368,-3.4215,-3.475,-3.4723,-3.4546,-3.5065,-3.5431,-3.5715,-4.0994,0.0,0.0,0.0,0.0,0.0,0.0,0.0,0.0,0.0,0.0,0.0,-4.6191,-4.5574,0.0,0.0,-4.6683,-4.5234,0.0,0.0,-4.1948,0.0,0.0,0.0,-4.0309,-3.9949,-3.9355,-3.8546,0.0,0.0,0.0,0.0,0.0,0.0,0.0,-3.5953,-3.4965,0.0,0.0,-3.5048,-3.4729,-3.446,-3.4281,-3.4195,-3.399,-3.3713,-3.3767,-3.4565,-3.5352,-3.4275,-3.5109,0.0,-3.4876,0.0,0.0,0.0,0.0,0.0,-3.4192,0.0,0.0,0.0,0.0,0.0,0.0,0.0,0.0,0.0,0.0,0.0,0.0,0.0,0.0,0.0,0.0,0.0,0.0,0.0,0.0,0.0,0.0,0.0,0.0,0.0,0.0,0.0,-3.3861,-3.3203,-3.2201,-3.2975,-3.3846,-3.4661,-3.4067,-3.4177,-3.4976,-3.4321,-3.3465,-3.2454,-3.21,-3.1345,-3.0326,-3.0642,-3.0868,-3.1157,-3.1965,-3.273,-3.3368,-3.4005,-3.4449,-3.4883,-3.5333,-3.5287,-3.5055,-3.5582,-3.5933,-3.6207,-3.9634,-3.9049,0.0,0.0,0.0,0.0,0.0,0.0,0.0,0.0,0.0,0.0,0.0,0.0,0.0,0.0,0.0,-4.9166,-5.0611,0.0,-4.3261,0.0,0.0,-4.1083,0.0,-4.1047,-4.1029,-4.0219,0.0,0.0,0.0,0.0,0.0,0.0,0.0,-3.6445,-3.6738,-3.5602,-3.4873,-3.459,-3.5301,-3.5148,-3.4401,0.0,-3.3713,-3.3986,-3.3869,0.0,0.0,-3.407,-3.4388,0.0,0.0,0.0,0.0,0.0,0.0,0.0,0.0,0.0,0.0,-3.6721,0.0,0.0,0.0,0.0,-3.5424,0.0,0.0,0.0,0.0,0.0,0.0,-3.6502,0.0,0.0,0.0,0.0,0.0,0.0,0.0,0.0,0.0,0.0,0.0,-3.4836,-3.3863,-3.3058,-3.2491,-3.3391,-3.4226,-3.505,-3.4998,-3.5366,-3.6249,-3.619,-3.5307,-3.3546,-3.3212,-3.2083,-3.0293,-3.0033,-3.0368,-3.1157,-3.1873,-3.259,-3.3306,-3.4409,-3.4835,-3.4787,-3.5498,-3.5783,-3.581,-3.6224,-3.6374,-3.6498,0.0,0.0,0.0,0.0,0.0,0.0,0.0,-4.3002,0.0,0.0,0.0,0.0,0.0,0.0,-5.2544,0.0,0.0,-5.1615,-5.0954,-4.8854,0.0,0.0,0.0,-4.4877,0.0,0.0,0.0,0.0,0.0,0.0,0.0,0.0,0.0,0.0,0.0,-3.6236,0.0,0.0,0.0,0.0,0.0,-3.4389,-3.4489,0.0,0.0,-3.4355,-3.4444,-3.5251,0.0,-3.4442,-3.507,-3.6245,-3.4766,-3.4851,-3.5289,-3.4549,-3.5261,0.0,0.0,0.0,-3.7686,-3.7869,0.0,0.0,0.0,0.0,0.0,0.0,0.0,0.0,0.0,0.0,-3.6205,-3.6229,-3.6558,0.0,0.0,0.0,0.0,0.0,0.0,0.0,0.0,0.0,0.0,-3.5429,-3.4512,-3.3684,0.0,-3.3786,-3.4302,-3.4513,-3.4979,-3.5301,-3.5559,-3.5559,-3.5018,-3.39,-3.307,-3.1907,-3.0675,-3.1391,-3.1716,-3.1797,-3.3315,-3.4067,-3.4249,-3.514,-3.547,-3.5453,-3.5958,-3.6131,-3.6174,-3.6485,-3.669,-3.6873,-4.1745,0.0,0.0,0.0,0.0,0.0,0.0,0.0,0.0,0.0,-4.9854,0.0,-5.4697,0.0,-5.4385,0.0,-5.5437,-5.39,-5.2029,-5.1081,0.0,-4.8844,-4.8012,0.0,0.0,0.0,0.0,0.0,0.0,-4.0492,0.0,0.0,0.0,0.0,0.0,0.0,0.0,0.0,-3.5147,0.0,0.0,-3.4211,0.0,0.0,-3.4658,-3.4868,0.0,-3.5652,-3.667,-3.489,-3.5607,-3.695,-3.5266,-3.538,-3.6055,-3.5316,-3.5839,-3.6649,-3.6638,-3.7177,0.0,-3.7959,-3.7462,0.0,-3.6627,0.0,0.0,0.0,0.0,0.0,0.0,0.0,0.0,-3.6219,-3.6482,-3.6627,0.0,-3.7445,0.0,0.0,0.0,0.0,0.0,0.0,-3.6366,-3.5585,-3.4947,-3.4297,0.0,0.0,-3.4684,-3.471,-3.5139,-3.544,-3.5576,-3.5318,-3.4818,-3.4076,-3.2935,-3.1913,-3.0998,-3.1683,-3.2023,-3.2052,-3.3309,-3.3918,-3.415,-3.4722,-3.4967,-3.5027,-3.5383,-3.5704,-3.6063,-3.662,-3.6987,-3.7279,0.0,0.0,0.0,0.0,-4.2521,0.0,0.0,0.0,-4.8684,0.0,-5.1008,-5.353,-5.4291,-5.4842,-5.5721,-5.7134,-5.7159,0.0,-5.3965,-5.3002,0.0,0.0,-4.8387,-4.7174,-4.5508,0.0,0.0,0.0,0.0,0.0,0.0,0.0,0.0,0.0,-3.7676,0.0,-3.5892,-3.5821,-3.5445,-3.4882,-3.478,-3.4669,-3.4539,-3.4472,0.0,-3.552,-3.481,-3.5504,-3.6608,-3.5288,-3.5939,-3.7135,-3.6336,-3.6164,-3.64,-3.6899,-3.6573,-3.618,-3.6915,-3.7137,-3.7171,-3.7216,0.0,0.0,0.0,0.0,-3.665,0.0,0.0,0.0,0.0,0.0,0.0,-3.6467,-3.6584,-3.6644,0.0,0.0,0.0,0.0,0.0,0.0,0.0,-3.7581,-3.6536,-3.5374,-3.514,0.0,0.0,0.0,-3.5226,-3.5427,-3.5436,-3.5642,-3.6128,-3.5439,-3.4731,-3.4024,-3.2923,-3.2015,-3.1295,-3.1015,-3.124,-3.1909,-3.196,-3.2395,-3.3064,-3.3372,-3.3522,-3.3564,-3.394,-3.4666,-3.5614,-3.6597,-3.7206,-3.7595,-4.2619,-4.3059,-4.4141,0.0,-4.4826,-4.3732,0.0,0.0,0.0,0.0,-5.3783,-5.6138,-5.7993,-5.8332,-5.8311,-5.8112,-5.8042,0.0,0.0,0.0,0.0,-5.2552,-5.1701,-5.0234,-4.8025,-4.7011,0.0,-4.3788,0.0,0.0,-4.0782,0.0,0.0,0.0,0.0,0.0,-3.5472,-3.5496,-3.5194,-3.4772,-3.484,-3.5035,0.0,0.0,-3.4489,-3.5588,-3.5402,-3.596,-3.6654,-3.5723,-3.6139,-3.6874,-3.6129,-3.5983,-3.61,-3.6222,-3.6539,-3.6908,-3.7344,-3.7879,-3.8355,-3.8599,-3.8265,-3.7836,0.0,0.0,0.0,0.0,0.0,0.0,0.0,0.0,0.0,0.0,0.0,0.0,0.0,0.0,0.0,0.0,0.0,0.0,-3.9475,-3.8159,-3.7043,-3.6569,-3.5151,0.0,0.0,0.0,0.0,-3.316,-3.4097,-3.4324,-3.3783,-3.3593,-3.3365,-3.3115,-3.2324,-3.1709,-3.123,-3.1772,-3.1948,-3.1943,-3.2731,-3.3186,-3.3414,-3.3778,-3.394,-3.3957,-3.4037,-3.4512,-3.5224,-3.6037,-3.6746,-3.7287,-4.3883,0.0,0.0,-4.726,0.0,0.0,-4.7855,0.0,0.0,-5.2051,-5.4302,0.0,-5.6917,-5.8115,-5.8682,-5.8227,-5.819,0.0,-5.5877,0.0,0.0,-5.3241,-5.2063,-5.0651,-4.8949,-4.6993,0.0,-4.4095,0.0,0.0,-4.0492,0.0,0.0,0.0,0.0,-3.6163,0.0,-3.5722,-3.5819,-3.5792,-3.5687,0.0,0.0,-3.4779,-3.4895,-3.5622,-3.5622,-3.591,-3.6214,-3.5774,-3.622,-3.6871,-3.6491,-3.6471,-3.6602,-3.6663,-3.6775,-3.6991,-3.7143,-3.7565,-3.8004,-3.8211,-3.802,-3.7821,-3.7978,-3.7881,-3.7917,0.0,0.0,0.0,0.0,0.0,0.0,0.0,0.0,0.0,0.0,0.0,0.0,0.0,-3.6958,0.0,-3.8656,-3.7234,-3.6168,-3.602,0.0,0.0,0.0,0.0,0.0,-3.2914,-3.4446,-3.474,-3.3613,-3.3748,-3.3537,-3.3017,-3.231,-3.1783,-3.1479,-3.1927,-3.202,-3.1879,-3.2485,-3.2769,-3.2769,-3.2999,-3.3076,-3.3149,-3.363,-3.4162,-3.467,-3.5186,-3.5915,-3.659,0.0,0.0,0.0,0.0,0.0,0.0,0.0,-5.0591,0.0,-5.1925,0.0,-5.5267,-5.4436,-5.663,-5.8106,-5.7996,0.0,-5.75,-5.593,-5.5413,-5.4459,-5.2907,-5.1203,-4.9862,-4.8931,-4.6432,-4.4747,0.0,0.0,0.0,0.0,0.0,0.0,0.0,0.0,0.0,0.0,-3.6181,-3.6666,0.0,-3.6663,-3.6429,-3.6241,-3.5725,-3.5582,-3.5622,-3.5622,-3.5622,-3.5622,-3.5622,-3.6169,-3.6865,-3.6921,-3.7055,-3.7188,-3.7335,-3.6997,-3.6643,-3.6725,-3.6886,-3.7009,-3.7126,-3.7299,-3.7487,-3.7559,-3.7879,-3.83,-3.8762,-3.8931,-3.9175,0.0,0.0,0.0,0.0,0.0,0.0,0.0,0.0,0.0,0.0,0.0,0.0,0.0,-3.5788,-3.4961,0.0,0.0,0.0,0.0,0.0,0.0,-3.3405,-3.5256,0.0,-3.4456,0.0,-3.427,-3.3351,-3.2564,-3.2073,-3.1856,-3.18,-3.1783,-3.18,-3.18,-3.18,-3.18,-3.18,-3.1837,-3.1962,-3.3002,-3.3647,-3.4042,-3.4248,-3.4897,-3.5718,0.0,0.0,0.0,0.0,0.0,-4.9446,-5.218,-5.3693,-5.4555,-5.4653,-5.6755,-5.8103,-5.7765,-5.877,-5.9202,-5.8516,-5.9139,0.0,0.0,0.0,0.0,-5.4644,-5.2472,-5.0598,-4.8949,-4.5987,-4.4048,0.0,-4.089,-3.9731,-3.955,0.0,0.0,0.0,0.0,0.0,-3.5638,-3.6384,0.0,-3.6123,-3.6045,-3.612,-3.6232,-3.5469,-3.5369,-3.5622,-3.5622,-3.5622,-3.5622,-3.5622,-3.5768,-3.6021,-3.6137,-3.6268,-3.6414,-3.6465,-3.6446,-3.6444,-3.6829,-3.6987,-3.7126,-3.7703,-3.788,-3.8,-3.8446,-3.8621,-3.8946,-3.9878,-3.964,-3.9496,-4.0259,0.0,0.0,0.0,0.0,0.0,0.0,0.0,0.0,0.0,0.0,0.0,0.0,0.0,0.0,0.0,0.0,0.0,0.0,0.0,0.0,0.0,0.0,0.0,0.0,0.0,-3.3407,-3.3771,-3.2704,-3.2197,-3.2109,-3.1802,-3.1709,-3.18,-3.18,-3.18,-3.18,-3.18,-3.1948,-3.2266,-3.2663,-3.3167,-3.3647,-3.389,-3.4215,-3.4481,0.0,0.0,0.0,0.0,0.0,0.0,0.0,-5.6706,0.0,-5.5578,-5.6313,-5.6968,-5.6853,-5.8539,-5.9308,-5.8465,-5.8784,-5.8409,-5.7022,-5.6181,-5.5091,-5.3622,-5.1487,0.0,-4.866,-4.5151,-4.3353,-4.3487,-4.0496,-3.9264,-3.9662,0.0,0.0,0.0,0.0,-3.6273,0.0,0.0,0.0,-3.6518,-3.5864,-3.5879,-3.6211,-3.5405,-3.5462,-3.5915,-3.5711,-3.5622,-3.5667,-3.5622,-3.5622,-3.5711,-3.5844,-3.5993,-3.6037,-3.571,-3.5756,-3.5873,-3.5902,-3.6266,-3.6789,-3.7302,-3.786,-3.8364,-3.8634,-3.8815,-3.9118,-3.9704,-3.9544,-3.9455,-3.9944,-3.9294,0.0,0.0,0.0,0.0,0.0,0.0,0.0,0.0,0.0,0.0,0.0,0.0,0.0,0.0,0.0,0.0,0.0,0.0,0.0,0.0,0.0,0.0,0.0,0.0,0.0,-3.4135,-3.3173,-3.2669,-3.2486,-3.2317,-3.2162,-3.2055,-3.2055,-3.2173,-3.2369,-3.2574,-3.2932,-3.3351,-3.3069,-3.3508,-3.4293,-3.4015,-3.4301,-3.4866,0.0,-4.842,0.0,0.0,-5.2759,0.0,0.0,-5.8651,-5.9454,-5.6786,-5.6368,-5.6262,-5.6227,-5.8125,-5.9095,-5.8415,-5.8188,-5.7418,-5.5814,-5.5043,-5.3921,-5.2283,-5.0444,-4.9101,-4.8272,-4.4864,-4.3212,0.0,-4.0537,-3.9327,0.0,0.0,0.0,0.0,0.0,0.0,0.0,0.0,-3.7186,-3.6825,-3.5642,-3.5626,-3.6274,-3.5451,-3.5717,-3.6433,-3.6054,-3.5985,-3.6071,-3.5985,-3.5827,-3.5667,-3.5888,-3.6002,-3.6019,-3.5411,-3.5427,-3.558,-3.5119,-3.5562,-3.6287,-3.6638,-3.738,-3.8126,-3.837,-3.8615,-3.8869,-3.9154,-3.9219,-3.9272,-3.9376,-3.8801,0.0,0.0,0.0,0.0,0.0,0.0,0.0,0.0,0.0,0.0,0.0,0.0,0.0,0.0,0.0,0.0,0.0,0.0,0.0,0.0,0.0,-3.4619,-3.4546,0.0,-3.4579,0.0,-3.3629,-3.3111,-3.289,-3.2813,-3.2651,-3.242,-3.2579,-3.295,-3.3413,-3.3687,-3.4173,-3.4666,-3.4063,-3.4454,-3.5329,-3.4729,-3.4925,-3.5516,0.0,0.0,0.0,0.0,0.0,0.0,0.0,-5.8288,-6.0284,-5.9892,-5.9824,-5.9775,-5.9657,-5.9239,-5.8897,-5.8821,-5.8187,-5.7085,-5.5557,-5.5023,-5.4044,-5.236,-5.1055,-4.9599,-4.79,-4.6109,-4.4119,0.0,0.0,-3.9981,-3.9245,-3.8155,0.0,0.0,0.0,0.0,0.0,-3.7051,-3.6765,-3.5963,-3.5115,-3.5457,-3.6397,-3.5596,-3.6043,-3.7097,-3.6943,-3.6943,-3.7076,-3.7058,-3.6498,-3.5861,-3.6224,-3.6433,-3.6481,-3.6194,-3.6148,-3.6114,-3.5502,-3.5408,-3.5594,-3.6055,-3.6278,-3.6575,-3.755,-3.7821,-3.8052,-3.8773,-3.8979,-3.9036,-3.9036,-3.9017,-3.9036,0.0,0.0,0.0,0.0,0.0,0.0,0.0,0.0,0.0,0.0,0.0,0.0,0.0,0.0,0.0,0.0,0.0,0.0,-3.1481,0.0,-3.4238,-3.4944,-3.4257,0.0,-3.4916,-3.376,-3.3214,-3.3243,-3.2876,-3.2716,-3.2766,-3.3529,-3.4278,-3.4991,-3.5162,-3.5443,-3.5757,-3.5816,-3.6084,-3.6451,-3.643,-3.6055,-3.559,0.0,0.0,0.0,0.0,0.0,0.0,0.0,-5.8467,-5.9453,-5.892,-5.9722,-6.0142,-5.956,-5.9216,-5.8625,-5.7614,-5.6782,-5.5741,-5.4415,-5.3491,-5.2258,-5.0579,-4.9374,-4.814,-4.6817,-4.5195,-4.3712,0.0,0.0,-4.04,-3.9609,-3.8964,0.0,0.0,0.0,-3.7317,-3.7443,-3.6612,-3.5982,-3.5478,-3.4614,-3.5057,-3.6132,-3.5562,-3.6288,-3.7524,-3.721,-3.7173,-3.723,-3.721,-3.696,-3.6661,-3.6843,-3.6587,-3.6191,-3.5652,-3.5207,-3.4827,-3.4281,-3.4501,-3.4938,-3.5334,-3.5852,-3.6526,-3.744,-3.7681,-3.7931,-3.8726,-3.895,-3.8979,-3.8979,-3.9045,-3.9101,0.0,0.0,0.0,0.0,0.0,0.0,0.0,0.0,0.0,0.0,0.0,0.0,0.0,0.0,0.0,0.0,0.0,0.0,-3.2155,0.0,-3.4899,-3.5771,-3.5365,-3.5604,-3.6486,-3.5005,-3.428,-3.4308,-3.3655,-3.3544,-3.3898,-3.4965,-3.5783,-3.6335,-3.6335,-3.6607,-3.6996,-3.6555,-3.6804,-3.7328,-3.6872,-3.6798,-3.6909,-5.1863,0.0,-5.3165,0.0,-5.5423,-5.5853,-5.7404,-5.8291,-5.8563,-5.7989,-5.8945,-5.9434,-5.8822,-5.8517,-5.7791,-5.6358,-5.5498,-5.4421,-5.2968,-5.2151,-5.0956,-4.9171,-4.842,0.0,-4.6244,-4.5048,-4.3904,-4.2794,-4.1941,0.0,-3.9637,0.0,0.0,0.0,-3.8197,-3.7821,-3.7868,-3.6456,-3.5516,-3.4914,-3.4452,-3.4981,-3.6012,-3.5965,-3.6841,-3.8016,-3.7703,-3.7632,-3.7649,-3.7398,-3.7291,-3.7256,-3.7076,-3.6524,-3.581,-3.5178,-3.4666,-3.4168,-3.3597,-3.3866,-3.436,-3.4596,-3.5138,-3.591,-3.6977,-3.7245,-3.7598,-3.8649,-3.891,-3.895,-3.895,-3.9045,-3.9129,-3.9192,0.0,0.0,0.0,0.0,0.0,0.0,-3.5718,-3.4655,-3.4352,0.0,0.0,0.0,0.0,0.0,0.0,0.0,0.0,0.0,0.0,0.0,0.0,-3.6208,-3.6483,-3.711,-3.5697,-3.499,-3.4972,-3.4697,-3.5017,-3.5854,-3.6997,-3.7693,-3.7997,-3.7948,-3.8003,-3.8118,-3.7553,-3.7718,-3.8172,-3.7615,-3.7493,-3.7519,-5.2666,-5.3683,-5.4545,-5.537,-5.6923,-5.7766,-5.6961,-5.7481,-5.8011,-5.8011,-5.7978,-5.7925,-5.7925,-5.7141,-5.6301,-5.5498,-5.4619,-5.3277,-5.1252,-5.1434,-5.0716,0.0,0.0,-4.8277,-4.6538,-4.6481,-4.5258,-4.2794,0.0,0.0,-3.8993,0.0,-3.862,-3.8658,-3.9227,-3.8686,-3.7371,-3.6758,-3.5569,-3.4148,-3.4679,-3.5363,-3.6186,-3.6961,-3.7863,-3.8658,-3.851,-3.8559,-3.8579,-3.7771,-3.7496,-3.7387,-3.6793,-3.6098,-3.5435,-3.5027,-3.4952,-3.4807,-3.4027,-3.3807,-3.3807,-3.3807,-3.3825,-3.4266,-3.5936,-3.6321,-3.6762,-3.8377,-3.881,-3.891,-3.891,-3.8989,-3.921,-3.9433,0.0,0.0,0.0,0.0,0.0,0.0,-3.6953,-3.6095,-3.5346,0.0,0.0,0.0,0.0,0.0,0.0,0.0,0.0,-3.3858,-3.4605,0.0,-3.6285,-3.6303,-3.6303,-3.6303,-3.544,-3.499,-3.5027,-3.5947,-3.7284,-3.8892,-3.9704,-4.0074,-4.0074,-4.0115,-3.9682,-3.8989,-3.9055,-3.9082,-3.9082,-3.9064,-3.8141,-3.6926,-5.2909,-5.3351,-5.3985,-5.5388,-5.5596,-5.5689,-5.5957,-5.6654,-5.6951,-5.6381,-5.6747,-5.6646,-5.5498,-5.5619,-5.5441,0.0,-5.2671,-5.116,0.0,-4.9238,-4.8137,-4.6935,-4.6998,-4.6606,-4.5698,-4.5679,-4.4991,-4.3634,0.0,0.0,0.0,-3.9795,-3.9452,-3.888,-3.9069,-3.8594,-3.7566,-3.7211,-3.6667,-3.6072,-3.6077,-3.6463,-3.7081,-3.7338,-3.7943,-3.8634,-3.8016,-3.7863,-3.7753,-3.6945,-3.6285,-3.576,-3.5568,-3.5356,-3.513,-3.5007,-3.4587,-3.4137,-3.3862,-3.3807,-3.3807,-3.3807,-3.4211,-3.4926,-3.6046,-3.7147,-3.8083,-3.8597,-3.881,-3.891,-3.891,-3.9007,-3.9129,-3.9219,-3.9421,0.0,0.0,0.0,0.0,0.0,-3.7117,-3.6423,0.0,-3.5453,0.0,0.0,0.0,0.0,0.0,0.0,0.0,0.0,-3.615,0.0,-3.711,-3.7661,-3.7936,-3.7936,-3.7661,-3.7562,-3.7584,-3.7395,-3.7866,-3.891,-3.9169,-3.9309,-3.9338,-3.9367,-3.9276,-3.9073,-3.9101,-3.9101,-3.9129,-3.9192,-3.8954,-3.8558,-5.2549,-5.2722,-5.3145,-5.4511,-5.4586,-5.46,-5.5122,-5.5842,-5.6141,-5.5604,-5.5691,-5.5418,-5.4364,-5.4106,0.0,-5.2747,-5.1219,-4.9945,-4.9087,-4.8055,-4.7105,-4.6288,-4.625,-4.5963,-4.5316,0.0,0.0,-4.3558,-4.2087,-4.0845,-3.9814,-3.9814,-3.9527,-3.9011,-3.9242,-3.8861,-3.8004,-3.7341,-3.6986,-3.6801,-3.6244,-3.6436,-3.7074,-3.7367,-3.7606,-3.7771,-3.7551,-3.7294,-3.6909,-3.6083,-3.5459,-3.4935,-3.4651,-3.4559,-3.4559,-3.4559,-3.4192,-3.3807,-3.3807,-3.3807,-3.3807,-3.3807,-3.4412,-3.5302,-3.6486,-3.7544,-3.8352,-3.8695,-3.8851,-3.8939,-3.8939,-3.9036,-3.911,-3.9219,-3.9489,-3.9547,-3.9213,0.0,0.0,0.0,0.0,0.0,0.0,-3.6196,0.0,0.0,0.0,0.0,0.0,0.0,0.0,-3.5994,-3.7143,0.0,-3.7978,-3.8493,-3.875,-3.878,-3.8467,-3.835,-3.8401,-3.8256,-3.8654,-3.9478,-3.9774,-3.9767,-3.9517,-3.9517,-3.9342,-3.9101,-3.9101,-3.9129,-3.921,-3.9272,-3.917,-3.9027,-5.1741,-5.1875,0.0,0.0,-5.3818,0.0,-5.4395,-5.4987,-5.5423,-5.5423,-5.4725,-5.42,-5.4124,-5.2628,-5.1223,-5.023,0.0,0.0,0.0,-4.7665,-4.7264,-4.6462,-4.6424,-4.6061,-4.5316,-4.5297,-4.4475,-4.2794,-4.0368,-3.9145,-3.9088,-3.903,-3.8973,-3.8917,-3.9485,-3.9248,-3.8353,-3.7181,-3.6649,-3.6523,-3.5515,-3.5587,-3.6376,-3.711,-3.6945,-3.6376,-3.7074,-3.6835,-3.6083,-3.5192,-3.4917,-3.477,-3.4045,-3.3807,-3.3807,-3.3807,-3.3807,-3.3807,-3.3807,-3.3807,-3.3807,-3.3807,-3.4412,-3.5459,-3.714,-3.7566,-3.7816,-3.8656,-3.891,-3.9026,-3.9007,-3.9036,-3.9144,-3.9408,-3.94,-3.9171,-3.8599,0.0,0.0,0.0,0.0,0.0,0.0,-3.7414,-3.6913,0.0,0.0,0.0,0.0,0.0,-3.7276,-3.6951,-3.7754,-3.8375,-3.8833,-3.8932,-3.9017,-3.9058,-3.8264,-3.7951,-3.8063,-3.8795,-3.9565,-4.0438,-4.1126,-4.0996,-4.0308,-4.0308,-3.9825,-3.9129,-3.9129,-3.9192,-3.9324,-3.9324,-3.9014,-3.858,0.0,0.0,-5.1452,-5.2933,-5.2818,-5.2741,-5.3414,-5.3643,-5.3778,-5.3778,-5.3541,-5.3135,-5.2464,-5.1442,-5.0172,-4.8675,-4.8499,-4.8018,-4.6946,-4.6254,-4.5793,-4.5583,-4.5583,-4.5488,-4.5297,-4.5297,-4.4475,-4.2794,-4.1533,-4.0597,-3.9986,-3.9317,-3.8648,-3.8018,-3.8004,-3.7524,-3.6687,-3.6694,-3.6694,-3.6649,-3.6159,-3.6119,-3.6321,-3.6505,-3.6468,-3.6229,-3.5771,-3.5477,-3.5174,-3.4376,-3.4082,-3.4045,-3.3862,-3.3807,-3.3807,-3.3807,-3.3807,-3.3807,-3.3807,-3.3807,-3.3807,-3.3807,-3.4412,-3.544,-3.718,-3.7595,-3.7845,-3.8715,-3.8921,-3.9064,-3.9264,-3.8801,-3.8501,-3.8776,-3.8436,-3.8003,-3.7654,-3.7145,0.0,0.0,-3.7804,-3.7543,-3.6907,-3.7475,-3.7452,0.0,0.0,0.0,0.0,-3.8988,-3.9296,-3.8362,-3.9406,-3.9728,-3.921,-4.0237,-4.0775,-4.072,-3.9967,-3.996,-4.06,-4.0232,-4.0197,-4.0364,-3.99,-3.9584,-3.9398,-3.9398,-3.9342,-3.9245,-3.9245,-3.935,-3.9477,-3.9575,-3.9515,-3.9433,-5.1183,-5.0991,-5.0991,-5.1895,-5.1972,-5.2068,-5.2529,-5.2953,-5.3203,-5.3203,-5.2815,-5.2352,-5.1912,-5.0737,-4.9469,-4.8164,-4.7624,-4.6989,-4.6108,-4.5609,-4.5339,-4.5338,-4.5338,-4.5338,-4.5297,-4.5297,-4.4475,-4.2794,-4.1552,-4.052,-3.9699,-3.9221,-3.8497,-3.7566,-3.7709,-3.7235,-3.6389,-3.6572,-3.6615,-3.6444,-3.566,-3.5478,-3.5716,-3.5716,-3.5477,-3.5147,-3.5027,-3.4752,-3.4394,-3.3954,-3.3807,-3.3807,-3.3807,-3.3807,-3.3807,-3.386,-3.386,-3.386,-3.386,-3.3868,-3.4005,-3.441,-3.4494,-3.5091,-3.7163,-3.7386,-3.7488,-3.8699,-3.912,-3.9272,-3.9427,-3.8855,-3.8429,-3.858,-3.808,-3.7487,-3.6958,-3.6766,0.0,-3.7696,-3.7909,-3.7969,-3.7892,-3.8315,-3.8238,-3.7353,0.0,0.0,-3.8584,-3.9796,-3.9989,-3.8842,-4.0217,-4.0679,-4.0077,-4.087,-4.1185,-4.0979,-4.0235,-4.0049,-4.0399,-3.9983,-3.9807,-3.977,-3.9305,-3.911,-3.9192,-3.9192,-3.9272,-3.9401,-3.9401,-3.9458,-3.9599,-3.967,-3.9739,-3.9804,-5.0375,-5.0625,-5.0702,-5.0683,-5.126,-5.1722,-5.1722,-5.2356,-5.2818,-5.2818,-5.2183,-5.1683,-5.1548,-5.0144,-4.8856,-4.799,-4.7069,-4.6225,-4.5458,-4.54,-4.54,-4.5399,-4.5399,-4.5379,-4.5338,-4.5069,-4.4228,-4.2814,-4.0998,-3.9737,-3.901,-3.8744,-3.8118,-3.7221,-3.7536,-3.7216,-3.6354,-3.631,-3.6173,-3.5911,-3.4698,-3.4456,-3.489,-3.4835,-3.4394,-3.3899,-3.4578,-3.4394,-3.3807,-3.3807,-3.3807,-3.3807,-3.3807,-3.3807,-3.3815,-3.3902,-3.3972,-3.3998,-3.3972,-3.4005,-3.4215,-3.4955,-3.467,-3.48,-3.7072,-3.7201,-3.7273,-3.8813,-3.9331,-3.9556,-3.9604,-3.8972,-3.8512,-3.8686,-3.7908,-3.7099,-3.6525,0.0,-3.7026,-3.7892,-3.8123,-3.8488,-3.9219,-3.9296,-3.8988,-3.8257,-3.8873,-3.9411,0.0,-4.02,-4.012,-3.9279,-4.0654,-4.1395,-4.1377,-4.1044,-4.0929,-4.099,-4.0209,-3.9649,-3.9305,-3.9417,-3.9342,-3.9129,-3.9129,-3.9192,-3.9324,-3.9324,-3.9427,-3.9532,-3.9532,-3.9623,-3.9717,-3.9717,-3.9804,-3.993,-4.9661,-5.022,-5.0702,-5.0702,-5.0798,-5.0894,-5.0894,-5.0991,-5.1087,-5.1087,-5.0971,-5.0606,-4.9875,-4.8894,-4.7971,-4.7163,-4.6279,-4.5685,-4.5495,-4.5438,-4.54,-4.54,-4.54,-4.54,-4.5381,-4.4001,-4.3139,-4.287,-4.0478,-3.9216,-3.9044,-3.7577,-3.6671,-3.6272,-3.5684,-3.5183,-3.4836,-3.4817,-3.4813,-3.4749,-3.4362,-3.4247,-3.4284,-3.4052,-3.3917,-3.3825,-3.3935,-3.3917,-3.3807,-3.3807,-3.3807,-3.3807,-3.3807,-3.3842,-3.3921,-3.4117,-3.4279,-3.4386,-3.426,-3.4242,-3.4279,-3.4409,-3.4785,-3.5451,-3.6715,-3.7499,-3.8289,-3.9429,-3.9709,-3.9838,-4.0061,-3.8804,-3.8075,-3.9029,-3.7294,-3.6022,-3.6579,0.0,-3.7026,-3.7892,-3.8642,-3.9142,-3.9277,-3.9296,-3.9238,-3.9104,-3.9219,-3.9912,-4.1335,-4.0835,-4.0777,-4.1393,-4.1416,-4.1945,-4.3085,-4.1048,-4.0953,-4.2787,-4.1942,-4.1052,-4.0215,-4.0903,-4.0505,-3.9272,-3.9272,-3.935,-3.9477,-3.9477,-3.9551,-3.967,-3.967,-3.9739,-3.9867,-3.9867,-3.9911,-4.0089,-4.9408,-5.0179,-5.0739,-5.0721,-5.0702,-5.0702,-5.0702,-5.0702,-5.0529,-5.0048,-4.999,-4.9663,-4.8798,-4.7952,-4.7298,-4.6932,-4.6105,-4.5586,-4.5568,-4.5513,-4.5495,-4.5476,-4.5438,-4.5227,-4.4767,-4.354,-4.2678,-4.2237,-4.013,-3.8867,-3.8427,-3.7094,-3.6115,-3.5458,-3.5514,-3.5169,-3.4526,-3.5124,-3.5028,-3.4486,-3.4416,-3.4298,-3.4173,-3.3895,-3.3807,-3.3807,-3.3807,-3.3815,-3.3842,-3.3842,-3.3868,-3.3921,-3.4037,-3.4093,-3.4165,-3.4442,-3.4591,-3.467,-3.4632,-3.4614,-3.4614,-3.4614,-3.519,-3.5972,-3.6895,-3.7788,-3.8682,-3.9605,-3.9903,-4.0062,-4.0196,-3.8908,-3.8147,-3.9127,-3.7161,0.0,0.0,-3.7411,-3.7719,-3.8604,-3.9854,-4.0642,-4.0642,-4.1062,-4.1347,-4.1347,-4.1347,-4.169,-4.2495,-4.1728,-4.1667,-4.2564,-4.2434,-4.285,-4.3961,-4.2814,-4.2633,-4.3397,-4.2186,-4.1199,-4.0523,-4.0466,-4.008,-3.9427,-3.9427,-3.9483,-3.9623,-3.9623,-3.9693,-3.9804,-3.9804,-3.9867,-3.9911,-3.9933,-4.0279,-4.0701,-4.8822,-4.9787,-5.0503,-5.0412,-5.0586,-5.0702,-5.0702,-5.0702,-5.0375,-4.951,-4.9394,-4.899,-4.7952,-4.7278,-4.6817,-4.6624,-4.599,-4.5586,-4.5586,-4.5586,-4.5568,-4.5532,-4.5513,-4.5207,-4.4536,-4.3481,-4.2637,-4.2023,-4.0068,-3.8706,-3.7881,-3.6952,-3.5938,-3.4963,-3.5609,-3.5438,-3.4672,-3.5533,-3.5438,-3.4676,-3.4634,-3.4529,-3.4348,-3.4105,-3.3979,-3.3928,-3.3928,-3.3954,-3.4005,-3.4005,-3.408,-3.4184,-3.4334,-3.4401,-3.4486,-3.4774,-3.5059,-3.521,-3.5075,-3.5152,-3.5248,-3.5248,-3.597,-3.6862,-3.7546,-3.8364,-3.9163,-3.983,-4.012,-4.0269,-4.0269,-3.9199,-3.8584,-3.9431,0.0,0.0,0.0,-3.8757,-3.9142,-3.9811,-4.1043,-4.1909,-4.2117,-4.2553,-4.2915,-4.3108,-4.3127,-4.322,-4.3481,-4.268,-4.2506,-4.3168,-4.3158,-4.3532,-4.4402,-4.4174,-4.3924,-4.3639,-4.2265,-4.1268,-4.0622,-4.0052,-3.9714,-3.9551,-3.9551,-3.9623,-3.9739,-3.9739,-3.9804,-3.9889,-3.9889,-3.9911,-3.9951,-4.0203,-4.0627,-4.1072,-4.7268,-4.8581,-4.9669,-4.9602,-5.02,-5.0702,-5.0702,-5.0702,-5.0375,-4.951,-4.9394,-4.8779,-4.7163,-4.6951,-4.6567,-4.5759,-4.5624,-4.5586,-4.5586,-4.5586,-4.5586,-4.5586,-4.5586,-4.5566,-4.5509,-4.3912,-4.3049,-4.2992,-4.0441,-3.8754,-3.789,-3.6999,-3.6026,-3.4997,-3.5245,-3.5209,-3.498,-3.5245,-3.5308,-3.5216,-3.5032,-3.4962,-3.4925,-3.4714,-3.4486,-3.4265,-3.4265,-3.4265,-3.4265,-3.4265,-3.4442,-3.4653,-3.4674,-3.4694,-3.4812,-3.5018,-3.579,-3.6407,-3.5657,-3.586,-3.6281,-3.6281,-3.7357,-3.8496,-3.8784,-3.9489,-4.0137,-4.0406,-4.0473,-4.0473,-4.0473,-3.9777,-3.9469,-4.0277,0.0,0.0,-4.0181,-4.1008,-4.1582,-4.1705,-4.1821,-4.2221,-4.3018,-4.242,-4.2324,-4.3134,-4.3192,-4.3539,-4.4349,-4.3578,-4.313,-4.3192,-4.3202,-4.3616,-4.4484,-4.3694,-4.3475,-4.3855,-4.294,-4.1908,-4.0772,-4.0741,-4.0327,-3.9693,-3.9693,-3.9762,-3.9889,-3.9889,-3.9889,-3.9889,-3.9889,-3.9933,-4.0091,-4.0908,-4.0883,-4.0679,-4.71,-4.8052,-4.9003,-4.9495,-4.9806,-5.0195,-5.0699,-5.0296,-4.9642,-4.8776,-4.818,-4.7411,-4.622,-4.6086,-4.5951,-4.5624,-4.5586,-4.5586,-4.5586,-4.5586,-4.5586,-4.5586,-4.5586,-4.5105,-4.4066,-4.3431,-4.2566,-4.1489,-3.9454,-3.83,-3.7935,-3.6526,-3.5641,-3.5254,-3.5266,-3.5251,-3.5184,-3.5266,-3.5315,-3.5281,-3.5086,-3.4997,-3.498,-3.4774,-3.4632,-3.4551,-3.4551,-3.4891,-3.5273,-3.4783,-3.5054,-3.5495,-3.5134,-3.5378,-3.5945,-3.6684,-3.7179,-3.745,-3.7142,-3.7213,-3.7379,-3.7379,-3.8213,-3.9059,-3.9164,-3.9813,-4.0425,-4.0489,-4.0489,-4.0489,-4.0489,-3.9835,-3.9546,-4.0354,0.0,-3.9758,-4.1123,-4.162,-4.1863,-4.1898,-4.2819,-4.3389,-4.3211,-4.3878,-4.4452,-4.4781,-4.4819,-4.4969,-4.5293,-4.4984,-4.4341,-4.3291,-4.4264,-4.4699,-4.4495,-4.4673,-4.4722,-4.462,-4.3348,-4.2341,-4.1657,-4.0674,-4.0386,-4.0602,-4.0072,-4.017,-4.0669,-4.0207,-4.0041,-4.0101,-4.01,-4.0176,-4.0353,-4.065,-4.0965,-4.1306,-4.6689,-4.7386,-4.8164,-4.8717,-4.9026,-4.9377,-4.9942,-4.9519,-4.8808,-4.7942,-4.7289,-4.6598,-4.5734,-4.5637,-4.5637,-4.5637,-4.5637,-4.5637,-4.5637,-4.562,-4.5622,-4.5586,-4.5586,-4.4932,-4.3508,-4.3239,-4.2374,-4.0912,-3.9469,-3.8661,-3.8373,-3.7171,-3.6483,-3.6214,-3.6166,-3.5998,-3.5729,-3.5729,-3.5595,-3.535,-3.5203,-3.5155,-3.5157,-3.5265,-3.5287,-3.5268,-3.5533,-3.6027,-3.6426,-3.559,-3.5741,-3.6172,-3.5506,-3.5844,-3.6757,-3.8035,-3.8411,-3.845,-3.8719,-3.8796,-3.8719,-3.8469,-3.9046,-3.9681,-3.9681,-4.0085,-4.0489,-4.0489,-4.0489,-4.0489,-4.0489,-4.0046,-3.9854,-4.0412,-4.0489,-4.0796,-4.1681,-4.2541,-4.3011,-4.2742,-4.3717,-4.4307,-4.4047,-4.4868,-4.5539,-4.5791,-4.581,-4.5791,-4.58,-4.5548,-4.5007,-4.4117,-4.4949,-4.5264,-4.4906,-4.5471,-4.5445,-4.4881,-4.3809,-4.2986,-4.2382,-4.1311,-4.1184,-4.1719,-4.1085,-4.1007,-4.1277,-4.0728,-4.0406,-4.0229,-4.023,-4.0521,-4.0968,-4.117,-4.1514,-4.1872,-4.58,-4.6496,-4.7081,-4.7094,-4.777,-4.8295,-4.8304,-4.8304,-4.7995,-4.7108,-4.7012,-4.6664,-4.5777,-4.57,-4.57,-4.57,-4.57,-4.57,-4.57,-4.5706,-4.5657,-4.5603,-4.5586,-4.5182,-4.4316,-4.3508,-4.2662,-4.1797,-4.0912,-4.0065,-3.9296,-3.9277,-3.8834,-3.8007,-3.8007,-3.7526,-3.6699,-3.6699,-3.6238,-3.5493,-3.5493,-3.5493,-3.5603,-3.6392,-3.6577,-3.6525,-3.7385,-3.771,-3.7577,-3.6716,-3.6546,-3.6584,-3.5795,-3.6084,-3.7065,-3.8796,-3.9296,-3.9469,-4.0277,-4.0489,-4.0296,-3.9508,-3.9912,-4.0489,-4.0489,-4.0489,-4.0489,-4.0489,-4.0489,-4.0489,-4.0489,-4.0489,-4.0489,-4.0489,-4.195,-4.2797,-4.1931,-4.4058,-4.5382,-4.4581,-4.4495,-4.4849,-4.5703,-4.5065,-4.4949,-4.5742,-4.58,-4.58,-4.578,-4.5045,-4.4968,-4.5761,-4.5026,-4.4987,-4.578,-4.58,-4.5332,-4.4399,-4.4399,-4.3871,-4.2907,-4.2887,-4.2939,-4.2986,-4.2852,-4.2336,-4.1602,-4.1475,-4.0979,-4.0298,-4.0298,-4.0966,-4.1989,-4.28,-4.2671,-4.2209,-4.58,-4.609,-4.6515,-4.7066,-4.741,-4.7811,-4.8419,-4.7998,-4.7496,-4.7187,-4.6607,-4.609,-4.5735,-4.57,-4.57,-4.57,-4.57,-4.57,-4.57,-4.5706,-4.5693,-4.5657,-4.5622,-4.4932,-4.3489,-4.322,-4.2374,-4.0893,-4.0046,-3.9527,-3.9277,-3.8661,-3.8257,-3.8007,-3.8007,-3.7526,-3.6699,-3.6699,-3.6238,-3.5493,-3.5493,-3.5493,-3.5603,-3.6392,-3.6671,-3.6723,-3.7602,-3.8312,-3.8696,-3.7832,-3.7978,-3.8469,-3.8238,-3.8334,-3.8738,-3.9815,-4.0142,-4.0181,-4.0431,-4.0489,-4.0431,-4.02,-4.0315,-4.0489,-4.0489,-4.0489,-4.0489,-4.0489,-4.0489,-4.0489,-4.0489,-4.0539,-4.0573,-4.0573,-4.2029,-4.3085,-4.2815,-4.3983,-4.4766,-4.453,-4.4539,-4.4664,-4.4929,-4.5258,-4.5529,-4.578,-4.58,-4.5548,-4.4987,-4.5278,-4.5297,-4.4968,-4.5278,-4.5548,-4.58,-4.58,-4.5607,-4.5247,-4.4669,-4.4193,-4.3799,-4.3222,-4.331,-4.3856,-4.3133,-4.2729,-4.2553,-4.1937,-4.1262,-4.066,-4.0642,-4.0923,-4.141,-4.214,-4.1966,-4.1602,-4.591,-4.5988,-4.6189,-4.6678,-4.6799,-4.7004,-4.7536,-4.7156,-4.6806,-4.6768,-4.6274,-4.5902,-4.5838,-4.5781,-4.5742,-4.5742,-4.5437,-4.5244,-4.5229,-4.5202,-4.5189,-4.5192,-4.5447,-4.4816,-4.3143,-4.3104,-4.2239,-4.0489,-4.0008,-3.9758,-3.9758,-3.9238,-3.8988,-3.8969,-3.8661,-3.8027,-3.7199,-3.6853,-3.6238,-3.5532,-3.5853,-3.5968,-3.6103,-3.7276,-3.7738,-3.7834,-3.8681,-3.9335,-3.9642,-3.8796,-3.8642,-3.8854,-3.9181,-3.9296,-3.945,-4.0258,-4.0489,-4.0489,-4.0489,-4.0489,-4.0523,-4.0539,-4.0523,-4.0489,-4.0489,-4.0523,-4.0635,-4.0981,-4.0785,-4.0646,-4.0992,-4.0815,-4.0598,-4.0598,-4.2058,-4.3076,-4.2729,-4.4032,-4.4892,-4.4544,-4.4843,-4.5065,-4.5065,-4.551,-4.58,-4.58,-4.5808,-4.5628,-4.5144,-4.5596,-4.566,-4.5163,-4.5641,-4.588,-4.5854,-4.588,-4.5808,-4.5677,-4.522,-4.495,-4.4862,-4.4404,-4.4305,-4.4453,-4.3801,-4.3376,-4.3086,-4.2193,-4.1848,-4.1762,-4.1101,-4.1352,-4.2137,-4.2541,-4.2432,-4.2279,-4.6087,-4.6098,-4.6106,-4.6111,-4.6105,-4.6118,-4.6118,-4.6118,-4.6118,-4.6118,-4.6046,-4.6015,-4.6007,-4.5877,-4.58,-4.58,-4.5123,-4.4664,-4.4525,-4.4519,-4.4488,-4.4402,-4.5178,-4.4853,-4.3256,-4.3143,-4.2239,-4.0489,-4.0489,-4.0489,-4.0489,-4.0489,-4.0489,-4.045,-3.9662,-3.8815,-3.795,-3.7065,-3.6276,-3.568,-3.6411,-3.6757,-3.7007,-3.8661,-3.9296,-3.9411,-4.02,-4.0489,-4.0392,-3.9642,-3.8873,-3.8354,-3.9161,-3.9411,-3.9561,-4.0292,-4.0504,-4.0523,-4.06,-4.0562,-4.0539,-4.0684,-4.0611,-4.0504,-4.0504,-4.0554,-4.0838,-4.1705,-4.1268,-4.0954,-4.1745,-4.1335,-4.0814,-4.0737,-4.2184,-4.3052,-4.2242,-4.424,-4.5505,-4.4713,-4.5322,-4.58,-4.58,-4.58,-4.58,-4.58,-4.5848,-4.5905,-4.5905,-4.5964,-4.5997,-4.5997,-4.5997,-4.5975,-4.5917,-4.5975,-4.5941,-4.5814,-4.5893,-4.5898,-4.5929,-4.5986,-4.5609,-4.4906,-4.4702,-4.4167,-4.3345,-4.2419,-4.2521,-4.3161,-4.1723,-4.2155,-4.3598,-4.3702,-4.3682,-4.3721,-4.6102,-4.6147,-4.6176,-4.6183,-4.6216,-4.6264,-4.6264,-4.6264,-4.6245,-4.6186,-4.6123,-4.6066,-4.6002,-4.5877,-4.58,-4.58,-4.5645,-4.5278,-4.4626,-4.5158,-4.5186,-4.4515,-4.5256,-4.5221,-4.4218,-4.3484,-4.2239,-4.0489,-4.0489,-4.0489,-4.0489,-4.0489,-4.0489,-4.045,-3.9662,-3.8815,-3.795,-3.7065,-3.6603,-3.6469,-3.6642,-3.7123,-3.7834,-3.8892,-3.9296,-3.9411,-4.02,-4.0489,-4.0469,-4.0296,-4.0104,-3.9988,-4.0181,-4.0288,-4.0342,-4.0534,-4.0583,-4.0728,-4.1422,-4.1114,-4.0747,-4.1441,-4.1094,-4.0593,-4.0593,-4.0593,-4.0844,-4.1711,-4.1745,-4.1668,-4.1861,-4.2295,-4.2439,-4.1807,-4.3167,-4.4225,-4.4032,-4.5051,-4.5742,-4.5548,-4.5684,-4.58,-4.58,-4.58,-4.58,-4.58,-4.5848,-4.5905,-4.5905,-4.5964,-4.5997,-4.5997,-4.5997,-4.5997,-4.5986,-4.5997,-4.5964,-4.5893,-4.5953,-4.6007,-4.6066,-4.6075,-4.6013,-4.585,-4.5036,-4.4239,-4.353,-4.3219,-4.2869,-4.2564,-4.2895,-4.326,-4.3682,-4.4364,-4.4189,-4.3617,-4.6182,-4.6215,-4.6247,-4.6247,-4.6284,-4.6308,-4.6308,-4.6308,-4.6289,-4.625,-4.6189,-4.6119,-4.606,-4.5969,-4.5858,-4.58,-4.5452,-4.5045,-4.4639,-4.4964,-4.4989,-4.4525,-4.5272,-4.5314,-4.4504,-4.4029,-4.3111,-4.1782,-4.1358,-4.1166,-4.1147,-4.0746,-4.0539,-4.05,-3.9677,-3.9046,-3.8565,-3.77,-3.7315,-3.7353,-3.7777,-3.82,-3.87,-3.9546,-3.9873,-3.9931,-4.0335,-4.0523,-4.0539,-4.0549,-4.0549,-4.0549,-4.0549,-4.0564,-4.0675,-4.1099,-4.0921,-4.0877,-4.217,-4.1572,-4.091,-4.2198,-4.1889,-4.1156,-4.0698,-4.0949,-4.1503,-4.2353,-4.2541,-4.269,-4.3115,-4.3225,-4.3104,-4.2698,-4.3736,-4.4601,-4.4601,-4.5297,-4.58,-4.58,-4.58,-4.58,-4.58,-4.58,-4.58,-4.58,-4.5886,-4.5953,-4.5953,-4.6037,-4.6093,-4.6093,-4.6093,-4.6084,-4.6056,-4.6084,-4.6066,-4.5997,-4.6027,-4.6075,-4.6093,-4.6138,-4.5947,-4.5553,-4.5021,-4.4581,-4.4182,-4.3689,-4.3755,-4.4111,-4.376,-4.3858,-4.4286,-4.4734,-4.4878,-4.4845,-4.6284,-4.6308,-4.6308,-4.6308,-4.6308,-4.6308,-4.6308,-4.6308,-4.6308,-4.6308,-4.624,-4.6171,-4.6113,-4.6015,-4.593,-4.58,-4.5181,-4.4755,-4.462,-4.4689,-4.466,-4.4525,-4.5302,-4.5403,-4.4746,-4.4727,-4.4152,-4.298,-4.2247,-4.1822,-4.1649,-4.0945,-4.0603,-4.0564,-3.9706,-3.9326,-3.9268,-3.8402,-3.8099,-3.8306,-3.9037,-3.9403,-3.9595,-4.0269,-4.0519,-4.0519,-4.0519,-4.0554,-4.0622,-4.0631,-4.064,-4.0621,-4.0621,-4.0621,-4.0795,-4.1663,-4.1412,-4.1233,-4.297,-4.2276,-4.1445,-4.3051,-4.2839,-4.2014,-4.1233,-4.1652,-4.2452,-4.3264,-4.3485,-4.375,-4.4465,-4.4136,-4.3711,-4.3556,-4.4272,-4.4833,-4.4833,-4.5413,-4.5819,-4.5819,-4.5819,-4.5819,-4.5819,-4.5814,-4.5827,-4.5827,-4.5953,-4.6017,-4.6017,-4.6138,-4.6196,-4.6196,-4.6196,-4.6162,-4.613,-4.6162,-4.6162,-4.613,-4.613,-4.613,-4.613,-4.6162,-4.5806,-4.5105,-4.4949,-4.489,-4.4832,-4.413,-4.4676,-4.5845,-4.4559,-4.4481,-4.5124,-4.5124,-4.5586,-4.6203,-4.6308,-4.6308,-4.6308,-4.6308,-4.6308,-4.6308,-4.6308,-4.6308,-4.6308,-4.6308,-4.624,-4.6166,-4.6107,-4.5941,-4.5819,-4.58,-4.5703,-4.5336,-4.4659,-4.5239,-4.5316,-4.4626,-4.536,-4.5728,-4.5631,-4.5612,-4.4462,-4.2073,-4.1957,-4.1514,-4.0761,-4.0665,-4.0607,-4.0568,-3.9744,-3.9378,-3.932,-3.8452,-3.851,-3.9224,-3.9339,-3.9802,-4.0439,-4.0554,-4.0593,-4.0593,-4.0593,-4.0617,-4.0699,-4.0761,-4.0717,-4.0693,-4.0693,-4.0687,-4.0861,-4.173,-4.1892,-4.2189,-4.3949,-4.3697,-4.3175,-4.4161,-4.3755,-4.3079,-4.2963,-4.3021,-4.3369,-4.4219,-4.4427,-4.4465,-4.4581,-4.5162,-4.5388,-4.4634,-4.5253,-4.5814,-4.5814,-4.591,-4.5969,-4.5969,-4.5969,-4.5969,-4.5969,-4.5925,-4.5893,-4.5893,-4.6007,-4.6084,-4.6084,-4.6154,-4.6196,-4.6196,-4.6196,-4.6196,-4.6189,-4.6196,-4.6196,-4.6189,-4.6189,-4.6189,-4.6189,-4.6196,-4.6137,-4.5981,-4.5222,-4.489,-4.489,-4.4773,-4.4851,-4.5124,-4.565,-4.5923,-4.602,-4.602,-4.6092,-4.6203,-4.6308,-4.6308,-4.6308,-4.6308,-4.6308,-4.6308,-4.6308,-4.6303,-4.629,-4.6251,-4.6212,-4.6161,-4.6064,-4.5899,-4.58,-4.58,-4.58,-4.5645,-4.5297,-4.5587,-4.5645,-4.5297,-4.5606,-4.58,-4.58,-4.58,-4.478,-4.2684,-4.2684,-4.224,-4.137,-4.088,-4.0654,-4.0635,-4.0254,-4.0067,-4.0048,-3.9662,-3.972,-4.0067,-4.0067,-4.0279,-4.0588,-4.0588,-4.0588,-4.0607,-4.0679,-4.0752,-4.0818,-4.0856,-4.0837,-4.0807,-4.0771,-4.0765,-4.1016,-4.2331,-4.2383,-4.2473,-4.4678,-4.4311,-4.3634,-4.5026,-4.4717,-4.4214,-4.4736,-4.4852,-4.4813,-4.4639,-4.5026,-4.5374,-4.5374,-4.5742,-4.5945,-4.5541,-4.5803,-4.6053,-4.606,-4.6065,-4.6048,-4.5999,-4.5991,-4.5987,-4.5945,-4.5912,-4.5929,-4.5964,-4.6056,-4.6093,-4.6093,-4.6154,-4.6196,-4.6196,-4.6196,-4.6196,-4.6196,-4.6196,-4.6196,-4.6196,-4.6196,-4.6196,-4.6196,-4.6196,-4.6196,-4.6176,-4.5787,-4.5638,-4.5631,-4.5631,-4.5631,-4.567,-4.606,-4.6196,-4.6196,-4.6203,-4.6215,-4.627]}]]